Time,TemperatureF,DewpointF,PressureIn,WindDirection,WindDirectionDegrees,WindSpeedMPH,WindSpeedGustMPH,Humidity,HourlyPrecipIn,Conditions,Clouds,dailyrainin,SoftwareType,DateUTC
2013-05-15 00:00:00,63.7,60.4,30.18,WSW,249,0.0,0.0,89,0.00,,---,0.00,VWS V14.01,2013-05-15 05:00:00,
2013-05-15 00:01:00,63.7,60.4,30.18,WSW,249,0.0,0.0,89,0.00,,---,0.00,VWS V14.01,2013-05-15 05:01:00,
2013-05-15 00:02:00,63.5,60.2,30.18,WSW,249,0.0,0.0,89,0.00,,---,0.00,VWS V14.01,2013-05-15 05:02:00,
2013-05-15 00:03:00,63.5,60.2,30.18,WSW,249,0.0,0.0,89,0.00,,---,0.00,VWS V14.01,2013-05-15 05:03:00,
2013-05-15 00:04:00,63.5,60.2,30.18,WSW,249,0.0,0.0,89,0.00,,---,0.00,VWS V14.01,2013-05-15 05:04:00,
2013-05-15 00:05:00,63.5,60.2,30.18,WSW,249,0.0,0.0,89,0.00,,---,0.00,VWS V14.01,2013-05-15 05:05:00,
2013-05-15 00:06:00,63.4,60.1,30.18,WSW,249,0.0,0.0,89,0.00,,---,0.00,VWS V14.01,2013-05-15 05:06:00,
2013-05-15 00:07:00,63.3,60.0,30.18,WSW,249,0.0,0.0,89,0.00,,---,0.00,VWS V14.01,2013-05-15 05:07:00,
2013-05-15 00:08:00,63.3,60.0,30.18,WSW,249,0.0,0.0,89,0.00,,---,0.00,VWS V14.01,2013-05-15 05:08:00,
2013-05-15 00:09:00,63.3,60.0,30.18,WSW,249,0.0,0.0,89,0.00,,---,0.00,VWS V14.01,2013-05-15 05:09:00,
2013-05-15 00:10:00,63.2,59.9,30.18,WSW,249,0.0,0.0,89,0.00,,---,0.00,VWS V14.01,2013-05-15 05:10:00,
2013-05-15 00:11:00,63.2,60.2,30.18,WSW,249,0.0,0.0,90,0.00,,---,0.00,VWS V14.01,2013-05-15 05:11:00,
2013-05-15 00:12:00,63.2,60.2,30.18,WSW,249,0.0,0.0,90,0.00,,---,0.00,VWS V14.01,2013-05-15 05:12:00,
2013-05-15 00:13:00,63.2,60.2,30.18,WSW,249,0.0,0.0,90,0.00,,---,0.00,VWS V14.01,2013-05-15 05:13:00,
2013-05-15 00:14:00,63.2,60.2,30.18,WSW,249,0.0,0.0,90,0.00,,---,0.00,VWS V14.01,2013-05-15 05:14:00,
2013-05-15 00:15:00,63.2,60.2,30.18,WSW,249,0.0,0.0,90,0.00,,---,0.00,VWS V14.01,2013-05-15 05:15:00,
2013-05-15 00:16:00,63.2,60.2,30.18,WSW,249,0.0,0.0,90,0.00,,---,0.00,VWS V14.01,2013-05-15 05:16:00,
2013-05-15 00:17:00,63.2,60.2,30.18,WSW,249,0.0,0.0,90,0.00,,---,0.00,VWS V14.01,2013-05-15 05:17:00,
2013-05-15 00:18:00,63.2,60.2,30.18,WSW,249,0.0,0.0,90,0.00,,---,0.00,VWS V14.01,2013-05-15 05:18:00,
2013-05-15 00:19:00,63.2,60.2,30.18,WSW,249,0.0,0.0,90,0.00,,---,0.00,VWS V14.01,2013-05-15 05:19:00,
2013-05-15 00:20:00,63.3,60.3,30.18,WSW,249,0.0,0.0,90,0.00,,---,0.00,VWS V14.01,2013-05-15 05:20:00,
2013-05-15 00:21:00,63.3,60.3,30.18,WSW,252,0.0,0.0,90,0.00,,---,0.00,VWS V14.01,2013-05-15 05:21:00,
2013-05-15 00:22:00,63.4,60.4,30.18,WSW,252,0.0,0.0,90,0.00,,---,0.00,VWS V14.01,2013-05-15 05:22:00,
2013-05-15 00:23:00,63.5,60.5,30.18,WSW,252,0.0,0.0,90,0.00,,---,0.00,VWS V14.01,2013-05-15 05:23:00,
2013-05-15 00:24:00,63.5,60.5,30.18,WSW,252,0.0,0.0,90,0.00,,---,0.00,VWS V14.01,2013-05-15 05:24:00,
2013-05-15 00:25:00,63.5,60.5,30.18,WSW,252,0.0,0.0,90,0.00,,---,0.00,VWS V14.01,2013-05-15 05:25:00,
2013-05-15 00:26:00,63.5,60.5,30.18,WSW,252,0.0,0.0,90,0.00,,---,0.00,VWS V14.01,2013-05-15 05:26:00,
2013-05-15 00:27:00,63.6,60.6,30.18,WSW,252,0.0,0.0,90,0.00,,---,0.00,VWS V14.01,2013-05-15 05:27:00,
2013-05-15 00:28:00,63.7,60.7,30.18,WSW,252,0.0,0.0,90,0.00,,---,0.00,VWS V14.01,2013-05-15 05:28:00,
2013-05-15 00:29:00,63.7,60.7,30.18,WSW,252,0.0,0.0,90,0.00,,---,0.00,VWS V14.01,2013-05-15 05:29:00,
2013-05-15 00:30:00,63.7,60.4,30.18,WSW,252,0.0,0.0,89,0.00,,---,0.00,VWS V14.01,2013-05-15 05:30:00,
2013-05-15 00:31:00,63.7,60.4,30.18,WSW,252,0.0,0.0,89,0.00,,---,0.00,VWS V14.01,2013-05-15 05:31:00,
2013-05-15 00:32:00,63.7,60.4,30.18,WSW,252,0.0,0.0,89,0.00,,---,0.00,VWS V14.01,2013-05-15 05:32:00,
2013-05-15 00:33:00,63.7,60.4,30.18,WSW,252,0.0,0.0,89,0.00,,---,0.00,VWS V14.01,2013-05-15 05:33:00,
2013-05-15 00:34:00,63.7,60.4,30.18,WSW,252,0.0,0.0,89,0.00,,---,0.00,VWS V14.01,2013-05-15 05:34:00,
2013-05-15 00:35:00,63.7,60.4,30.18,WSW,252,0.0,0.0,89,0.00,,---,0.00,VWS V14.01,2013-05-15 05:35:00,
2013-05-15 00:36:00,63.6,60.3,30.18,WSW,252,0.0,0.0,89,0.00,,---,0.00,VWS V14.01,2013-05-15 05:36:00,
2013-05-15 00:37:00,63.6,60.3,30.18,WSW,252,0.0,0.0,89,0.00,,---,0.00,VWS V14.01,2013-05-15 05:37:00,
2013-05-15 00:38:00,63.7,60.4,30.18,WSW,252,0.0,0.0,89,0.00,,---,0.00,VWS V14.01,2013-05-15 05:38:00,
2013-05-15 00:39:00,63.6,60.3,30.18,WSW,250,0.0,0.0,89,0.00,,---,0.00,VWS V14.01,2013-05-15 05:39:00,
2013-05-15 00:40:00,63.7,60.4,30.18,WSW,250,0.0,0.0,89,0.00,,---,0.00,VWS V14.01,2013-05-15 05:40:00,
2013-05-15 00:41:00,63.7,60.4,30.18,WSW,250,0.0,0.0,89,0.00,,---,0.00,VWS V14.01,2013-05-15 05:41:00,
2013-05-15 00:42:00,63.7,60.4,30.18,WSW,250,0.0,0.0,89,0.00,,---,0.00,VWS V14.01,2013-05-15 05:42:00,
2013-05-15 00:43:00,63.7,60.4,30.18,WSW,250,0.0,0.0,89,0.00,,---,0.00,VWS V14.01,2013-05-15 05:43:00,
2013-05-15 00:44:00,63.7,60.4,30.18,WSW,250,0.0,0.0,89,0.00,,---,0.00,VWS V14.01,2013-05-15 05:44:00,
2013-05-15 00:45:00,63.6,60.3,30.18,WSW,250,0.0,0.0,89,0.00,,---,0.00,VWS V14.01,2013-05-15 05:45:00,
2013-05-15 00:46:00,63.6,60.3,30.18,WSW,250,0.0,0.0,89,0.00,,---,0.00,VWS V14.01,2013-05-15 05:46:00,
2013-05-15 00:47:00,63.6,60.3,30.18,WSW,250,0.0,0.0,89,0.00,,---,0.00,VWS V14.01,2013-05-15 05:47:00,
2013-05-15 00:48:00,63.5,60.2,30.18,WSW,250,0.0,0.0,89,0.00,,---,0.00,VWS V14.01,2013-05-15 05:48:00,
2013-05-15 00:49:00,63.5,60.2,30.18,WSW,250,0.0,0.0,89,0.00,,---,0.00,VWS V14.01,2013-05-15 05:49:00,
2013-05-15 00:50:00,63.4,60.1,30.18,WSW,252,0.0,0.0,89,0.00,,---,0.00,VWS V14.01,2013-05-15 05:50:00,
2013-05-15 00:51:00,63.4,60.1,30.18,WSW,252,0.0,0.0,89,0.00,,---,0.00,VWS V14.01,2013-05-15 05:51:00,
2013-05-15 00:52:00,63.4,60.1,30.18,WSW,250,0.0,0.0,89,0.00,,---,0.00,VWS V14.01,2013-05-15 05:52:00,
2013-05-15 00:53:00,63.4,60.1,30.18,WSW,250,0.0,0.0,89,0.00,,---,0.00,VWS V14.01,2013-05-15 05:53:00,
2013-05-15 00:54:00,63.4,60.4,30.18,WSW,250,0.0,0.0,90,0.00,,---,0.00,VWS V14.01,2013-05-15 05:54:00,
2013-05-15 00:55:00,63.4,60.4,30.18,WSW,250,0.0,0.0,90,0.00,,---,0.00,VWS V14.01,2013-05-15 05:55:00,
2013-05-15 00:56:00,63.4,60.4,30.18,WSW,250,0.0,0.0,90,0.00,,---,0.00,VWS V14.01,2013-05-15 05:56:00,
2013-05-15 00:57:00,63.4,60.4,30.18,WSW,250,0.0,0.0,90,0.00,,---,0.00,VWS V14.01,2013-05-15 05:57:00,
2013-05-15 00:58:00,63.5,60.5,30.18,WSW,250,0.0,0.0,90,0.00,,---,0.00,VWS V14.01,2013-05-15 05:58:00,
2013-05-15 00:59:00,63.5,60.2,30.18,WSW,250,0.0,0.0,89,0.00,,---,0.00,VWS V14.01,2013-05-15 05:59:00,
2013-05-15 01:00:00,63.5,60.2,30.18,WSW,250,0.0,0.0,89,0.00,,---,0.00,VWS V14.01,2013-05-15 06:00:00,
2013-05-15 01:01:00,63.5,60.2,30.18,WSW,250,0.0,0.0,89,0.00,,---,0.00,VWS V14.01,2013-05-15 06:01:00,
2013-05-15 01:02:00,63.5,60.2,30.18,WSW,250,0.0,0.0,89,0.00,,---,0.00,VWS V14.01,2013-05-15 06:02:00,
2013-05-15 01:03:00,63.5,60.2,30.18,WSW,250,0.0,0.0,89,0.00,,---,0.00,VWS V14.01,2013-05-15 06:03:00,
2013-05-15 01:04:00,63.6,60.3,30.18,WSW,250,0.0,0.0,89,0.00,,---,0.00,VWS V14.01,2013-05-15 06:04:00,
2013-05-15 01:05:00,63.6,60.3,30.18,West,262,1.0,2.0,89,0.00,,---,0.00,VWS V14.01,2013-05-15 06:05:00,
2013-05-15 01:06:00,63.7,60.4,30.18,West,262,0.0,0.0,89,0.00,,---,0.00,VWS V14.01,2013-05-15 06:06:00,
2013-05-15 01:07:00,63.7,60.4,30.18,West,262,0.0,0.0,89,0.00,,---,0.00,VWS V14.01,2013-05-15 06:07:00,
2013-05-15 01:08:00,63.7,60.4,30.18,West,262,0.0,0.0,89,0.00,,---,0.00,VWS V14.01,2013-05-15 06:08:00,
2013-05-15 01:09:00,63.7,60.4,30.18,WSW,243,0.0,2.0,89,0.00,,---,0.00,VWS V14.01,2013-05-15 06:09:00,
2013-05-15 01:10:00,63.8,60.5,30.18,WSW,240,1.0,1.0,89,0.00,,---,0.00,VWS V14.01,2013-05-15 06:10:00,
2013-05-15 01:11:00,63.9,60.6,30.18,WSW,255,0.0,2.0,89,0.00,,---,0.00,VWS V14.01,2013-05-15 06:11:00,
2013-05-15 01:12:00,63.9,60.6,30.18,WSW,255,0.0,2.0,89,0.00,,---,0.00,VWS V14.01,2013-05-15 06:12:00,
2013-05-15 01:13:00,64.0,60.7,30.18,WSW,255,1.0,1.0,89,0.00,,---,0.00,VWS V14.01,2013-05-15 06:13:00,
2013-05-15 01:14:00,64.0,60.7,30.18,SW,236,0.0,3.0,89,0.00,,---,0.00,VWS V14.01,2013-05-15 06:14:00,
2013-05-15 01:15:00,64.1,60.8,30.18,SW,235,0.0,1.0,89,0.00,,---,0.00,VWS V14.01,2013-05-15 06:15:00,
2013-05-15 01:16:00,64.2,60.6,30.18,WSW,238,0.0,1.0,88,0.00,,---,0.00,VWS V14.01,2013-05-15 06:16:00,
2013-05-15 01:17:00,64.2,60.6,30.18,WSW,238,0.0,1.0,88,0.00,,---,0.00,VWS V14.01,2013-05-15 06:17:00,
2013-05-15 01:18:00,64.2,60.6,30.18,West,260,1.0,1.0,88,0.00,,---,0.00,VWS V14.01,2013-05-15 06:18:00,
2013-05-15 01:19:00,64.3,60.7,30.18,West,259,0.0,1.0,88,0.00,,---,0.00,VWS V14.01,2013-05-15 06:19:00,
2013-05-15 01:20:00,64.3,60.7,30.18,West,259,0.0,1.0,88,0.00,,---,0.00,VWS V14.01,2013-05-15 06:20:00,
2013-05-15 01:21:00,64.3,60.7,30.18,West,259,0.0,1.0,88,0.00,,---,0.00,VWS V14.01,2013-05-15 06:21:00,
2013-05-15 01:22:00,64.3,60.7,30.18,WSW,258,1.0,1.0,88,0.00,,---,0.00,VWS V14.01,2013-05-15 06:22:00,
2013-05-15 01:23:00,64.3,60.7,30.18,WSW,258,1.0,1.0,88,0.00,,---,0.00,VWS V14.01,2013-05-15 06:23:00,
2013-05-15 01:24:00,64.3,60.7,30.18,West,259,0.0,1.0,88,0.00,,---,0.00,VWS V14.01,2013-05-15 06:24:00,
2013-05-15 01:25:00,64.3,60.7,30.18,West,259,0.0,0.0,88,0.00,,---,0.00,VWS V14.01,2013-05-15 06:25:00,
2013-05-15 01:26:00,64.4,60.8,30.18,WSW,248,1.0,2.0,88,0.00,,---,0.00,VWS V14.01,2013-05-15 06:26:00,
2013-05-15 01:27:00,64.4,60.8,30.18,WSW,243,0.0,2.0,88,0.00,,---,0.00,VWS V14.01,2013-05-15 06:27:00,
2013-05-15 01:28:00,64.4,60.8,30.18,WSW,243,0.0,2.0,88,0.00,,---,0.00,VWS V14.01,2013-05-15 06:28:00,
2013-05-15 01:29:00,64.5,60.9,30.18,WSW,243,1.0,1.0,88,0.00,,---,0.00,VWS V14.01,2013-05-15 06:29:00,
2013-05-15 01:30:00,64.5,60.9,30.18,WSW,252,1.0,2.0,88,0.00,,---,0.00,VWS V14.01,2013-05-15 06:30:00,
2013-05-15 01:31:00,64.5,60.9,30.17,SW,225,1.0,2.0,88,0.00,,---,0.00,VWS V14.01,2013-05-15 06:31:00,
2013-05-15 01:32:00,64.5,60.9,30.17,SW,226,0.0,0.0,88,0.00,,---,0.00,VWS V14.01,2013-05-15 06:32:00,
2013-05-15 01:33:00,64.5,60.9,30.17,SW,226,0.0,0.0,88,0.00,,---,0.00,VWS V14.01,2013-05-15 06:33:00,
2013-05-15 01:34:00,64.5,60.9,30.17,SW,226,0.0,0.0,88,0.00,,---,0.00,VWS V14.01,2013-05-15 06:34:00,
2013-05-15 01:35:00,64.5,60.9,30.17,SW,226,0.0,0.0,88,0.00,,---,0.00,VWS V14.01,2013-05-15 06:35:00,
2013-05-15 01:36:00,64.5,60.9,30.17,WSW,248,1.0,1.0,88,0.00,,---,0.00,VWS V14.01,2013-05-15 06:36:00,
2013-05-15 01:37:00,64.5,60.9,30.17,WSW,245,1.0,2.0,88,0.00,,---,0.00,VWS V14.01,2013-05-15 06:37:00,
2013-05-15 01:38:00,64.5,60.9,30.17,WSW,245,1.0,2.0,88,0.00,,---,0.00,VWS V14.01,2013-05-15 06:38:00,
2013-05-15 01:39:00,64.5,60.9,30.17,WSW,246,0.0,1.0,88,0.00,,---,0.00,VWS V14.01,2013-05-15 06:39:00,
2013-05-15 01:40:00,64.5,60.9,30.17,WSW,255,1.0,2.0,88,0.00,,---,0.00,VWS V14.01,2013-05-15 06:40:00,
2013-05-15 01:41:00,64.5,60.9,30.17,WSW,253,1.0,1.0,88,0.00,,---,0.00,VWS V14.01,2013-05-15 06:41:00,
2013-05-15 01:42:00,64.5,60.9,30.17,WSW,249,1.0,2.0,88,0.00,,---,0.00,VWS V14.01,2013-05-15 06:42:00,
2013-05-15 01:43:00,64.5,60.9,30.17,WSW,249,0.0,0.0,88,0.00,,---,0.00,VWS V14.01,2013-05-15 06:43:00,
2013-05-15 01:44:00,64.5,60.9,30.17,WSW,249,0.0,0.0,88,0.00,,---,0.00,VWS V14.01,2013-05-15 06:44:00,
2013-05-15 01:45:00,64.5,60.9,30.17,WSW,249,0.0,0.0,88,0.00,,---,0.00,VWS V14.01,2013-05-15 06:45:00,
2013-05-15 01:46:00,64.5,60.9,30.17,SW,235,0.0,0.0,88,0.00,,---,0.00,VWS V14.01,2013-05-15 06:46:00,
2013-05-15 01:47:00,64.5,60.9,30.17,SW,235,0.0,0.0,88,0.00,,---,0.00,VWS V14.01,2013-05-15 06:47:00,
2013-05-15 01:48:00,64.4,60.8,30.17,SW,234,0.0,0.0,88,0.00,,---,0.00,VWS V14.01,2013-05-15 06:48:00,
2013-05-15 01:49:00,64.4,60.8,30.17,SW,234,0.0,0.0,88,0.00,,---,0.00,VWS V14.01,2013-05-15 06:49:00,
2013-05-15 01:50:00,64.4,60.8,30.17,SW,234,0.0,0.0,88,0.00,,---,0.00,VWS V14.01,2013-05-15 06:50:00,
2013-05-15 01:51:00,64.3,60.7,30.17,SW,235,0.0,0.0,88,0.00,,---,0.00,VWS V14.01,2013-05-15 06:51:00,
2013-05-15 01:52:00,64.3,60.7,30.17,SW,235,0.0,0.0,88,0.00,,---,0.00,VWS V14.01,2013-05-15 06:52:00,
2013-05-15 01:53:00,64.2,60.9,30.17,SW,236,0.0,0.0,89,0.00,,---,0.00,VWS V14.01,2013-05-15 06:53:00,
2013-05-15 01:54:00,64.2,60.9,30.17,SW,236,0.0,0.0,89,0.00,,---,0.00,VWS V14.01,2013-05-15 06:54:00,
2013-05-15 01:55:00,64.2,60.9,30.16,SW,235,0.0,0.0,89,0.00,,---,0.00,VWS V14.01,2013-05-15 06:55:00,
2013-05-15 01:56:00,64.1,60.8,30.17,SW,235,0.0,0.0,89,0.00,,---,0.00,VWS V14.01,2013-05-15 06:56:00,
2013-05-15 01:57:00,64.1,60.8,30.17,SW,234,0.0,0.0,89,0.00,,---,0.00,VWS V14.01,2013-05-15 06:57:00,
2013-05-15 01:58:00,64.0,60.7,30.17,SW,235,0.0,0.0,89,0.00,,---,0.00,VWS V14.01,2013-05-15 06:58:00,
2013-05-15 01:59:00,63.9,60.6,30.17,SW,234,0.0,0.0,89,0.00,,---,0.00,VWS V14.01,2013-05-15 06:59:00,
2013-05-15 02:00:00,63.9,60.6,30.17,SW,234,0.0,0.0,89,0.00,,---,0.00,VWS V14.01,2013-05-15 07:00:00,
2013-05-15 02:01:00,63.8,60.5,30.17,SW,234,0.0,0.0,89,0.00,,---,0.00,VWS V14.01,2013-05-15 07:01:00,
2013-05-15 02:02:00,63.7,60.4,30.17,SW,235,0.0,0.0,89,0.00,,---,0.00,VWS V14.01,2013-05-15 07:02:00,
2013-05-15 02:03:00,63.7,60.4,30.17,SW,235,0.0,0.0,89,0.00,,---,0.00,VWS V14.01,2013-05-15 07:03:00,
2013-05-15 02:04:00,63.6,60.6,30.17,SW,234,0.0,0.0,90,0.00,,---,0.00,VWS V14.01,2013-05-15 07:04:00,
2013-05-15 02:05:00,63.5,60.5,30.17,SW,234,0.0,0.0,90,0.00,,---,0.00,VWS V14.01,2013-05-15 07:05:00,
2013-05-15 02:06:00,63.5,60.5,30.17,SW,234,0.0,0.0,90,0.00,,---,0.00,VWS V14.01,2013-05-15 07:06:00,
2013-05-15 02:07:00,63.5,60.5,30.17,SW,234,0.0,0.0,90,0.00,,---,0.00,VWS V14.01,2013-05-15 07:07:00,
2013-05-15 02:08:00,63.5,60.5,30.17,SW,235,0.0,0.0,90,0.00,,---,0.00,VWS V14.01,2013-05-15 07:08:00,
2013-05-15 02:09:00,63.4,60.4,30.17,SW,235,0.0,0.0,90,0.00,,---,0.00,VWS V14.01,2013-05-15 07:09:00,
2013-05-15 02:10:00,63.4,60.4,30.17,SW,234,0.0,0.0,90,0.00,,---,0.00,VWS V14.01,2013-05-15 07:10:00,
2013-05-15 02:11:00,63.4,60.4,30.17,SW,234,0.0,0.0,90,0.00,,---,0.00,VWS V14.01,2013-05-15 07:11:00,
2013-05-15 02:12:00,63.3,60.3,30.17,SW,235,0.0,0.0,90,0.00,,---,0.00,VWS V14.01,2013-05-15 07:12:00,
2013-05-15 02:13:00,63.3,60.3,30.17,SW,235,0.0,0.0,90,0.00,,---,0.00,VWS V14.01,2013-05-15 07:13:00,
2013-05-15 02:14:00,63.3,60.3,30.17,SW,235,0.0,0.0,90,0.00,,---,0.00,VWS V14.01,2013-05-15 07:14:00,
2013-05-15 02:15:00,63.2,60.5,30.17,SW,235,0.0,0.0,91,0.00,,---,0.00,VWS V14.01,2013-05-15 07:15:00,
2013-05-15 02:16:00,63.1,60.4,30.17,SW,234,0.0,0.0,91,0.00,,---,0.00,VWS V14.01,2013-05-15 07:16:00,
2013-05-15 02:17:00,63.1,60.4,30.17,SW,234,0.0,0.0,91,0.00,,---,0.00,VWS V14.01,2013-05-15 07:17:00,
2013-05-15 02:18:00,63.1,60.4,30.17,SW,235,0.0,0.0,91,0.00,,---,0.00,VWS V14.01,2013-05-15 07:18:00,
2013-05-15 02:19:00,63.0,60.3,30.17,SW,234,0.0,0.0,91,0.00,,---,0.00,VWS V14.01,2013-05-15 07:19:00,
2013-05-15 02:20:00,63.0,60.3,30.17,SW,235,0.0,0.0,91,0.00,,---,0.00,VWS V14.01,2013-05-15 07:20:00,
2013-05-15 02:21:00,63.0,60.3,30.17,SW,234,0.0,0.0,91,0.00,,---,0.00,VWS V14.01,2013-05-15 07:21:00,
2013-05-15 02:22:00,63.0,60.3,30.17,SW,234,0.0,0.0,91,0.00,,---,0.00,VWS V14.01,2013-05-15 07:22:00,
2013-05-15 02:23:00,63.0,60.3,30.17,SW,234,0.0,0.0,91,0.00,,---,0.00,VWS V14.01,2013-05-15 07:23:00,
2013-05-15 02:24:00,62.9,60.2,30.17,SW,235,0.0,0.0,91,0.00,,---,0.00,VWS V14.01,2013-05-15 07:24:00,
2013-05-15 02:25:00,62.9,60.2,30.17,SW,234,0.0,0.0,91,0.00,,---,0.00,VWS V14.01,2013-05-15 07:25:00,
2013-05-15 02:26:00,62.8,60.1,30.16,SW,234,0.0,0.0,91,0.00,,---,0.00,VWS V14.01,2013-05-15 07:26:00,
2013-05-15 02:27:00,62.8,60.1,30.16,SW,234,0.0,0.0,91,0.00,,---,0.00,VWS V14.01,2013-05-15 07:27:00,
2013-05-15 02:28:00,62.8,60.1,30.16,SW,235,0.0,0.0,91,0.00,,---,0.00,VWS V14.01,2013-05-15 07:28:00,
2013-05-15 02:29:00,62.7,60.3,30.16,SW,235,0.0,0.0,92,0.00,,---,0.00,VWS V14.01,2013-05-15 07:29:00,
2013-05-15 02:30:00,62.7,60.3,30.17,SW,235,0.0,0.0,92,0.00,,---,0.00,VWS V14.01,2013-05-15 07:30:00,
2013-05-15 02:31:00,62.6,60.2,30.17,SW,235,0.0,0.0,92,0.00,,---,0.00,VWS V14.01,2013-05-15 07:31:00,
2013-05-15 02:32:00,62.5,60.2,30.16,SW,235,0.0,0.0,92,0.00,,---,0.00,VWS V14.01,2013-05-15 07:32:00,
2013-05-15 02:33:00,62.5,60.2,30.16,SW,235,0.0,0.0,92,0.00,,---,0.00,VWS V14.01,2013-05-15 07:33:00,
2013-05-15 02:34:00,62.4,60.0,30.16,SW,235,0.0,0.0,92,0.00,,---,0.00,VWS V14.01,2013-05-15 07:34:00,
2013-05-15 02:35:00,62.4,60.0,30.16,SW,235,0.0,0.0,92,0.00,,---,0.00,VWS V14.01,2013-05-15 07:35:00,
2013-05-15 02:36:00,62.3,60.0,30.16,SW,235,0.0,0.0,92,0.00,,---,0.00,VWS V14.01,2013-05-15 07:36:00,
2013-05-15 02:37:00,62.3,60.0,30.16,SW,235,0.0,0.0,92,0.00,,---,0.00,VWS V14.01,2013-05-15 07:37:00,
2013-05-15 02:38:00,62.3,60.0,30.16,SW,235,0.0,0.0,92,0.00,,---,0.00,VWS V14.01,2013-05-15 07:38:00,
2013-05-15 02:39:00,62.3,60.3,30.16,SW,235,0.0,0.0,93,0.00,,---,0.00,VWS V14.01,2013-05-15 07:39:00,
2013-05-15 02:40:00,62.3,60.3,30.16,SW,235,0.0,0.0,93,0.00,,---,0.00,VWS V14.01,2013-05-15 07:40:00,
2013-05-15 02:41:00,62.3,60.3,30.16,SW,235,0.0,0.0,93,0.00,,---,0.00,VWS V14.01,2013-05-15 07:41:00,
2013-05-15 02:42:00,62.3,60.2,30.16,SW,235,0.0,0.0,93,0.00,,---,0.00,VWS V14.01,2013-05-15 07:42:00,
2013-05-15 02:43:00,62.3,60.3,30.16,SW,235,0.0,0.0,93,0.00,,---,0.00,VWS V14.01,2013-05-15 07:43:00,
2013-05-15 02:44:00,62.3,60.3,30.16,SW,234,0.0,0.0,93,0.00,,---,0.00,VWS V14.01,2013-05-15 07:44:00,
2013-05-15 02:45:00,62.3,60.3,30.16,SW,235,0.0,0.0,93,0.00,,---,0.00,VWS V14.01,2013-05-15 07:45:00,
2013-05-15 02:46:00,62.2,60.2,30.16,SW,234,0.0,0.0,93,0.00,,---,0.00,VWS V14.01,2013-05-15 07:46:00,
2013-05-15 02:47:00,62.2,60.2,30.16,SW,235,0.0,0.0,93,0.00,,---,0.00,VWS V14.01,2013-05-15 07:47:00,
2013-05-15 02:48:00,62.2,60.2,30.16,SW,235,0.0,0.0,93,0.00,,---,0.00,VWS V14.01,2013-05-15 07:48:00,
2013-05-15 02:49:00,62.2,60.2,30.16,SW,234,0.0,0.0,93,0.00,,---,0.00,VWS V14.01,2013-05-15 07:49:00,
2013-05-15 02:50:00,62.2,60.2,30.16,SW,235,0.0,0.0,93,0.00,,---,0.00,VWS V14.01,2013-05-15 07:50:00,
2013-05-15 02:51:00,62.2,60.2,30.17,SW,235,0.0,0.0,93,0.00,,---,0.00,VWS V14.01,2013-05-15 07:51:00,
2013-05-15 02:52:00,62.2,60.2,30.17,SW,235,0.0,0.0,93,0.00,,---,0.00,VWS V14.01,2013-05-15 07:52:00,
2013-05-15 02:53:00,62.2,60.2,30.17,SW,235,0.0,0.0,93,0.00,,---,0.00,VWS V14.01,2013-05-15 07:53:00,
2013-05-15 02:54:00,62.2,60.2,30.17,SW,235,0.0,0.0,93,0.00,,---,0.00,VWS V14.01,2013-05-15 07:54:00,
2013-05-15 02:55:00,62.2,60.2,30.17,SW,235,0.0,0.0,93,0.00,,---,0.00,VWS V14.01,2013-05-15 07:55:00,
2013-05-15 02:56:00,62.2,60.2,30.17,SW,235,0.0,0.0,93,0.00,,---,0.00,VWS V14.01,2013-05-15 07:56:00,
2013-05-15 02:57:00,62.2,60.2,30.17,SW,235,0.0,0.0,93,0.00,,---,0.00,VWS V14.01,2013-05-15 07:57:00,
2013-05-15 02:58:00,62.2,60.2,30.17,SW,235,0.0,0.0,93,0.00,,---,0.00,VWS V14.01,2013-05-15 07:58:00,
2013-05-15 02:59:00,62.3,60.3,30.17,SW,235,0.0,0.0,93,0.00,,---,0.00,VWS V14.01,2013-05-15 07:59:00,
2013-05-15 03:00:00,62.3,60.3,30.17,SW,235,0.0,0.0,93,0.00,,---,0.00,VWS V14.01,2013-05-15 08:00:00,
2013-05-15 03:01:00,62.3,60.6,30.17,SW,235,0.0,0.0,94,0.00,,---,0.00,VWS V14.01,2013-05-15 08:01:00,
2013-05-15 03:02:00,62.3,60.6,30.17,SW,235,0.0,0.0,94,0.00,,---,0.00,VWS V14.01,2013-05-15 08:02:00,
2013-05-15 03:03:00,62.3,60.6,30.17,SW,234,0.0,0.0,94,0.00,,---,0.00,VWS V14.01,2013-05-15 08:03:00,
2013-05-15 03:04:00,62.3,60.6,30.17,SW,234,0.0,0.0,94,0.00,,---,0.00,VWS V14.01,2013-05-15 08:04:00,
2013-05-15 03:05:00,62.4,60.7,30.17,SW,235,0.0,0.0,94,0.00,,---,0.00,VWS V14.01,2013-05-15 08:05:00,
2013-05-15 03:06:00,62.5,60.8,30.17,SW,235,0.0,0.0,94,0.00,,---,0.00,VWS V14.01,2013-05-15 08:06:00,
2013-05-15 03:07:00,62.5,60.5,30.17,SW,235,0.0,0.0,93,0.00,,---,0.00,VWS V14.01,2013-05-15 08:07:00,
2013-05-15 03:08:00,62.5,60.5,30.17,SW,235,0.0,0.0,93,0.00,,---,0.00,VWS V14.01,2013-05-15 08:08:00,
2013-05-15 03:09:00,62.5,60.5,30.17,SW,235,0.0,0.0,93,0.00,,---,0.00,VWS V14.01,2013-05-15 08:09:00,
2013-05-15 03:10:00,62.5,60.5,30.17,SW,234,0.0,0.0,93,0.00,,---,0.00,VWS V14.01,2013-05-15 08:10:00,
2013-05-15 03:11:00,62.6,60.5,30.17,SW,235,0.0,0.0,93,0.00,,---,0.00,VWS V14.01,2013-05-15 08:11:00,
2013-05-15 03:12:00,62.6,60.5,30.17,SW,235,0.0,0.0,93,0.00,,---,0.00,VWS V14.01,2013-05-15 08:12:00,
2013-05-15 03:13:00,62.7,60.7,30.17,SW,235,0.0,0.0,93,0.00,,---,0.00,VWS V14.01,2013-05-15 08:13:00,
2013-05-15 03:14:00,62.7,60.7,30.17,WSW,256,0.0,0.0,93,0.00,,---,0.00,VWS V14.01,2013-05-15 08:14:00,
2013-05-15 03:15:00,62.7,60.7,30.17,WSW,256,0.0,0.0,93,0.00,,---,0.00,VWS V14.01,2013-05-15 08:15:00,
2013-05-15 03:16:00,62.7,60.7,30.17,WSW,256,0.0,0.0,93,0.00,,---,0.00,VWS V14.01,2013-05-15 08:16:00,
2013-05-15 03:18:00,62.8,60.8,30.17,WSW,256,0.0,0.0,93,0.00,,---,0.00,VWS V14.01,2013-05-15 08:18:00,
2013-05-15 03:19:00,62.8,60.8,30.17,WSW,256,0.0,0.0,93,0.00,,---,0.00,VWS V14.01,2013-05-15 08:19:00,
2013-05-15 03:22:00,62.8,60.8,30.18,WSW,256,0.0,0.0,93,0.00,,---,0.00,VWS V14.01,2013-05-15 08:22:00,
2013-05-15 03:23:00,62.8,60.8,30.18,WSW,256,0.0,0.0,93,0.00,,---,0.00,VWS V14.01,2013-05-15 08:23:00,
2013-05-15 03:24:00,62.8,60.8,30.18,WSW,256,0.0,0.0,93,0.00,,---,0.00,VWS V14.01,2013-05-15 08:24:00,
2013-05-15 03:25:00,62.8,60.8,30.18,WSW,256,0.0,0.0,93,0.00,,---,0.00,VWS V14.01,2013-05-15 08:25:00,
2013-05-15 03:26:00,62.8,60.8,30.18,WSW,256,0.0,0.0,93,0.00,,---,0.00,VWS V14.01,2013-05-15 08:26:00,
2013-05-15 03:27:00,62.8,60.8,30.18,WSW,256,0.0,0.0,93,0.00,,---,0.00,VWS V14.01,2013-05-15 08:27:00,
2013-05-15 03:28:00,62.8,60.8,30.18,WSW,256,0.0,0.0,93,0.00,,---,0.00,VWS V14.01,2013-05-15 08:28:00,
2013-05-15 03:29:00,62.8,60.8,30.18,WSW,256,0.0,0.0,93,0.00,,---,0.00,VWS V14.01,2013-05-15 08:29:00,
2013-05-15 03:30:00,62.7,60.7,30.18,WSW,256,0.0,0.0,93,0.00,,---,0.00,VWS V14.01,2013-05-15 08:30:00,
2013-05-15 03:31:00,62.7,60.7,30.18,WSW,256,0.0,0.0,93,0.00,,---,0.00,VWS V14.01,2013-05-15 08:31:00,
2013-05-15 03:32:00,62.7,60.3,30.18,WSW,256,0.0,0.0,92,0.00,,---,0.00,VWS V14.01,2013-05-15 08:32:00,
2013-05-15 03:33:00,62.6,60.2,30.18,WSW,256,0.0,0.0,92,0.00,,---,0.00,VWS V14.01,2013-05-15 08:33:00,
2013-05-15 03:34:00,62.6,60.2,30.18,WSW,256,0.0,0.0,92,0.00,,---,0.00,VWS V14.01,2013-05-15 08:34:00,
2013-05-15 03:35:00,62.5,60.5,30.18,WSW,256,0.0,0.0,93,0.00,,---,0.00,VWS V14.01,2013-05-15 08:35:00,
2013-05-15 03:36:00,62.5,60.5,30.18,WSW,256,0.0,0.0,93,0.00,,---,0.00,VWS V14.01,2013-05-15 08:36:00,
2013-05-15 03:37:00,62.4,60.3,30.18,WSW,256,0.0,0.0,93,0.00,,---,0.00,VWS V14.01,2013-05-15 08:37:00,
2013-05-15 03:38:00,62.4,60.3,30.18,WSW,256,0.0,0.0,93,0.00,,---,0.00,VWS V14.01,2013-05-15 08:38:00,
2013-05-15 03:39:00,62.4,60.3,30.18,WSW,256,0.0,0.0,93,0.00,,---,0.00,VWS V14.01,2013-05-15 08:39:00,
2013-05-15 03:40:00,62.3,60.2,30.18,WSW,256,0.0,0.0,93,0.00,,---,0.00,VWS V14.01,2013-05-15 08:40:00,
2013-05-15 03:41:00,62.3,60.3,30.18,WSW,256,0.0,0.0,93,0.00,,---,0.00,VWS V14.01,2013-05-15 08:41:00,
2013-05-15 03:42:00,62.3,60.3,30.18,WSW,256,0.0,0.0,93,0.00,,---,0.00,VWS V14.01,2013-05-15 08:42:00,
2013-05-15 03:43:00,62.3,60.3,30.18,WSW,256,0.0,0.0,93,0.00,,---,0.00,VWS V14.01,2013-05-15 08:43:00,
2013-05-15 03:44:00,62.2,60.2,30.18,WSW,256,0.0,0.0,93,0.00,,---,0.00,VWS V14.01,2013-05-15 08:44:00,
2013-05-15 03:45:00,62.2,60.2,30.18,WSW,256,0.0,0.0,93,0.00,,---,0.00,VWS V14.01,2013-05-15 08:45:00,
2013-05-15 03:46:00,62.2,60.2,30.18,WSW,256,0.0,0.0,93,0.00,,---,0.00,VWS V14.01,2013-05-15 08:46:00,
2013-05-15 03:47:00,62.1,60.1,30.18,WSW,256,0.0,0.0,93,0.00,,---,0.00,VWS V14.01,2013-05-15 08:47:00,
2013-05-15 03:48:00,62.1,60.1,30.18,WSW,256,0.0,0.0,93,0.00,,---,0.00,VWS V14.01,2013-05-15 08:48:00,
2013-05-15 03:49:00,62.0,60.0,30.18,WSW,256,0.0,0.0,93,0.00,,---,0.00,VWS V14.01,2013-05-15 08:49:00,
2013-05-15 03:50:00,62.0,60.0,30.18,WSW,256,0.0,0.0,93,0.00,,---,0.00,VWS V14.01,2013-05-15 08:50:00,
2013-05-15 03:51:00,61.9,59.9,30.18,WSW,256,0.0,0.0,93,0.00,,---,0.00,VWS V14.01,2013-05-15 08:51:00,
2013-05-15 03:52:00,61.9,59.9,30.18,WSW,256,0.0,0.0,93,0.00,,---,0.00,VWS V14.01,2013-05-15 08:52:00,
2013-05-15 03:53:00,61.8,59.8,30.18,WSW,256,0.0,0.0,93,0.00,,---,0.00,VWS V14.01,2013-05-15 08:53:00,
2013-05-15 03:54:00,61.8,59.8,30.18,WSW,256,0.0,0.0,93,0.00,,---,0.00,VWS V14.01,2013-05-15 08:54:00,
2013-05-15 03:55:00,61.7,59.7,30.18,WSW,256,0.0,0.0,93,0.00,,---,0.00,VWS V14.01,2013-05-15 08:55:00,
2013-05-15 03:56:00,61.7,60.0,30.18,WSW,255,0.0,0.0,94,0.00,,---,0.00,VWS V14.01,2013-05-15 08:56:00,
2013-05-15 03:57:00,61.6,59.9,30.18,WSW,255,0.0,0.0,94,0.00,,---,0.00,VWS V14.01,2013-05-15 08:57:00,
2013-05-15 03:58:00,61.6,59.9,30.18,WSW,255,0.0,0.0,94,0.00,,---,0.00,VWS V14.01,2013-05-15 08:58:00,
2013-05-15 03:59:00,61.6,59.9,30.18,WSW,256,0.0,0.0,94,0.00,,---,0.00,VWS V14.01,2013-05-15 08:59:00,
2013-05-15 04:00:00,61.6,59.9,30.18,WSW,256,0.0,0.0,94,0.00,,---,0.00,VWS V14.01,2013-05-15 09:00:00,
2013-05-15 04:01:00,61.6,59.9,30.18,WSW,257,0.0,0.0,94,0.00,,---,0.00,VWS V14.01,2013-05-15 09:01:00,
2013-05-15 04:02:00,61.6,59.9,30.18,WSW,256,0.0,0.0,94,0.00,,---,0.00,VWS V14.01,2013-05-15 09:02:00,
2013-05-15 04:03:00,61.6,59.9,30.18,WSW,256,0.0,0.0,94,0.00,,---,0.00,VWS V14.01,2013-05-15 09:03:00,
2013-05-15 04:04:00,61.6,59.9,30.18,WSW,256,0.0,0.0,94,0.00,,---,0.00,VWS V14.01,2013-05-15 09:04:00,
2013-05-15 04:05:00,61.6,60.2,30.18,WSW,256,0.0,0.0,95,0.00,,---,0.00,VWS V14.01,2013-05-15 09:05:00,
2013-05-15 04:06:00,61.6,60.2,30.18,WSW,256,0.0,0.0,95,0.00,,---,0.00,VWS V14.01,2013-05-15 09:06:00,
2013-05-15 04:07:00,61.6,60.2,30.18,WSW,255,0.0,0.0,95,0.00,,---,0.00,VWS V14.01,2013-05-15 09:07:00,
2013-05-15 04:08:00,61.6,60.2,30.18,WSW,255,0.0,0.0,95,0.00,,---,0.00,VWS V14.01,2013-05-15 09:08:00,
2013-05-15 04:09:00,61.6,60.2,30.18,WSW,256,0.0,0.0,95,0.00,,---,0.00,VWS V14.01,2013-05-15 09:09:00,
2013-05-15 04:10:00,61.6,60.2,30.18,WSW,256,0.0,0.0,95,0.00,,---,0.00,VWS V14.01,2013-05-15 09:10:00,
2013-05-15 04:11:00,61.6,60.2,30.18,WSW,256,0.0,0.0,95,0.00,,---,0.00,VWS V14.01,2013-05-15 09:11:00,
2013-05-15 04:12:00,61.7,60.3,30.18,WSW,256,0.0,0.0,95,0.00,,---,0.00,VWS V14.01,2013-05-15 09:12:00,
2013-05-15 04:13:00,61.7,60.3,30.18,WSW,256,0.0,0.0,95,0.00,,---,0.00,VWS V14.01,2013-05-15 09:13:00,
2013-05-15 04:14:00,61.7,60.3,30.18,WSW,256,0.0,0.0,95,0.00,,---,0.00,VWS V14.01,2013-05-15 09:14:00,
2013-05-15 04:15:00,61.7,60.3,30.18,WSW,256,0.0,0.0,95,0.00,,---,0.00,VWS V14.01,2013-05-15 09:15:00,
2013-05-15 04:16:00,61.7,60.3,30.18,WSW,256,0.0,0.0,95,0.00,,---,0.00,VWS V14.01,2013-05-15 09:16:00,
2013-05-15 04:17:00,61.7,60.3,30.19,WSW,257,0.0,0.0,95,0.00,,---,0.00,VWS V14.01,2013-05-15 09:17:00,
2013-05-15 04:18:00,61.7,60.3,30.19,WSW,257,0.0,0.0,95,0.00,,---,0.00,VWS V14.01,2013-05-15 09:18:00,
2013-05-15 04:19:00,61.7,60.3,30.19,WSW,256,0.0,0.0,95,0.00,,---,0.00,VWS V14.01,2013-05-15 09:19:00,
2013-05-15 04:20:00,61.7,60.3,30.19,WSW,256,0.0,0.0,95,0.00,,---,0.00,VWS V14.01,2013-05-15 09:20:00,
2013-05-15 04:21:00,61.7,60.3,30.19,WSW,256,0.0,0.0,95,0.00,,---,0.00,VWS V14.01,2013-05-15 09:21:00,
2013-05-15 04:22:00,61.6,60.2,30.19,WSW,256,0.0,0.0,95,0.00,,---,0.00,VWS V14.01,2013-05-15 09:22:00,
2013-05-15 04:23:00,61.6,60.2,30.19,WSW,256,0.0,0.0,95,0.00,,---,0.00,VWS V14.01,2013-05-15 09:23:00,
2013-05-15 04:24:00,61.6,60.2,30.19,WSW,256,0.0,0.0,95,0.00,,---,0.00,VWS V14.01,2013-05-15 09:24:00,
2013-05-15 04:25:00,61.5,59.8,30.18,WSW,256,0.0,0.0,94,0.00,,---,0.00,VWS V14.01,2013-05-15 09:25:00,
2013-05-15 04:26:00,61.4,59.7,30.19,WSW,255,0.0,0.0,94,0.00,,---,0.00,VWS V14.01,2013-05-15 09:26:00,
2013-05-15 04:27:00,61.3,59.6,30.19,WSW,256,0.0,0.0,94,0.00,,---,0.00,VWS V14.01,2013-05-15 09:27:00,
2013-05-15 04:28:00,61.2,59.5,30.19,WSW,256,0.0,0.0,94,0.00,,---,0.00,VWS V14.01,2013-05-15 09:28:00,
2013-05-15 04:29:00,61.2,59.5,30.19,WSW,256,0.0,0.0,94,0.00,,---,0.00,VWS V14.01,2013-05-15 09:29:00,
2013-05-15 04:30:00,61.2,59.5,30.18,WSW,256,0.0,0.0,94,0.00,,---,0.00,VWS V14.01,2013-05-15 09:30:00,
2013-05-15 04:31:00,61.1,59.4,30.18,WSW,256,0.0,0.0,94,0.00,,---,0.00,VWS V14.01,2013-05-15 09:31:00,
2013-05-15 04:32:00,61.1,59.7,30.18,WSW,257,0.0,0.0,95,0.00,,---,0.00,VWS V14.01,2013-05-15 09:32:00,
2013-05-15 04:33:00,61.1,59.7,30.18,WSW,257,0.0,0.0,95,0.00,,---,0.00,VWS V14.01,2013-05-15 09:33:00,
2013-05-15 04:34:00,61.1,59.7,30.18,WSW,257,0.0,0.0,95,0.00,,---,0.00,VWS V14.01,2013-05-15 09:34:00,
2013-05-15 04:35:00,61.1,59.7,30.18,WSW,256,0.0,0.0,95,0.00,,---,0.00,VWS V14.01,2013-05-15 09:35:00,
2013-05-15 04:36:00,61.1,59.7,30.18,WSW,256,0.0,0.0,95,0.00,,---,0.00,VWS V14.01,2013-05-15 09:36:00,
2013-05-15 04:37:00,61.1,59.7,30.18,WSW,256,0.0,0.0,95,0.00,,---,0.00,VWS V14.01,2013-05-15 09:37:00,
2013-05-15 04:38:00,61.1,59.7,30.18,WSW,256,0.0,0.0,95,0.00,,---,0.00,VWS V14.01,2013-05-15 09:38:00,
2013-05-15 04:39:00,61.1,59.7,30.18,WSW,256,0.0,0.0,95,0.00,,---,0.00,VWS V14.01,2013-05-15 09:39:00,
2013-05-15 04:40:00,61.1,59.7,30.18,WSW,256,0.0,0.0,95,0.00,,---,0.00,VWS V14.01,2013-05-15 09:40:00,
2013-05-15 04:41:00,61.1,59.7,30.18,WSW,256,0.0,0.0,95,0.00,,---,0.00,VWS V14.01,2013-05-15 09:41:00,
2013-05-15 04:42:00,61.0,59.6,30.18,WSW,256,0.0,0.0,95,0.00,,---,0.00,VWS V14.01,2013-05-15 09:42:00,
2013-05-15 04:43:00,61.0,59.6,30.18,WSW,256,0.0,0.0,95,0.00,,---,0.00,VWS V14.01,2013-05-15 09:43:00,
2013-05-15 04:44:00,61.0,59.6,30.18,WSW,256,0.0,0.0,95,0.00,,---,0.00,VWS V14.01,2013-05-15 09:44:00,
2013-05-15 04:45:00,61.0,59.6,30.18,WSW,256,0.0,0.0,95,0.00,,---,0.00,VWS V14.01,2013-05-15 09:45:00,
2013-05-15 04:46:00,61.0,59.6,30.18,WSW,256,0.0,0.0,95,0.00,,---,0.00,VWS V14.01,2013-05-15 09:46:00,
2013-05-15 04:47:00,60.9,59.5,30.18,WSW,256,0.0,0.0,95,0.00,,---,0.00,VWS V14.01,2013-05-15 09:47:00,
2013-05-15 04:48:00,61.0,59.9,30.18,WSW,256,0.0,0.0,96,0.00,,---,0.00,VWS V14.01,2013-05-15 09:48:00,
2013-05-15 04:49:00,61.0,59.8,30.18,WSW,256,0.0,0.0,96,0.00,,---,0.00,VWS V14.01,2013-05-15 09:49:00,
2013-05-15 04:50:00,61.1,60.0,30.19,WSW,256,0.0,0.0,96,0.00,,---,0.00,VWS V14.01,2013-05-15 09:50:00,
2013-05-15 04:51:00,61.1,60.0,30.19,WSW,256,0.0,0.0,96,0.00,,---,0.00,VWS V14.01,2013-05-15 09:51:00,
2013-05-15 04:52:00,61.0,59.8,30.19,WSW,256,0.0,0.0,96,0.00,,---,0.00,VWS V14.01,2013-05-15 09:52:00,
2013-05-15 04:53:00,61.0,59.9,30.19,WSW,256,0.0,0.0,96,0.00,,---,0.00,VWS V14.01,2013-05-15 09:53:00,
2013-05-15 04:54:00,61.0,59.8,30.19,WSW,256,0.0,0.0,96,0.00,,---,0.00,VWS V14.01,2013-05-15 09:54:00,
2013-05-15 04:55:00,60.9,59.8,30.19,WSW,256,0.0,0.0,96,0.00,,---,0.00,VWS V14.01,2013-05-15 09:55:00,
2013-05-15 04:56:00,60.9,59.8,30.19,WSW,256,0.0,0.0,96,0.00,,---,0.00,VWS V14.01,2013-05-15 09:56:00,
2013-05-15 04:57:00,60.9,59.8,30.19,WSW,256,0.0,0.0,96,0.00,,---,0.00,VWS V14.01,2013-05-15 09:57:00,
2013-05-15 04:58:00,60.8,59.7,30.19,WSW,256,0.0,0.0,96,0.00,,---,0.00,VWS V14.01,2013-05-15 09:58:00,
2013-05-15 04:59:00,60.8,59.7,30.19,WSW,256,0.0,0.0,96,0.00,,---,0.00,VWS V14.01,2013-05-15 09:59:00,
2013-05-15 05:00:00,60.7,59.6,30.19,WSW,256,0.0,0.0,96,0.00,,---,0.00,VWS V14.01,2013-05-15 10:00:00,
2013-05-15 05:01:00,60.7,59.6,30.19,WSW,257,0.0,0.0,96,0.00,,---,0.00,VWS V14.01,2013-05-15 10:01:00,
2013-05-15 05:02:00,60.7,59.6,30.19,WSW,256,0.0,0.0,96,0.00,,---,0.00,VWS V14.01,2013-05-15 10:02:00,
2013-05-15 05:03:00,60.6,59.5,30.19,WSW,256,0.0,0.0,96,0.00,,---,0.00,VWS V14.01,2013-05-15 10:03:00,
2013-05-15 05:04:00,60.5,59.1,30.19,WSW,256,0.0,0.0,95,0.00,,---,0.00,VWS V14.01,2013-05-15 10:04:00,
2013-05-15 05:05:00,60.5,59.1,30.19,WSW,256,0.0,0.0,95,0.00,,---,0.00,VWS V14.01,2013-05-15 10:05:00,
2013-05-15 05:06:00,60.5,59.4,30.19,WSW,256,0.0,0.0,96,0.00,,---,0.00,VWS V14.01,2013-05-15 10:06:00,
2013-05-15 05:07:00,60.5,59.4,30.19,WSW,256,0.0,0.0,96,0.00,,---,0.00,VWS V14.01,2013-05-15 10:07:00,
2013-05-15 05:08:00,60.5,59.4,30.19,WSW,256,0.0,0.0,96,0.00,,---,0.00,VWS V14.01,2013-05-15 10:08:00,
2013-05-15 05:09:00,60.5,59.4,30.19,WSW,256,0.0,0.0,96,0.00,,---,0.00,VWS V14.01,2013-05-15 10:09:00,
2013-05-15 05:10:00,60.5,59.4,30.19,WSW,256,0.0,0.0,96,0.00,,---,0.00,VWS V14.01,2013-05-15 10:10:00,
2013-05-15 05:11:00,60.5,59.4,30.19,WSW,256,0.0,0.0,96,0.00,,---,0.00,VWS V14.01,2013-05-15 10:11:00,
2013-05-15 05:12:00,60.5,59.4,30.19,WSW,256,0.0,0.0,96,0.00,,---,0.00,VWS V14.01,2013-05-15 10:12:00,
2013-05-15 05:13:00,60.5,59.4,30.20,WSW,256,0.0,0.0,96,0.00,,---,0.00,VWS V14.01,2013-05-15 10:13:00,
2013-05-15 05:14:00,60.4,59.3,30.20,WSW,256,0.0,0.0,96,0.00,,---,0.00,VWS V14.01,2013-05-15 10:14:00,
2013-05-15 05:15:00,60.4,59.3,30.20,WSW,256,0.0,0.0,96,0.00,,---,0.00,VWS V14.01,2013-05-15 10:15:00,
2013-05-15 05:16:00,60.4,59.3,30.20,WSW,256,0.0,0.0,96,0.00,,---,0.00,VWS V14.01,2013-05-15 10:16:00,
2013-05-15 05:17:00,60.3,59.2,30.20,WSW,256,0.0,0.0,96,0.00,,---,0.00,VWS V14.01,2013-05-15 10:17:00,
2013-05-15 05:18:00,60.3,59.2,30.20,WSW,256,0.0,0.0,96,0.00,,---,0.00,VWS V14.01,2013-05-15 10:18:00,
2013-05-15 05:19:00,60.2,59.1,30.20,WSW,256,0.0,0.0,96,0.00,,---,0.00,VWS V14.01,2013-05-15 10:19:00,
2013-05-15 05:20:00,60.1,59.0,30.20,WSW,256,0.0,0.0,96,0.00,,---,0.00,VWS V14.01,2013-05-15 10:20:00,
2013-05-15 05:21:00,60.1,59.0,30.20,WSW,256,0.0,0.0,96,0.00,,---,0.00,VWS V14.01,2013-05-15 10:21:00,
2013-05-15 05:22:00,60.1,59.0,30.20,WSW,256,0.0,0.0,96,0.00,,---,0.00,VWS V14.01,2013-05-15 10:22:00,
2013-05-15 05:23:00,60.0,58.9,30.20,WSW,256,0.0,0.0,96,0.00,,---,0.00,VWS V14.01,2013-05-15 10:23:00,
2013-05-15 05:24:00,60.0,58.9,30.20,WSW,255,0.0,0.0,96,0.00,,---,0.00,VWS V14.01,2013-05-15 10:24:00,
2013-05-15 05:25:00,60.0,58.9,30.20,WSW,255,0.0,0.0,96,0.00,,---,0.00,VWS V14.01,2013-05-15 10:25:00,
2013-05-15 05:26:00,60.1,59.0,30.20,WSW,256,0.0,0.0,96,0.00,,---,0.00,VWS V14.01,2013-05-15 10:26:00,
2013-05-15 05:27:00,60.1,59.0,30.20,WSW,256,0.0,0.0,96,0.00,,---,0.00,VWS V14.01,2013-05-15 10:27:00,
2013-05-15 05:28:00,60.0,58.9,30.20,WSW,256,0.0,0.0,96,0.00,,---,0.00,VWS V14.01,2013-05-15 10:28:00,
2013-05-15 05:29:00,60.0,58.9,30.20,WSW,256,0.0,0.0,96,0.00,,---,0.00,VWS V14.01,2013-05-15 10:29:00,
2013-05-15 05:30:00,60.0,58.9,30.20,WSW,256,0.0,0.0,96,0.00,,---,0.00,VWS V14.01,2013-05-15 10:30:00,
2013-05-15 05:31:00,59.9,58.8,30.20,WSW,256,0.0,0.0,96,0.00,,---,0.00,VWS V14.01,2013-05-15 10:31:00,
2013-05-15 05:32:00,59.9,58.8,30.20,WSW,256,0.0,0.0,96,0.00,,---,0.00,VWS V14.01,2013-05-15 10:32:00,
2013-05-15 05:33:00,59.9,58.8,30.20,WSW,256,0.0,0.0,96,0.00,,---,0.00,VWS V14.01,2013-05-15 10:33:00,
2013-05-15 05:34:00,59.8,58.7,30.20,WSW,256,0.0,0.0,96,0.00,,---,0.00,VWS V14.01,2013-05-15 10:34:00,
2013-05-15 05:35:00,59.8,58.7,30.20,WSW,256,0.0,0.0,96,0.00,,---,0.00,VWS V14.01,2013-05-15 10:35:00,
2013-05-15 05:36:00,59.9,58.8,30.20,WSW,256,0.0,0.0,96,0.00,,---,0.00,VWS V14.01,2013-05-15 10:36:00,
2013-05-15 05:37:00,59.9,58.8,30.20,WSW,256,0.0,0.0,96,0.00,,---,0.00,VWS V14.01,2013-05-15 10:37:00,
2013-05-15 05:38:00,59.9,58.8,30.21,WSW,256,0.0,0.0,96,0.00,,---,0.00,VWS V14.01,2013-05-15 10:38:00,
2013-05-15 05:39:00,59.9,59.0,30.21,WSW,256,0.0,0.0,97,0.00,,---,0.00,VWS V14.01,2013-05-15 10:39:00,
2013-05-15 05:40:00,59.8,59.0,30.21,WSW,256,0.0,0.0,97,0.00,,---,0.00,VWS V14.01,2013-05-15 10:40:00,
2013-05-15 05:41:00,59.8,58.7,30.20,WSW,256,0.0,0.0,96,0.00,,---,0.00,VWS V14.01,2013-05-15 10:41:00,
2013-05-15 05:42:00,59.8,58.7,30.20,WSW,256,0.0,0.0,96,0.00,,---,0.00,VWS V14.01,2013-05-15 10:42:00,
2013-05-15 05:43:00,59.8,58.7,30.20,WSW,256,0.0,0.0,96,0.00,,---,0.00,VWS V14.01,2013-05-15 10:43:00,
2013-05-15 05:44:00,59.7,58.6,30.20,WSW,256,0.0,0.0,96,0.00,,---,0.00,VWS V14.01,2013-05-15 10:44:00,
2013-05-15 05:45:00,59.7,58.6,30.20,WSW,256,0.0,0.0,96,0.00,,---,0.00,VWS V14.01,2013-05-15 10:45:00,
2013-05-15 05:46:00,59.6,58.5,30.21,WSW,257,0.0,0.0,96,0.00,,---,0.00,VWS V14.01,2013-05-15 10:46:00,
2013-05-15 05:47:00,59.6,58.5,30.21,WSW,257,0.0,0.0,96,0.00,,---,0.00,VWS V14.01,2013-05-15 10:47:00,
2013-05-15 05:48:00,59.6,58.5,30.21,WSW,256,0.0,0.0,96,0.00,,---,0.00,VWS V14.01,2013-05-15 10:48:00,
2013-05-15 05:49:00,59.6,58.5,30.21,WSW,256,0.0,0.0,96,0.00,,---,0.00,VWS V14.01,2013-05-15 10:49:00,
2013-05-15 05:50:00,59.5,58.4,30.21,WSW,255,0.0,0.0,96,0.00,,---,0.00,VWS V14.01,2013-05-15 10:50:00,
2013-05-15 05:51:00,59.5,58.4,30.21,WSW,256,0.0,0.0,96,0.00,,---,0.00,VWS V14.01,2013-05-15 10:51:00,
2013-05-15 05:52:00,59.5,58.4,30.21,WSW,256,0.0,0.0,96,0.00,,---,0.00,VWS V14.01,2013-05-15 10:52:00,
2013-05-15 05:53:00,59.4,58.3,30.21,WSW,256,0.0,0.0,96,0.00,,---,0.00,VWS V14.01,2013-05-15 10:53:00,
2013-05-15 05:54:00,59.3,58.2,30.21,WSW,256,0.0,0.0,96,0.00,,---,0.00,VWS V14.01,2013-05-15 10:54:00,
2013-05-15 05:55:00,59.3,58.2,30.21,WSW,255,0.0,0.0,96,0.00,,---,0.00,VWS V14.01,2013-05-15 10:55:00,
2013-05-15 05:56:00,59.3,58.2,30.21,WSW,257,0.0,0.0,96,0.00,,---,0.00,VWS V14.01,2013-05-15 10:56:00,
2013-05-15 05:57:00,59.3,58.2,30.21,WSW,257,0.0,0.0,96,0.00,,---,0.00,VWS V14.01,2013-05-15 10:57:00,
2013-05-15 05:58:00,59.3,58.2,30.21,WSW,256,0.0,0.0,96,0.00,,---,0.00,VWS V14.01,2013-05-15 10:58:00,
2013-05-15 05:59:00,59.3,58.2,30.21,WSW,256,0.0,0.0,96,0.00,,---,0.00,VWS V14.01,2013-05-15 10:59:00,
2013-05-15 06:00:00,59.3,58.5,30.21,WSW,256,0.0,0.0,97,0.00,,---,0.00,VWS V14.01,2013-05-15 11:00:00,
2013-05-15 06:01:00,59.3,58.5,30.20,WSW,256,0.0,0.0,97,0.00,,---,0.00,VWS V14.01,2013-05-15 11:01:00,
2013-05-15 06:02:00,59.3,58.5,30.21,WSW,256,0.0,0.0,97,0.00,,---,0.00,VWS V14.01,2013-05-15 11:02:00,
2013-05-15 06:03:00,59.3,58.5,30.21,WSW,256,0.0,0.0,97,0.00,,---,0.00,VWS V14.01,2013-05-15 11:03:00,
2013-05-15 06:04:00,59.3,58.5,30.20,WSW,256,0.0,0.0,97,0.00,,---,0.00,VWS V14.01,2013-05-15 11:04:00,
2013-05-15 06:05:00,59.4,58.5,30.21,WSW,255,0.0,0.0,97,0.00,,---,0.00,VWS V14.01,2013-05-15 11:05:00,
2013-05-15 06:06:00,59.4,58.5,30.21,WSW,256,0.0,0.0,97,0.00,,---,0.00,VWS V14.01,2013-05-15 11:06:00,
2013-05-15 06:07:00,59.4,58.5,30.21,WSW,256,0.0,0.0,97,0.00,,---,0.00,VWS V14.01,2013-05-15 11:07:00,
2013-05-15 06:08:00,59.4,58.5,30.21,WSW,256,0.0,0.0,97,0.00,,---,0.00,VWS V14.01,2013-05-15 11:08:00,
2013-05-15 06:09:00,59.4,58.5,30.21,WSW,256,0.0,0.0,97,0.00,,---,0.00,VWS V14.01,2013-05-15 11:09:00,
2013-05-15 06:10:00,59.3,58.5,30.21,WSW,255,0.0,0.0,97,0.00,,---,0.00,VWS V14.01,2013-05-15 11:10:00,
2013-05-15 06:11:00,59.3,58.5,30.21,WSW,256,0.0,0.0,97,0.00,,---,0.00,VWS V14.01,2013-05-15 11:11:00,
2013-05-15 06:12:00,59.3,58.5,30.21,WSW,255,0.0,0.0,97,0.00,,---,0.00,VWS V14.01,2013-05-15 11:12:00,
2013-05-15 06:13:00,59.2,58.3,30.21,WSW,256,0.0,0.0,97,0.00,,---,0.00,VWS V14.01,2013-05-15 11:13:00,
2013-05-15 06:14:00,59.2,58.3,30.21,WSW,256,0.0,0.0,97,0.00,,---,0.00,VWS V14.01,2013-05-15 11:14:00,
2013-05-15 06:15:00,59.2,58.3,30.21,WSW,256,0.0,0.0,97,0.00,,---,0.00,VWS V14.01,2013-05-15 11:15:00,
2013-05-15 06:16:00,59.2,58.3,30.21,WSW,256,0.0,0.0,97,0.00,,---,0.00,VWS V14.01,2013-05-15 11:16:00,
2013-05-15 06:17:00,59.2,58.3,30.21,WSW,256,0.0,0.0,97,0.00,,---,0.00,VWS V14.01,2013-05-15 11:17:00,
2013-05-15 06:18:00,59.2,58.3,30.21,WSW,256,0.0,0.0,97,0.00,,---,0.00,VWS V14.01,2013-05-15 11:18:00,
2013-05-15 06:19:00,59.3,58.5,30.21,WSW,256,0.0,0.0,97,0.00,,---,0.00,VWS V14.01,2013-05-15 11:19:00,
2013-05-15 06:20:00,59.3,58.5,30.21,WSW,256,0.0,0.0,97,0.00,,---,0.00,VWS V14.01,2013-05-15 11:20:00,
2013-05-15 06:21:00,59.3,58.5,30.21,WSW,256,0.0,0.0,97,0.00,,---,0.00,VWS V14.01,2013-05-15 11:21:00,
2013-05-15 06:22:00,59.3,58.5,30.21,WSW,256,0.0,0.0,97,0.00,,---,0.00,VWS V14.01,2013-05-15 11:22:00,
2013-05-15 06:23:00,59.3,58.5,30.21,WSW,257,0.0,0.0,97,0.00,,---,0.00,VWS V14.01,2013-05-15 11:23:00,
2013-05-15 06:24:00,59.2,58.3,30.21,WSW,256,0.0,0.0,97,0.00,,---,0.00,VWS V14.01,2013-05-15 11:24:00,
2013-05-15 06:25:00,59.2,58.3,30.21,WSW,256,0.0,0.0,97,0.00,,---,0.00,VWS V14.01,2013-05-15 11:25:00,
2013-05-15 06:26:00,59.2,58.3,30.21,WSW,256,0.0,0.0,97,0.00,,---,0.00,VWS V14.01,2013-05-15 11:26:00,
2013-05-15 06:27:00,59.2,58.3,30.21,WSW,256,0.0,0.0,97,0.00,,---,0.00,VWS V14.01,2013-05-15 11:27:00,
2013-05-15 06:28:00,59.2,58.3,30.21,WSW,256,0.0,0.0,97,0.00,,---,0.00,VWS V14.01,2013-05-15 11:28:00,
2013-05-15 06:29:00,59.2,58.3,30.21,WSW,256,0.0,0.0,97,0.00,,---,0.00,VWS V14.01,2013-05-15 11:29:00,
2013-05-15 06:30:00,59.3,58.5,30.21,WSW,256,0.0,0.0,97,0.00,,---,0.00,VWS V14.01,2013-05-15 11:30:00,
2013-05-15 06:31:00,59.3,58.5,30.21,WSW,256,0.0,0.0,97,0.00,,---,0.00,VWS V14.01,2013-05-15 11:31:00,
2013-05-15 06:32:00,59.3,58.5,30.21,WSW,256,0.0,0.0,97,0.00,,---,0.00,VWS V14.01,2013-05-15 11:32:00,
2013-05-15 06:33:00,59.3,58.5,30.21,WSW,256,0.0,0.0,97,0.00,,---,0.00,VWS V14.01,2013-05-15 11:33:00,
2013-05-15 06:34:00,59.3,58.5,30.21,WSW,256,0.0,0.0,97,0.00,,---,0.00,VWS V14.01,2013-05-15 11:34:00,
2013-05-15 06:35:00,59.3,58.5,30.21,WSW,256,0.0,0.0,97,0.00,,---,0.00,VWS V14.01,2013-05-15 11:35:00,
2013-05-15 06:36:00,59.3,58.5,30.21,WSW,256,0.0,0.0,97,0.00,,---,0.00,VWS V14.01,2013-05-15 11:36:00,
2013-05-15 06:37:00,59.3,58.5,30.21,WSW,256,0.0,0.0,97,0.00,,---,0.00,VWS V14.01,2013-05-15 11:37:00,
2013-05-15 06:38:00,59.4,58.5,30.21,WSW,256,0.0,0.0,97,0.00,,---,0.00,VWS V14.01,2013-05-15 11:38:00,
2013-05-15 06:39:00,59.4,58.5,30.21,WSW,257,0.0,0.0,97,0.00,,---,0.00,VWS V14.01,2013-05-15 11:39:00,
2013-05-15 06:40:00,59.5,58.7,30.21,WSW,256,0.0,0.0,97,0.00,,---,0.00,VWS V14.01,2013-05-15 11:40:00,
2013-05-15 06:41:00,59.5,58.7,30.21,WSW,256,0.0,0.0,97,0.00,,---,0.00,VWS V14.01,2013-05-15 11:41:00,
2013-05-15 06:42:00,59.7,59.1,30.21,WSW,256,0.0,0.0,98,0.00,,---,0.00,VWS V14.01,2013-05-15 11:42:00,
2013-05-15 06:43:00,59.7,59.1,30.21,WSW,256,0.0,0.0,98,0.00,,---,0.00,VWS V14.01,2013-05-15 11:43:00,
2013-05-15 06:44:00,59.8,59.2,30.21,WSW,256,0.0,0.0,98,0.00,,---,0.00,VWS V14.01,2013-05-15 11:44:00,
2013-05-15 06:45:00,59.9,59.3,30.21,WSW,256,0.0,0.0,98,0.00,,---,0.00,VWS V14.01,2013-05-15 11:45:00,
2013-05-15 06:46:00,59.9,59.3,30.21,WSW,256,0.0,0.0,98,0.00,,---,0.00,VWS V14.01,2013-05-15 11:46:00,
2013-05-15 06:47:00,59.9,59.3,30.21,WSW,256,0.0,0.0,98,0.00,,---,0.00,VWS V14.01,2013-05-15 11:47:00,
2013-05-15 06:48:00,60.0,59.4,30.21,WSW,256,0.0,0.0,98,0.00,,---,0.00,VWS V14.01,2013-05-15 11:48:00,
2013-05-15 06:49:00,60.0,59.4,30.21,WSW,256,0.0,0.0,98,0.00,,---,0.00,VWS V14.01,2013-05-15 11:49:00,
2013-05-15 06:50:00,60.1,59.5,30.21,WSW,256,0.0,0.0,98,0.00,,---,0.00,VWS V14.01,2013-05-15 11:50:00,
2013-05-15 06:51:00,60.2,59.6,30.21,WSW,256,0.0,0.0,98,0.00,,---,0.00,VWS V14.01,2013-05-15 11:51:00,
2013-05-15 06:52:00,60.3,59.7,30.21,WSW,256,0.0,0.0,98,0.00,,---,0.00,VWS V14.01,2013-05-15 11:52:00,
2013-05-15 06:53:00,60.3,59.7,30.21,WSW,256,0.0,0.0,98,0.00,,---,0.00,VWS V14.01,2013-05-15 11:53:00,
2013-05-15 06:54:00,60.3,59.7,30.21,WSW,256,0.0,0.0,98,0.00,,---,0.00,VWS V14.01,2013-05-15 11:54:00,
2013-05-15 06:55:00,60.4,59.8,30.20,WSW,256,0.0,0.0,98,0.00,,---,0.00,VWS V14.01,2013-05-15 11:55:00,
2013-05-15 06:56:00,60.5,59.9,30.20,WSW,256,0.0,0.0,98,0.00,,---,0.00,VWS V14.01,2013-05-15 11:56:00,
2013-05-15 06:57:00,60.6,60.0,30.21,WSW,256,0.0,0.0,98,0.00,,---,0.00,VWS V14.01,2013-05-15 11:57:00,
2013-05-15 06:58:00,60.7,60.1,30.21,WSW,255,0.0,0.0,98,0.00,,---,0.00,VWS V14.01,2013-05-15 11:58:00,
2013-05-15 06:59:00,60.7,60.1,30.21,WSW,255,0.0,0.0,98,0.00,,---,0.00,VWS V14.01,2013-05-15 11:59:00,
2013-05-15 07:00:00,60.8,60.2,30.21,WSW,256,0.0,0.0,98,0.00,,---,0.00,VWS V14.01,2013-05-15 12:00:00,
2013-05-15 07:01:00,60.8,60.2,30.21,WSW,256,0.0,0.0,98,0.00,,---,0.00,VWS V14.01,2013-05-15 12:01:00,
2013-05-15 07:02:00,60.9,60.3,30.21,WSW,256,0.0,0.0,98,0.00,,---,0.00,VWS V14.01,2013-05-15 12:02:00,
2013-05-15 07:03:00,60.9,60.3,30.21,WSW,256,0.0,0.0,98,0.00,,---,0.00,VWS V14.01,2013-05-15 12:03:00,
2013-05-15 07:04:00,61.0,60.4,30.21,WSW,256,0.0,0.0,98,0.00,,---,0.00,VWS V14.01,2013-05-15 12:04:00,
2013-05-15 07:05:00,61.0,60.4,30.21,WSW,256,0.0,0.0,98,0.00,,---,0.00,VWS V14.01,2013-05-15 12:05:00,
2013-05-15 07:06:00,61.0,60.4,30.21,WSW,256,0.0,0.0,98,0.00,,---,0.00,VWS V14.01,2013-05-15 12:06:00,
2013-05-15 07:07:00,61.1,60.5,30.21,WSW,256,0.0,0.0,98,0.00,,---,0.00,VWS V14.01,2013-05-15 12:07:00,
2013-05-15 07:08:00,61.1,60.5,30.21,WSW,256,0.0,0.0,98,0.00,,---,0.00,VWS V14.01,2013-05-15 12:08:00,
2013-05-15 07:09:00,61.2,60.6,30.21,WSW,255,0.0,0.0,98,0.00,,---,0.00,VWS V14.01,2013-05-15 12:09:00,
2013-05-15 07:10:00,61.2,60.6,30.21,WSW,255,0.0,0.0,98,0.00,,---,0.00,VWS V14.01,2013-05-15 12:10:00,
2013-05-15 07:11:00,61.3,60.7,30.21,WSW,256,0.0,0.0,98,0.00,,---,0.00,VWS V14.01,2013-05-15 12:11:00,
2013-05-15 07:12:00,61.4,60.8,30.21,WSW,256,0.0,0.0,98,0.00,,---,0.00,VWS V14.01,2013-05-15 12:12:00,
2013-05-15 07:13:00,61.4,60.8,30.21,WSW,256,0.0,0.0,98,0.00,,---,0.00,VWS V14.01,2013-05-15 12:13:00,
2013-05-15 07:14:00,61.5,60.9,30.21,WSW,256,0.0,0.0,98,0.00,,---,0.00,VWS V14.01,2013-05-15 12:14:00,
2013-05-15 07:15:00,61.7,61.1,30.21,WSW,256,0.0,0.0,98,0.00,,---,0.00,VWS V14.01,2013-05-15 12:15:00,
2013-05-15 07:16:00,61.7,61.1,30.21,WSW,256,0.0,0.0,98,0.00,,---,0.00,VWS V14.01,2013-05-15 12:16:00,
2013-05-15 07:17:00,61.8,61.2,30.21,WSW,256,0.0,0.0,98,0.00,,---,0.00,VWS V14.01,2013-05-15 12:17:00,
2013-05-15 07:18:00,62.0,61.4,30.21,WSW,256,0.0,0.0,98,0.00,,---,0.00,VWS V14.01,2013-05-15 12:18:00,
2013-05-15 07:19:00,62.2,61.6,30.21,WSW,256,0.0,0.0,98,0.00,,---,0.00,VWS V14.01,2013-05-15 12:19:00,
2013-05-15 07:20:00,62.3,61.7,30.21,WSW,256,0.0,0.0,98,0.00,,---,0.00,VWS V14.01,2013-05-15 12:20:00,
2013-05-15 07:21:00,62.5,61.9,30.21,West,260,0.0,0.0,98,0.00,,---,0.00,VWS V14.01,2013-05-15 12:21:00,
2013-05-15 07:22:00,62.7,62.1,30.21,West,260,0.0,0.0,98,0.00,,---,0.00,VWS V14.01,2013-05-15 12:22:00,
2013-05-15 07:23:00,62.7,62.1,30.21,West,260,0.0,0.0,98,0.00,,---,0.00,VWS V14.01,2013-05-15 12:23:00,
2013-05-15 07:24:00,62.8,62.2,30.21,West,260,0.0,0.0,98,0.00,,---,0.00,VWS V14.01,2013-05-15 12:24:00,
2013-05-15 07:25:00,62.9,62.3,30.21,West,259,0.0,0.0,98,0.00,,---,0.00,VWS V14.01,2013-05-15 12:25:00,
2013-05-15 07:26:00,63.0,62.4,30.21,West,259,0.0,0.0,98,0.00,,---,0.00,VWS V14.01,2013-05-15 12:26:00,
2013-05-15 07:27:00,63.1,62.5,30.21,West,259,0.0,0.0,98,0.00,,---,0.00,VWS V14.01,2013-05-15 12:27:00,
2013-05-15 07:28:00,63.2,62.6,30.21,West,259,0.0,0.0,98,0.00,,---,0.00,VWS V14.01,2013-05-15 12:28:00,
2013-05-15 07:29:00,63.2,62.6,30.21,West,259,0.0,0.0,98,0.00,,---,0.00,VWS V14.01,2013-05-15 12:29:00,
2013-05-15 07:30:00,63.3,62.7,30.21,WSW,249,0.0,0.0,98,0.00,,---,0.00,VWS V14.01,2013-05-15 12:30:00,
2013-05-15 07:31:00,63.4,62.8,30.21,WSW,249,0.0,0.0,98,0.00,,---,0.00,VWS V14.01,2013-05-15 12:31:00,
2013-05-15 07:32:00,63.5,62.9,30.21,WSW,246,0.0,0.0,98,0.00,,---,0.00,VWS V14.01,2013-05-15 12:32:00,
2013-05-15 07:33:00,63.7,63.1,30.21,WSW,246,0.0,0.0,98,0.00,,---,0.00,VWS V14.01,2013-05-15 12:33:00,
2013-05-15 07:34:00,63.7,63.1,30.21,WSW,246,0.0,0.0,98,0.00,,---,0.00,VWS V14.01,2013-05-15 12:34:00,
2013-05-15 07:35:00,63.8,63.2,30.21,West,264,0.0,1.0,98,0.00,,---,0.00,VWS V14.01,2013-05-15 12:35:00,
2013-05-15 07:36:00,63.9,63.3,30.22,West,264,0.0,0.0,98,0.00,,---,0.00,VWS V14.01,2013-05-15 12:36:00,
2013-05-15 07:37:00,64.0,63.4,30.22,West,264,0.0,0.0,98,0.00,,---,0.00,VWS V14.01,2013-05-15 12:37:00,
2013-05-15 07:38:00,64.3,63.7,30.22,WSW,238,1.0,1.0,98,0.00,,---,0.00,VWS V14.01,2013-05-15 12:38:00,
2013-05-15 07:39:00,64.3,63.7,30.22,WSW,238,1.0,1.0,98,0.00,,---,0.00,VWS V14.01,2013-05-15 12:39:00,
2013-05-15 07:40:00,64.4,63.8,30.22,WSW,238,0.0,1.0,98,0.00,,---,0.00,VWS V14.01,2013-05-15 12:40:00,
2013-05-15 07:41:00,64.5,63.6,30.22,NE,38,0.0,1.0,97,0.00,,---,0.00,VWS V14.01,2013-05-15 12:41:00,
2013-05-15 07:42:00,64.7,63.8,30.22,NE,38,0.0,0.0,97,0.00,,---,0.00,VWS V14.01,2013-05-15 12:42:00,
2013-05-15 07:43:00,64.9,63.7,30.22,NE,41,0.0,0.0,96,0.00,,---,0.00,VWS V14.01,2013-05-15 12:43:00,
2013-05-15 07:44:00,64.9,63.7,30.22,NE,41,0.0,0.0,96,0.00,,---,0.00,VWS V14.01,2013-05-15 12:44:00,
2013-05-15 07:45:00,65.0,63.8,30.22,SSW,213,2.0,2.0,96,0.00,,---,0.00,VWS V14.01,2013-05-15 12:45:00,
2013-05-15 07:46:00,65.1,63.9,30.22,SW,226,0.0,2.0,96,0.00,,---,0.00,VWS V14.01,2013-05-15 12:46:00,
2013-05-15 07:47:00,65.3,63.8,30.22,SW,226,0.0,0.0,95,0.00,,---,0.00,VWS V14.01,2013-05-15 12:47:00,
2013-05-15 07:48:00,65.5,64.0,30.22,SW,232,1.0,1.0,95,0.00,,---,0.00,VWS V14.01,2013-05-15 12:48:00,
2013-05-15 07:49:00,65.5,64.0,30.22,SW,232,1.0,1.0,95,0.00,,---,0.00,VWS V14.01,2013-05-15 12:49:00,
2013-05-15 07:50:00,65.7,63.9,30.22,SW,232,0.0,1.0,94,0.00,,---,0.00,VWS V14.01,2013-05-15 12:50:00,
2013-05-15 07:51:00,65.9,64.1,30.22,SW,225,3.0,3.0,94,0.00,,---,0.00,VWS V14.01,2013-05-15 12:51:00,
2013-05-15 07:52:00,66.0,63.9,30.22,SW,232,1.0,3.0,93,0.00,,---,0.00,VWS V14.01,2013-05-15 12:52:00,
2013-05-15 07:53:00,66.2,64.1,30.22,SW,232,0.0,1.0,93,0.00,,---,0.00,VWS V14.01,2013-05-15 12:53:00,
2013-05-15 07:54:00,66.5,64.1,30.22,SW,234,0.0,0.0,92,0.00,,---,0.00,VWS V14.01,2013-05-15 12:54:00,
2013-05-15 07:55:00,66.5,64.1,30.22,SW,234,0.0,0.0,92,0.00,,---,0.00,VWS V14.01,2013-05-15 12:55:00,
2013-05-15 07:56:00,66.7,64.3,30.22,SW,235,0.0,0.0,92,0.00,,---,0.00,VWS V14.01,2013-05-15 12:56:00,
2013-05-15 07:57:00,66.7,64.3,30.22,SW,235,0.0,0.0,92,0.00,,---,0.00,VWS V14.01,2013-05-15 12:57:00,
2013-05-15 07:58:00,66.9,64.2,30.22,SW,235,0.0,0.0,91,0.00,,---,0.00,VWS V14.01,2013-05-15 12:58:00,
2013-05-15 07:59:00,67.1,64.4,30.22,WSW,245,1.0,2.0,91,0.00,,---,0.00,VWS V14.01,2013-05-15 12:59:00,
2013-05-15 08:00:00,67.1,64.4,30.22,WSW,245,1.0,2.0,91,0.00,,---,0.00,VWS V14.01,2013-05-15 13:00:00,
2013-05-15 08:01:00,67.2,64.2,30.22,WSW,245,0.0,1.0,90,0.00,,---,0.00,VWS V14.01,2013-05-15 13:01:00,
2013-05-15 08:02:00,67.3,64.3,30.22,NNE,27,0.0,2.0,90,0.00,,---,0.00,VWS V14.01,2013-05-15 13:02:00,
2013-05-15 08:03:00,67.5,64.5,30.22,WSW,256,1.0,2.0,90,0.00,,---,0.00,VWS V14.01,2013-05-15 13:03:00,
2013-05-15 08:04:00,67.6,64.2,30.22,West,265,0.0,1.0,89,0.00,,---,0.00,VWS V14.01,2013-05-15 13:04:00,
2013-05-15 08:05:00,67.8,64.1,30.22,West,264,3.0,4.0,88,0.00,,---,0.00,VWS V14.01,2013-05-15 13:05:00,
2013-05-15 08:06:00,67.8,64.1,30.22,West,264,3.0,4.0,88,0.00,,---,0.00,VWS V14.01,2013-05-15 13:06:00,
2013-05-15 08:07:00,67.9,63.9,30.22,SW,218,2.0,4.0,87,0.00,,---,0.00,VWS V14.01,2013-05-15 13:07:00,
2013-05-15 08:08:00,68.1,64.1,30.22,West,266,1.0,3.0,87,0.00,,---,0.00,VWS V14.01,2013-05-15 13:08:00,
2013-05-15 08:09:00,68.3,64.3,30.22,West,277,0.0,1.0,87,0.00,,---,0.00,VWS V14.01,2013-05-15 13:09:00,
2013-05-15 08:10:00,68.4,64.1,30.22,WSW,240,1.0,2.0,86,0.00,,---,0.00,VWS V14.01,2013-05-15 13:10:00,
2013-05-15 08:11:00,68.4,64.1,30.22,WSW,240,1.0,2.0,86,0.00,,---,0.00,VWS V14.01,2013-05-15 13:11:00,
2013-05-15 08:12:00,68.4,64.1,30.22,WSW,239,0.0,1.0,86,0.00,,---,0.00,VWS V14.01,2013-05-15 13:12:00,
2013-05-15 08:13:00,68.5,64.2,30.22,SW,232,1.0,2.0,86,0.00,,---,0.00,VWS V14.01,2013-05-15 13:13:00,
2013-05-15 08:14:00,68.6,64.2,30.22,SW,232,0.0,1.0,86,0.00,,---,0.00,VWS V14.01,2013-05-15 13:14:00,
2013-05-15 08:15:00,68.8,64.1,30.22,WSW,250,1.0,3.0,85,0.00,,---,0.00,VWS V14.01,2013-05-15 13:15:00,
2013-05-15 08:16:00,68.8,64.1,30.22,WSW,250,1.0,3.0,85,0.00,,---,0.00,VWS V14.01,2013-05-15 13:16:00,
2013-05-15 08:17:00,68.9,64.2,30.22,WSW,238,0.0,2.0,85,0.00,,---,0.00,VWS V14.01,2013-05-15 13:17:00,
2013-05-15 08:18:00,69.0,64.0,30.22,WSW,239,3.0,4.0,84,0.00,,---,0.00,VWS V14.01,2013-05-15 13:18:00,
2013-05-15 08:19:00,69.0,64.0,30.23,WSW,240,3.0,3.0,84,0.00,,---,0.00,VWS V14.01,2013-05-15 13:19:00,
2013-05-15 08:20:00,69.1,63.7,30.23,WSW,248,1.0,6.0,83,0.00,,---,0.00,VWS V14.01,2013-05-15 13:20:00,
2013-05-15 08:21:00,69.3,64.3,30.23,WSW,248,0.0,0.0,84,0.00,,---,0.00,VWS V14.01,2013-05-15 13:21:00,
2013-05-15 08:22:00,69.3,64.3,30.23,WSW,248,0.0,0.0,84,0.00,,---,0.00,VWS V14.01,2013-05-15 13:22:00,
2013-05-15 08:23:00,69.3,64.3,30.23,NE,44,0.0,0.0,84,0.00,,---,0.00,VWS V14.01,2013-05-15 13:23:00,
2013-05-15 08:24:00,69.4,64.4,30.23,WSW,248,0.0,1.0,84,0.00,,---,0.00,VWS V14.01,2013-05-15 13:24:00,
2013-05-15 08:25:00,69.4,64.0,30.23,West,267,0.0,0.0,83,0.00,,---,0.00,VWS V14.01,2013-05-15 13:25:00,
2013-05-15 08:26:00,69.6,64.2,30.23,WSW,238,0.0,1.0,83,0.00,,---,0.00,VWS V14.01,2013-05-15 13:26:00,
2013-05-15 08:27:00,69.6,64.2,30.23,WSW,238,0.0,1.0,83,0.00,,---,0.00,VWS V14.01,2013-05-15 13:27:00,
2013-05-15 08:28:00,69.6,64.2,30.23,West,281,3.0,4.0,83,0.00,,---,0.00,VWS V14.01,2013-05-15 13:28:00,
2013-05-15 08:29:00,69.6,63.9,30.23,WSW,238,0.0,3.0,82,0.00,,---,0.00,VWS V14.01,2013-05-15 13:29:00,
2013-05-15 08:30:00,69.7,64.0,30.22,WSW,244,1.0,2.0,82,0.00,,---,0.00,VWS V14.01,2013-05-15 13:30:00,
2013-05-15 08:31:00,69.8,63.7,30.22,WSW,252,0.0,2.0,81,0.00,,---,0.00,VWS V14.01,2013-05-15 13:31:00,
2013-05-15 08:32:00,69.9,63.8,30.22,WSW,255,0.0,0.0,81,0.00,,---,0.00,VWS V14.01,2013-05-15 13:32:00,
2013-05-15 08:33:00,70.0,63.5,30.22,West,265,0.0,2.0,80,0.00,,---,0.00,VWS V14.01,2013-05-15 13:33:00,
2013-05-15 08:34:00,70.0,63.5,30.22,West,265,0.0,2.0,80,0.00,,---,0.00,VWS V14.01,2013-05-15 13:34:00,
2013-05-15 08:35:00,70.1,63.7,30.22,West,267,0.0,0.0,80,0.00,,---,0.00,VWS V14.01,2013-05-15 13:35:00,
2013-05-15 08:36:00,70.1,64.0,30.22,NNE,30,0.0,0.0,81,0.00,,---,0.00,VWS V14.01,2013-05-15 13:36:00,
2013-05-15 08:37:00,70.2,63.8,30.22,NNE,30,0.0,0.0,80,0.00,,---,0.00,VWS V14.01,2013-05-15 13:37:00,
2013-05-15 08:38:00,70.3,63.8,30.22,WSW,250,4.0,4.0,80,0.00,,---,0.00,VWS V14.01,2013-05-15 13:38:00,
2013-05-15 08:39:00,70.3,63.8,30.22,WSW,250,4.0,4.0,80,0.00,,---,0.00,VWS V14.01,2013-05-15 13:39:00,
2013-05-15 08:40:00,70.4,63.2,30.22,West,269,1.0,5.0,78,0.00,,---,0.00,VWS V14.01,2013-05-15 13:40:00,
2013-05-15 08:41:00,70.5,63.3,30.22,NNW,343,0.0,1.0,78,0.00,,---,0.00,VWS V14.01,2013-05-15 13:41:00,
2013-05-15 08:42:00,70.5,63.7,30.22,WSW,240,0.0,1.0,79,0.00,,---,0.00,VWS V14.01,2013-05-15 13:42:00,
2013-05-15 08:43:00,70.7,63.5,30.22,WSW,238,0.0,2.0,78,0.00,,---,0.00,VWS V14.01,2013-05-15 13:43:00,
2013-05-15 08:44:00,70.7,63.5,30.22,WSW,238,0.0,2.0,78,0.00,,---,0.00,VWS V14.01,2013-05-15 13:44:00,
2013-05-15 08:45:00,70.8,63.6,30.22,South,191,0.0,0.0,78,0.00,,---,0.00,VWS V14.01,2013-05-15 13:45:00,
2013-05-15 08:46:00,70.9,63.3,30.22,SW,229,0.0,0.0,77,0.00,,---,0.00,VWS V14.01,2013-05-15 13:46:00,
2013-05-15 08:47:00,71.0,63.8,30.22,SW,229,0.0,0.0,78,0.00,,---,0.00,VWS V14.01,2013-05-15 13:47:00,
2013-05-15 08:48:00,71.1,63.5,30.22,West,260,3.0,4.0,77,0.00,,---,0.00,VWS V14.01,2013-05-15 13:48:00,
2013-05-15 08:49:00,71.3,63.7,30.22,WSW,242,0.0,1.0,77,0.00,,---,0.00,VWS V14.01,2013-05-15 13:49:00,
2013-05-15 08:50:00,71.3,63.7,30.22,WSW,242,0.0,1.0,77,0.00,,---,0.00,VWS V14.01,2013-05-15 13:50:00,
2013-05-15 08:51:00,71.4,63.8,30.23,NW,307,0.0,1.0,77,0.00,,---,0.00,VWS V14.01,2013-05-15 13:51:00,
2013-05-15 08:52:00,71.5,63.9,30.23,SW,235,2.0,2.0,77,0.00,,---,0.00,VWS V14.01,2013-05-15 13:52:00,
2013-05-15 08:53:00,71.7,64.1,30.23,WNW,300,1.0,2.0,77,0.00,,---,0.00,VWS V14.01,2013-05-15 13:53:00,
2013-05-15 08:54:00,71.9,63.5,30.23,SSW,210,0.0,3.0,75,0.00,,---,0.00,VWS V14.01,2013-05-15 13:54:00,
2013-05-15 08:55:00,71.9,63.5,30.23,SSW,210,0.0,3.0,75,0.00,,---,0.00,VWS V14.01,2013-05-15 13:55:00,
2013-05-15 08:56:00,72.0,64.0,30.23,WSW,240,0.0,1.0,76,0.00,,---,0.00,VWS V14.01,2013-05-15 13:56:00,
2013-05-15 08:57:00,72.1,64.1,30.23,WSW,240,0.0,0.0,76,0.00,,---,0.00,VWS V14.01,2013-05-15 13:57:00,
2013-05-15 08:58:00,72.3,64.7,30.23,WSW,240,0.0,0.0,77,0.00,,---,0.00,VWS V14.01,2013-05-15 13:58:00,
2013-05-15 08:59:00,72.6,64.2,30.22,NNE,30,0.0,1.0,75,0.00,,---,0.00,VWS V14.01,2013-05-15 13:59:00,
2013-05-15 09:00:00,72.6,64.2,30.22,NNE,30,0.0,1.0,75,0.00,,---,0.00,VWS V14.01,2013-05-15 14:00:00,
2013-05-15 09:01:00,72.7,64.3,30.22,NNE,30,0.0,0.0,75,0.00,,---,0.00,VWS V14.01,2013-05-15 14:01:00,
2013-05-15 09:02:00,72.9,64.5,30.23,NW,308,0.0,1.0,75,0.00,,---,0.00,VWS V14.01,2013-05-15 14:02:00,
2013-05-15 09:03:00,73.0,64.6,30.23,WSW,238,0.0,0.0,75,0.00,,---,0.00,VWS V14.01,2013-05-15 14:03:00,
2013-05-15 09:04:00,73.3,64.1,30.23,SW,231,0.0,4.0,73,0.00,,---,0.00,VWS V14.01,2013-05-15 14:04:00,
2013-05-15 09:05:00,73.3,64.1,30.23,SW,231,0.0,4.0,73,0.00,,---,0.00,VWS V14.01,2013-05-15 14:05:00,
2013-05-15 09:06:00,73.4,64.2,30.22,NW,313,0.0,2.0,73,0.00,,---,0.00,VWS V14.01,2013-05-15 14:06:00,
2013-05-15 09:07:00,73.5,63.9,30.23,SW,226,1.0,3.0,72,0.00,,---,0.00,VWS V14.01,2013-05-15 14:07:00,
2013-05-15 09:08:00,73.5,63.9,30.23,SW,231,2.0,2.0,72,0.00,,---,0.00,VWS V14.01,2013-05-15 14:08:00,
2013-05-15 09:09:00,73.6,63.6,30.23,SW,232,0.0,2.0,71,0.00,,---,0.00,VWS V14.01,2013-05-15 14:09:00,
2013-05-15 09:10:00,73.8,64.2,30.23,NW,321,0.0,0.0,72,0.00,,---,0.00,VWS V14.01,2013-05-15 14:10:00,
2013-05-15 09:11:00,73.8,64.2,30.23,NW,321,0.0,0.0,72,0.00,,---,0.00,VWS V14.01,2013-05-15 14:11:00,
2013-05-15 09:12:00,73.9,63.5,30.22,WSW,250,4.0,5.0,70,0.00,,---,0.00,VWS V14.01,2013-05-15 14:12:00,
2013-05-15 09:13:00,74.0,63.6,30.22,WNW,297,0.0,4.0,70,0.00,,---,0.00,VWS V14.01,2013-05-15 14:13:00,
2013-05-15 09:14:00,74.2,63.8,30.22,West,278,0.0,0.0,70,0.00,,---,0.00,VWS V14.01,2013-05-15 14:14:00,
2013-05-15 09:15:00,74.5,64.1,30.22,WSW,238,0.0,1.0,70,0.00,,---,0.00,VWS V14.01,2013-05-15 14:15:00,
2013-05-15 09:16:00,74.5,64.1,30.22,WSW,238,0.0,1.0,70,0.00,,---,0.00,VWS V14.01,2013-05-15 14:16:00,
2013-05-15 09:17:00,74.6,63.8,30.22,SW,235,0.0,0.0,69,0.00,,---,0.00,VWS V14.01,2013-05-15 14:17:00,
2013-05-15 09:18:00,74.7,63.0,30.22,SW,221,4.0,4.0,67,0.00,,---,0.00,VWS V14.01,2013-05-15 14:18:00,
2013-05-15 09:19:00,74.8,63.1,30.22,West,270,0.0,4.0,67,0.00,,---,0.00,VWS V14.01,2013-05-15 14:19:00,
2013-05-15 09:20:00,74.9,63.2,30.22,SW,235,0.0,2.0,67,0.00,,---,0.00,VWS V14.01,2013-05-15 14:20:00,
2013-05-15 09:21:00,74.9,63.2,30.22,SW,235,0.0,2.0,67,0.00,,---,0.00,VWS V14.01,2013-05-15 14:21:00,
2013-05-15 09:22:00,75.0,63.3,30.22,West,262,0.0,0.0,67,0.00,,---,0.00,VWS V14.01,2013-05-15 14:22:00,
2013-05-15 09:23:00,75.2,63.5,30.22,WNW,290,1.0,1.0,67,0.00,,---,0.00,VWS V14.01,2013-05-15 14:23:00,
2013-05-15 09:24:00,75.3,62.7,30.22,SW,215,0.0,2.0,65,0.00,,---,0.00,VWS V14.01,2013-05-15 14:24:00,
2013-05-15 09:25:00,75.5,63.4,30.22,WSW,237,4.0,4.0,66,0.00,,---,0.00,VWS V14.01,2013-05-15 14:25:00,
2013-05-15 09:26:00,75.5,63.4,30.22,WSW,237,4.0,4.0,66,0.00,,---,0.00,VWS V14.01,2013-05-15 14:26:00,
2013-05-15 09:27:00,75.5,61.6,30.22,SW,218,2.0,4.0,62,0.00,,---,0.00,VWS V14.01,2013-05-15 14:27:00,
2013-05-15 09:28:00,75.6,61.7,30.22,WSW,238,0.0,2.0,62,0.00,,---,0.00,VWS V14.01,2013-05-15 14:28:00,
2013-05-15 09:29:00,75.6,61.7,30.22,WSW,245,0.0,2.0,62,0.00,,---,0.00,VWS V14.01,2013-05-15 14:29:00,
2013-05-15 09:30:00,75.8,61.9,30.22,WSW,238,1.0,1.0,62,0.00,,---,0.00,VWS V14.01,2013-05-15 14:30:00,
2013-05-15 09:31:00,75.8,61.9,30.22,WSW,238,1.0,1.0,62,0.00,,---,0.00,VWS V14.01,2013-05-15 14:31:00,
2013-05-15 09:32:00,76.0,62.0,30.22,WSW,238,0.0,1.0,62,0.00,,---,0.00,VWS V14.01,2013-05-15 14:32:00,
2013-05-15 09:33:00,76.1,63.0,30.22,SW,235,0.0,0.0,64,0.00,,---,0.00,VWS V14.01,2013-05-15 14:33:00,
2013-05-15 09:34:00,76.3,63.2,30.22,SW,235,0.0,0.0,64,0.00,,---,0.00,VWS V14.01,2013-05-15 14:34:00,
2013-05-15 09:35:00,76.6,63.5,30.22,SW,236,0.0,0.0,64,0.00,,---,0.00,VWS V14.01,2013-05-15 14:35:00,
2013-05-15 09:36:00,77.0,63.0,30.22,WSW,240,0.0,2.0,62,0.00,,---,0.00,VWS V14.01,2013-05-15 14:36:00,
2013-05-15 09:37:00,77.0,63.0,30.22,WSW,240,0.0,2.0,62,0.00,,---,0.00,VWS V14.01,2013-05-15 14:37:00,
2013-05-15 09:38:00,77.2,63.6,30.22,WSW,256,0.0,0.0,63,0.00,,---,0.00,VWS V14.01,2013-05-15 14:38:00,
2013-05-15 09:39:00,77.3,62.3,30.22,WSW,237,0.0,1.0,60,0.00,,---,0.00,VWS V14.01,2013-05-15 14:39:00,
2013-05-15 09:40:00,77.5,62.5,30.22,WSW,250,0.0,1.0,60,0.00,,---,0.00,VWS V14.01,2013-05-15 14:40:00,
2013-05-15 09:41:00,77.6,62.2,30.22,NNE,23,0.0,2.0,59,0.00,,---,0.00,VWS V14.01,2013-05-15 14:41:00,
2013-05-15 09:42:00,77.7,62.7,30.22,SW,228,0.0,1.0,60,0.00,,---,0.00,VWS V14.01,2013-05-15 14:42:00,
2013-05-15 09:43:00,77.7,62.7,30.22,SW,228,0.0,1.0,60,0.00,,---,0.00,VWS V14.01,2013-05-15 14:43:00,
2013-05-15 09:44:00,77.8,63.8,30.22,NE,35,2.0,2.0,62,0.00,,---,0.00,VWS V14.01,2013-05-15 14:44:00,
2013-05-15 09:45:00,77.9,62.4,30.22,WSW,238,2.0,3.0,59,0.00,,---,0.00,VWS V14.01,2013-05-15 14:45:00,
2013-05-15 09:46:00,77.9,62.0,30.22,WNW,299,0.0,2.0,58,0.00,,---,0.00,VWS V14.01,2013-05-15 14:46:00,
2013-05-15 09:47:00,77.9,60.5,30.22,SW,235,3.0,3.0,55,0.00,,---,0.00,VWS V14.01,2013-05-15 14:47:00,
2013-05-15 09:48:00,77.9,60.5,30.22,SW,235,3.0,3.0,55,0.00,,---,0.00,VWS V14.01,2013-05-15 14:48:00,
2013-05-15 09:49:00,77.9,61.5,30.22,WSW,252,0.0,3.0,57,0.00,,---,0.00,VWS V14.01,2013-05-15 14:49:00,
2013-05-15 09:50:00,77.9,62.0,30.22,WSW,252,1.0,1.0,58,0.00,,---,0.00,VWS V14.01,2013-05-15 14:50:00,
2013-05-15 09:51:00,77.9,61.5,30.22,SW,225,0.0,1.0,57,0.00,,---,0.00,VWS V14.01,2013-05-15 14:51:00,
2013-05-15 09:52:00,78.1,62.6,30.22,NNW,333,2.0,3.0,59,0.00,,---,0.00,VWS V14.01,2013-05-15 14:52:00,
2013-05-15 09:53:00,78.1,62.6,30.22,NNW,333,2.0,3.0,59,0.00,,---,0.00,VWS V14.01,2013-05-15 14:53:00,
2013-05-15 09:54:00,78.2,63.2,30.22,NE,49,2.0,2.0,60,0.00,,---,0.00,VWS V14.01,2013-05-15 14:54:00,
2013-05-15 09:55:00,78.2,63.2,30.22,North,6,0.0,2.0,60,0.00,,---,0.00,VWS V14.01,2013-05-15 14:55:00,
2013-05-15 09:56:00,78.3,63.3,30.22,North,4,0.0,0.0,60,0.00,,---,0.00,VWS V14.01,2013-05-15 14:56:00,
2013-05-15 09:57:00,78.3,63.8,30.22,North,3,0.0,1.0,61,0.00,,---,0.00,VWS V14.01,2013-05-15 14:57:00,
2013-05-15 09:58:00,78.4,63.4,30.22,NE,39,1.0,2.0,60,0.00,,---,0.00,VWS V14.01,2013-05-15 14:58:00,
2013-05-15 09:59:00,78.4,63.4,30.22,NE,39,1.0,2.0,60,0.00,,---,0.00,VWS V14.01,2013-05-15 14:59:00,
2013-05-15 10:00:00,78.4,63.4,30.22,East,85,0.0,1.0,60,0.00,,---,0.00,VWS V14.01,2013-05-15 15:00:00,
2013-05-15 10:01:00,78.3,63.3,30.22,East,87,0.0,1.0,60,0.00,,---,0.00,VWS V14.01,2013-05-15 15:01:00,
2013-05-15 10:02:00,78.3,63.8,30.22,East,84,1.0,1.0,61,0.00,,---,0.00,VWS V14.01,2013-05-15 15:02:00,
2013-05-15 10:03:00,78.5,64.4,30.22,NE,55,0.0,0.0,62,0.00,,---,0.00,VWS V14.01,2013-05-15 15:03:00,
2013-05-15 10:04:00,78.5,64.4,30.22,NE,55,0.0,0.0,62,0.00,,---,0.00,VWS V14.01,2013-05-15 15:04:00,
2013-05-15 10:05:00,78.5,63.0,30.22,ENE,73,0.0,2.0,59,0.00,,---,0.00,VWS V14.01,2013-05-15 15:05:00,
2013-05-15 10:06:00,78.6,63.6,30.22,NE,48,1.0,1.0,60,0.00,,---,0.00,VWS V14.01,2013-05-15 15:06:00,
2013-05-15 10:07:00,78.7,63.2,30.22,NNW,330,1.0,1.0,59,0.00,,---,0.00,VWS V14.01,2013-05-15 15:07:00,
2013-05-15 10:08:00,78.9,62.9,30.22,North,8,0.0,2.0,58,0.00,,---,0.00,VWS V14.01,2013-05-15 15:08:00,
2013-05-15 10:09:00,78.9,62.9,30.22,North,8,0.0,2.0,58,0.00,,---,0.00,VWS V14.01,2013-05-15 15:09:00,
2013-05-15 10:10:00,79.0,62.5,30.22,WSW,246,0.0,1.0,57,0.00,,---,0.00,VWS V14.01,2013-05-15 15:10:00,
2013-05-15 10:11:00,79.1,62.6,30.22,WSW,246,0.0,0.0,57,0.00,,---,0.00,VWS V14.01,2013-05-15 15:11:00,
2013-05-15 10:12:00,79.2,62.7,30.22,WSW,246,0.0,0.0,57,0.00,,---,0.00,VWS V14.01,2013-05-15 15:12:00,
2013-05-15 10:13:00,79.5,63.0,30.22,SSE,153,1.0,2.0,57,0.00,,---,0.00,VWS V14.01,2013-05-15 15:13:00,
2013-05-15 10:14:00,79.5,63.0,30.22,SSE,153,1.0,2.0,57,0.00,,---,0.00,VWS V14.01,2013-05-15 15:14:00,
2013-05-15 10:15:00,79.6,63.0,30.22,SSE,155,0.0,1.0,57,0.00,,---,0.00,VWS V14.01,2013-05-15 15:15:00,
2013-05-15 10:16:00,79.7,63.1,30.22,SW,228,2.0,2.0,57,0.00,,---,0.00,VWS V14.01,2013-05-15 15:16:00,
2013-05-15 10:17:00,79.8,63.2,30.22,West,277,1.0,2.0,57,0.00,,---,0.00,VWS V14.01,2013-05-15 15:17:00,
2013-05-15 10:18:00,79.7,62.1,30.22,NW,323,0.0,0.0,55,0.00,,---,0.00,VWS V14.01,2013-05-15 15:18:00,
2013-05-15 10:19:00,79.7,62.1,30.22,NW,323,0.0,0.0,55,0.00,,---,0.00,VWS V14.01,2013-05-15 15:19:00,
2013-05-15 10:20:00,79.6,62.0,30.22,NW,323,0.0,0.0,55,0.00,,---,0.00,VWS V14.01,2013-05-15 15:20:00,
2013-05-15 10:21:00,79.6,62.0,30.22,NW,323,0.0,0.0,55,0.00,,---,0.00,VWS V14.01,2013-05-15 15:21:00,
2013-05-15 10:22:00,79.6,62.0,30.22,WSW,254,2.0,2.0,55,0.00,,---,0.00,VWS V14.01,2013-05-15 15:22:00,
2013-05-15 10:23:00,79.5,61.4,30.21,WSW,238,2.0,3.0,54,0.00,,---,0.00,VWS V14.01,2013-05-15 15:23:00,
2013-05-15 10:24:00,79.5,61.4,30.21,WSW,238,2.0,3.0,54,0.00,,---,0.00,VWS V14.01,2013-05-15 15:24:00,
2013-05-15 10:25:00,79.3,61.2,30.21,WSW,255,1.0,4.0,54,0.00,,---,0.00,VWS V14.01,2013-05-15 15:25:00,
2013-05-15 10:26:00,79.1,61.0,30.21,North,6,2.0,2.0,54,0.00,,---,0.00,VWS V14.01,2013-05-15 15:26:00,
2013-05-15 10:27:00,79.0,61.5,30.21,East,79,1.0,2.0,55,0.00,,---,0.00,VWS V14.01,2013-05-15 15:27:00,
2013-05-15 10:28:00,79.1,61.6,30.21,NNE,24,1.0,2.0,55,0.00,,---,0.00,VWS V14.01,2013-05-15 15:28:00,
2013-05-15 10:29:00,79.1,61.6,30.21,NNE,24,1.0,2.0,55,0.00,,---,0.00,VWS V14.01,2013-05-15 15:29:00,
2013-05-15 10:30:00,79.1,62.1,30.22,NE,46,0.0,2.0,56,0.00,,---,0.00,VWS V14.01,2013-05-15 15:30:00,
2013-05-15 10:31:00,79.1,61.6,30.22,NE,47,0.0,0.0,55,0.00,,---,0.00,VWS V14.01,2013-05-15 15:31:00,
2013-05-15 10:32:00,79.2,61.1,30.22,SW,219,0.0,2.0,54,0.00,,---,0.00,VWS V14.01,2013-05-15 15:32:00,
2013-05-15 10:33:00,79.4,61.3,30.22,SE,144,2.0,2.0,54,0.00,,---,0.00,VWS V14.01,2013-05-15 15:33:00,
2013-05-15 10:34:00,79.7,59.4,30.22,ESE,120,3.0,3.0,50,0.00,,---,0.00,VWS V14.01,2013-05-15 15:34:00,
2013-05-15 10:35:00,79.7,59.4,30.22,ESE,120,3.0,3.0,50,0.00,,---,0.00,VWS V14.01,2013-05-15 15:35:00,
2013-05-15 10:36:00,79.7,60.0,30.21,SE,125,1.0,3.0,51,0.00,,---,0.00,VWS V14.01,2013-05-15 15:36:00,
2013-05-15 10:37:00,79.7,57.7,30.22,SE,125,2.0,2.0,47,0.00,,---,0.00,VWS V14.01,2013-05-15 15:37:00,
2013-05-15 10:38:00,79.8,59.0,30.21,SE,143,0.0,2.0,49,0.00,,---,0.00,VWS V14.01,2013-05-15 15:38:00,
2013-05-15 10:39:00,80.1,58.1,30.21,SSE,158,0.0,1.0,47,0.00,,---,0.00,VWS V14.01,2013-05-15 15:39:00,
2013-05-15 10:40:00,80.1,58.1,30.21,SSE,158,0.0,1.0,47,0.00,,---,0.00,VWS V14.01,2013-05-15 15:40:00,
2013-05-15 10:41:00,80.2,59.3,30.22,SSE,151,0.0,1.0,49,0.00,,---,0.00,VWS V14.01,2013-05-15 15:41:00,
2013-05-15 10:42:00,80.5,59.6,30.21,SW,233,0.0,1.0,49,0.00,,---,0.00,VWS V14.01,2013-05-15 15:42:00,
2013-05-15 10:43:00,80.7,58.6,30.21,SW,232,0.0,0.0,47,0.00,,---,0.00,VWS V14.01,2013-05-15 15:43:00,
2013-05-15 10:44:00,81.2,59.7,30.21,SW,231,0.0,0.0,48,0.00,,---,0.00,VWS V14.01,2013-05-15 15:44:00,
2013-05-15 10:45:00,81.2,59.7,30.21,SW,231,0.0,0.0,48,0.00,,---,0.00,VWS V14.01,2013-05-15 15:45:00,
2013-05-15 10:46:00,81.5,59.9,30.21,SSW,203,0.0,0.0,48,0.00,,---,0.00,VWS V14.01,2013-05-15 15:46:00,
2013-05-15 10:47:00,81.7,59.5,30.21,SSW,200,0.0,0.0,47,0.00,,---,0.00,VWS V14.01,2013-05-15 15:47:00,
2013-05-15 10:48:00,82.0,60.4,30.21,SSW,200,0.0,0.0,48,0.00,,---,0.00,VWS V14.01,2013-05-15 15:48:00,
2013-05-15 10:49:00,82.6,60.3,30.21,SSW,207,0.0,0.0,47,0.00,,---,0.00,VWS V14.01,2013-05-15 15:49:00,
2013-05-15 10:50:00,82.6,60.3,30.21,SSW,207,0.0,0.0,47,0.00,,---,0.00,VWS V14.01,2013-05-15 15:50:00,
2013-05-15 10:51:00,82.9,59.4,30.21,SSE,159,0.0,0.0,45,0.00,,---,0.00,VWS V14.01,2013-05-15 15:51:00,
2013-05-15 10:52:00,83.1,59.0,30.21,South,183,0.0,1.0,44,0.00,,---,0.00,VWS V14.01,2013-05-15 15:52:00,
2013-05-15 10:53:00,83.3,59.1,30.21,South,181,0.0,0.0,44,0.00,,---,0.00,VWS V14.01,2013-05-15 15:53:00,
2013-05-15 10:54:00,83.5,58.0,30.21,ESE,107,0.0,2.0,42,0.00,,---,0.00,VWS V14.01,2013-05-15 15:54:00,
2013-05-15 10:55:00,83.5,58.0,30.21,ESE,107,0.0,2.0,42,0.00,,---,0.00,VWS V14.01,2013-05-15 15:55:00,
2013-05-15 10:56:00,83.4,58.6,30.21,West,276,1.0,3.0,43,0.00,,---,0.00,VWS V14.01,2013-05-15 15:56:00,
2013-05-15 10:57:00,83.2,60.3,30.21,West,281,0.0,1.0,46,0.00,,---,0.00,VWS V14.01,2013-05-15 15:57:00,
2013-05-15 10:58:00,83.2,59.7,30.21,SSE,148,1.0,1.0,45,0.00,,---,0.00,VWS V14.01,2013-05-15 15:58:00,
2013-05-15 10:59:00,83.1,58.3,30.21,ESE,123,1.0,2.0,43,0.00,,---,0.00,VWS V14.01,2013-05-15 15:59:00,
2013-05-15 11:00:00,83.1,58.3,30.21,ESE,123,1.0,2.0,43,0.00,,---,0.00,VWS V14.01,2013-05-15 16:00:00,
2013-05-15 11:01:00,83.0,56.9,30.21,ESE,113,1.0,1.0,41,0.00,,---,0.00,VWS V14.01,2013-05-15 16:01:00,
2013-05-15 11:02:00,82.8,57.4,30.21,NE,55,1.0,2.0,42,0.00,,---,0.00,VWS V14.01,2013-05-15 16:02:00,
2013-05-15 11:03:00,82.6,58.5,30.21,North,1,1.0,2.0,44,0.00,,---,0.00,VWS V14.01,2013-05-15 16:03:00,
2013-05-15 11:04:00,82.4,59.0,30.21,NNW,347,0.0,1.0,45,0.00,,---,0.00,VWS V14.01,2013-05-15 16:04:00,
2013-05-15 11:05:00,82.4,59.6,30.21,NW,324,1.0,2.0,46,0.00,,---,0.00,VWS V14.01,2013-05-15 16:05:00,
2013-05-15 11:06:00,82.4,59.6,30.21,NW,324,1.0,2.0,46,0.00,,---,0.00,VWS V14.01,2013-05-15 16:06:00,
2013-05-15 11:07:00,82.4,59.0,30.20,NW,325,0.0,1.0,45,0.00,,---,0.00,VWS V14.01,2013-05-15 16:07:00,
2013-05-15 11:08:00,82.4,59.6,30.20,NW,325,0.0,0.0,46,0.00,,---,0.00,VWS V14.01,2013-05-15 16:08:00,
2013-05-15 11:09:00,82.5,59.7,30.20,NW,311,0.0,0.0,46,0.00,,---,0.00,VWS V14.01,2013-05-15 16:09:00,
2013-05-15 11:10:00,82.7,59.2,30.20,NW,310,1.0,2.0,45,0.00,,---,0.00,VWS V14.01,2013-05-15 16:10:00,
2013-05-15 11:11:00,82.7,59.2,30.20,NW,310,1.0,2.0,45,0.00,,---,0.00,VWS V14.01,2013-05-15 16:11:00,
2013-05-15 11:12:00,82.8,59.9,30.20,NW,308,0.0,2.0,46,0.00,,---,0.00,VWS V14.01,2013-05-15 16:12:00,
2013-05-15 11:13:00,82.9,60.0,30.20,NW,308,0.0,0.0,46,0.00,,---,0.00,VWS V14.01,2013-05-15 16:13:00,
2013-05-15 11:14:00,83.1,59.6,30.20,East,98,1.0,2.0,45,0.00,,---,0.00,VWS V14.01,2013-05-15 16:14:00,
2013-05-15 11:15:00,83.1,59.0,30.20,East,84,1.0,1.0,44,0.00,,---,0.00,VWS V14.01,2013-05-15 16:15:00,
2013-05-15 11:16:00,83.1,59.0,30.20,East,84,1.0,1.0,44,0.00,,---,0.00,VWS V14.01,2013-05-15 16:16:00,
2013-05-15 11:17:00,83.0,58.9,30.20,ESE,103,2.0,2.0,44,0.00,,---,0.00,VWS V14.01,2013-05-15 16:17:00,
2013-05-15 11:18:00,82.9,59.4,30.20,East,88,1.0,3.0,45,0.00,,---,0.00,VWS V14.01,2013-05-15 16:18:00,
2013-05-15 11:19:00,82.8,58.7,30.20,East,98,2.0,3.0,44,0.00,,---,0.00,VWS V14.01,2013-05-15 16:19:00,
2013-05-15 11:20:00,82.7,59.2,30.20,North,5,0.0,2.0,45,0.00,,---,0.00,VWS V14.01,2013-05-15 16:20:00,
2013-05-15 11:21:00,82.6,58.5,30.20,ESE,117,2.0,2.0,44,0.00,,---,0.00,VWS V14.01,2013-05-15 16:21:00,
2013-05-15 11:22:00,82.6,58.5,30.20,ESE,117,2.0,2.0,44,0.00,,---,0.00,VWS V14.01,2013-05-15 16:22:00,
2013-05-15 11:23:00,82.6,57.9,30.20,ESE,105,0.0,5.0,43,0.00,,---,0.00,VWS V14.01,2013-05-15 16:23:00,
2013-05-15 11:24:00,82.5,58.4,30.20,ESE,103,0.0,1.0,44,0.00,,---,0.00,VWS V14.01,2013-05-15 16:24:00,
2013-05-15 11:25:00,82.6,58.5,30.20,East,88,0.0,1.0,44,0.00,,---,0.00,VWS V14.01,2013-05-15 16:25:00,
2013-05-15 11:26:00,82.6,57.9,30.20,West,259,1.0,1.0,43,0.00,,---,0.00,VWS V14.01,2013-05-15 16:26:00,
2013-05-15 11:27:00,82.6,57.9,30.20,West,259,1.0,1.0,43,0.00,,---,0.00,VWS V14.01,2013-05-15 16:27:00,
2013-05-15 11:28:00,82.7,58.6,30.20,SSW,201,1.0,1.0,44,0.00,,---,0.00,VWS V14.01,2013-05-15 16:28:00,
2013-05-15 11:29:00,82.7,58.0,30.20,West,281,2.0,2.0,43,0.00,,---,0.00,VWS V14.01,2013-05-15 16:29:00,
2013-05-15 11:30:00,82.5,57.8,30.20,West,277,0.0,3.0,43,0.00,,---,0.00,VWS V14.01,2013-05-15 16:30:00,
2013-05-15 11:31:00,82.7,59.8,30.20,SE,134,1.0,1.0,46,0.00,,---,0.00,VWS V14.01,2013-05-15 16:31:00,
2013-05-15 11:32:00,82.7,59.8,30.20,SE,134,1.0,1.0,46,0.00,,---,0.00,VWS V14.01,2013-05-15 16:32:00,
2013-05-15 11:33:00,82.9,60.0,30.20,SE,132,0.0,1.0,46,0.00,,---,0.00,VWS V14.01,2013-05-15 16:33:00,
2013-05-15 11:34:00,83.2,60.3,30.20,SE,134,0.0,0.0,46,0.00,,---,0.00,VWS V14.01,2013-05-15 16:34:00,
2013-05-15 11:35:00,83.4,59.2,30.20,SSE,152,0.0,0.0,44,0.00,,---,0.00,VWS V14.01,2013-05-15 16:35:00,
2013-05-15 11:36:00,83.9,59.7,30.20,North,349,1.0,2.0,44,0.00,,---,0.00,VWS V14.01,2013-05-15 16:36:00,
2013-05-15 11:37:00,83.9,59.7,30.20,North,349,1.0,2.0,44,0.00,,---,0.00,VWS V14.01,2013-05-15 16:37:00,
2013-05-15 11:38:00,84.0,59.8,30.20,NNE,30,1.0,1.0,44,0.00,,---,0.00,VWS V14.01,2013-05-15 16:38:00,
2013-05-15 11:39:00,84.0,58.5,30.20,East,94,0.0,1.0,42,0.00,,---,0.00,VWS V14.01,2013-05-15 16:39:00,
2013-05-15 11:40:00,84.0,58.5,30.20,SE,136,0.0,1.0,42,0.00,,---,0.00,VWS V14.01,2013-05-15 16:40:00,
2013-05-15 11:41:00,84.1,59.2,30.20,SE,145,0.0,1.0,43,0.00,,---,0.00,VWS V14.01,2013-05-15 16:41:00,
2013-05-15 11:42:00,84.1,59.2,30.20,SE,145,0.0,1.0,43,0.00,,---,0.00,VWS V14.01,2013-05-15 16:42:00,
2013-05-15 11:43:00,84.2,59.3,30.19,SE,145,0.0,0.0,43,0.00,,---,0.00,VWS V14.01,2013-05-15 16:43:00,
2013-05-15 11:44:00,84.4,59.5,30.19,SE,129,0.0,1.0,43,0.00,,---,0.00,VWS V14.01,2013-05-15 16:44:00,
2013-05-15 11:45:00,84.5,59.6,30.19,SE,138,1.0,1.0,43,0.00,,---,0.00,VWS V14.01,2013-05-15 16:45:00,
2013-05-15 11:46:00,84.8,59.2,30.19,ESE,107,2.0,2.0,42,0.00,,---,0.00,VWS V14.01,2013-05-15 16:46:00,
2013-05-15 11:47:00,84.8,59.2,30.19,ESE,107,2.0,2.0,42,0.00,,---,0.00,VWS V14.01,2013-05-15 16:47:00,
2013-05-15 11:48:00,84.8,59.2,30.19,ESE,122,3.0,3.0,42,0.00,,---,0.00,VWS V14.01,2013-05-15 16:48:00,
2013-05-15 11:49:00,84.7,57.7,30.19,ENE,65,2.0,3.0,40,0.00,,---,0.00,VWS V14.01,2013-05-15 16:49:00,
2013-05-15 11:50:00,84.6,59.0,30.19,SSW,212,2.0,2.0,42,0.00,,---,0.00,VWS V14.01,2013-05-15 16:50:00,
2013-05-15 11:51:00,84.7,59.1,30.19,SSE,150,0.0,1.0,42,0.00,,---,0.00,VWS V14.01,2013-05-15 16:51:00,
2013-05-15 11:52:00,84.7,59.1,30.19,SSE,150,0.0,1.0,42,0.00,,---,0.00,VWS V14.01,2013-05-15 16:52:00,
2013-05-15 11:53:00,84.8,59.2,30.19,SSW,200,0.0,3.0,42,0.00,,---,0.00,VWS V14.01,2013-05-15 16:53:00,
2013-05-15 11:54:00,85.0,59.4,30.19,SSW,201,0.0,1.0,42,0.00,,---,0.00,VWS V14.01,2013-05-15 16:54:00,
2013-05-15 11:55:00,85.1,59.5,30.19,WSW,246,0.0,1.0,42,0.00,,---,0.00,VWS V14.01,2013-05-15 16:55:00,
2013-05-15 11:56:00,85.2,58.2,30.19,SW,215,0.0,0.0,40,0.00,,---,0.00,VWS V14.01,2013-05-15 16:56:00,
2013-05-15 11:57:00,85.2,58.2,30.19,SW,215,0.0,0.0,40,0.00,,---,0.00,VWS V14.01,2013-05-15 16:57:00,
2013-05-15 11:58:00,85.4,59.0,30.19,WSW,257,0.0,0.0,41,0.00,,---,0.00,VWS V14.01,2013-05-15 16:58:00,
2013-05-15 11:59:00,85.5,59.1,30.19,WNW,284,3.0,3.0,41,0.00,,---,0.00,VWS V14.01,2013-05-15 16:59:00,
2013-05-15 12:00:00,85.5,59.1,30.19,WSW,240,2.0,5.0,41,0.00,,---,0.00,VWS V14.01,2013-05-15 17:00:00,
2013-05-15 12:01:00,85.3,59.0,30.19,WSW,252,2.0,3.0,41,0.00,,---,0.00,VWS V14.01,2013-05-15 17:01:00,
2013-05-15 12:02:00,85.2,58.9,30.19,ESE,102,1.0,3.0,41,0.00,,---,0.00,VWS V14.01,2013-05-15 17:02:00,
2013-05-15 12:03:00,85.2,58.9,30.19,ESE,102,1.0,3.0,41,0.00,,---,0.00,VWS V14.01,2013-05-15 17:03:00,
2013-05-15 12:04:00,85.1,59.5,30.19,SSW,200,1.0,2.0,42,0.00,,---,0.00,VWS V14.01,2013-05-15 17:04:00,
2013-05-15 12:05:00,85.1,59.5,30.19,East,100,1.0,3.0,42,0.00,,---,0.00,VWS V14.01,2013-05-15 17:05:00,
2013-05-15 12:06:00,85.0,58.7,30.19,SSE,152,3.0,4.0,41,0.00,,---,0.00,VWS V14.01,2013-05-15 17:06:00,
2013-05-15 12:07:00,84.8,59.8,30.19,NW,314,0.0,2.0,43,0.00,,---,0.00,VWS V14.01,2013-05-15 17:07:00,
2013-05-15 12:08:00,84.8,59.8,30.19,NW,314,0.0,2.0,43,0.00,,---,0.00,VWS V14.01,2013-05-15 17:08:00,
2013-05-15 12:09:00,84.7,59.1,30.19,West,262,1.0,2.0,42,0.00,,---,0.00,VWS V14.01,2013-05-15 17:09:00,
2013-05-15 12:10:00,84.5,58.2,30.19,WNW,302,0.0,3.0,41,0.00,,---,0.00,VWS V14.01,2013-05-15 17:10:00,
2013-05-15 12:11:00,84.4,60.8,30.19,WSW,238,0.0,0.0,45,0.00,,---,0.00,VWS V14.01,2013-05-15 17:11:00,
2013-05-15 12:12:00,84.5,59.6,30.19,WSW,240,0.0,0.0,43,0.00,,---,0.00,VWS V14.01,2013-05-15 17:12:00,
2013-05-15 12:13:00,84.6,59.7,30.19,SW,231,1.0,1.0,43,0.00,,---,0.00,VWS V14.01,2013-05-15 17:13:00,
2013-05-15 12:14:00,84.6,59.7,30.19,SW,231,1.0,1.0,43,0.00,,---,0.00,VWS V14.01,2013-05-15 17:14:00,
2013-05-15 12:15:00,84.6,58.3,30.19,ENE,58,1.0,3.0,41,0.00,,---,0.00,VWS V14.01,2013-05-15 17:15:00,
2013-05-15 12:16:00,84.6,59.0,30.19,NNW,328,0.0,1.0,42,0.00,,---,0.00,VWS V14.01,2013-05-15 17:16:00,
2013-05-15 12:17:00,84.6,60.3,30.19,NNW,328,1.0,1.0,44,0.00,,---,0.00,VWS V14.01,2013-05-15 17:17:00,
2013-05-15 12:18:00,84.7,59.1,30.18,West,277,1.0,2.0,42,0.00,,---,0.00,VWS V14.01,2013-05-15 17:18:00,
2013-05-15 12:19:00,84.7,59.1,30.18,West,277,1.0,2.0,42,0.00,,---,0.00,VWS V14.01,2013-05-15 17:19:00,
2013-05-15 12:20:00,84.6,59.0,30.18,SW,224,0.0,1.0,42,0.00,,---,0.00,VWS V14.01,2013-05-15 17:20:00,
2013-05-15 12:21:00,84.7,59.8,30.18,WSW,243,0.0,0.0,43,0.00,,---,0.00,VWS V14.01,2013-05-15 17:21:00,
2013-05-15 12:22:00,84.8,59.8,30.18,WSW,243,0.0,0.0,43,0.00,,---,0.00,VWS V14.01,2013-05-15 17:22:00,
2013-05-15 12:23:00,85.2,61.5,30.18,WSW,243,0.0,0.0,45,0.00,,---,0.00,VWS V14.01,2013-05-15 17:23:00,
2013-05-15 12:24:00,85.2,61.5,30.18,WSW,243,0.0,0.0,45,0.00,,---,0.00,VWS V14.01,2013-05-15 17:24:00,
2013-05-15 12:25:00,85.4,61.0,30.18,WSW,241,0.0,0.0,44,0.00,,---,0.00,VWS V14.01,2013-05-15 17:25:00,
2013-05-15 12:26:00,85.7,60.7,30.18,SW,231,0.0,0.0,43,0.00,,---,0.00,VWS V14.01,2013-05-15 17:26:00,
2013-05-15 12:27:00,85.8,60.7,30.18,West,271,1.0,1.0,43,0.00,,---,0.00,VWS V14.01,2013-05-15 17:27:00,
2013-05-15 12:28:00,85.8,59.4,30.18,West,271,0.0,1.0,41,0.00,,---,0.00,VWS V14.01,2013-05-15 17:28:00,
2013-05-15 12:29:00,85.6,59.9,30.18,NNW,330,1.0,1.0,42,0.00,,---,0.00,VWS V14.01,2013-05-15 17:29:00,
2013-05-15 12:30:00,85.6,59.9,30.18,NNW,330,1.0,1.0,42,0.00,,---,0.00,VWS V14.01,2013-05-15 17:30:00,
2013-05-15 12:31:00,85.5,59.8,30.18,East,86,1.0,1.0,42,0.00,,---,0.00,VWS V14.01,2013-05-15 17:31:00,
2013-05-15 12:32:00,85.4,60.4,30.18,SE,136,0.0,1.0,43,0.00,,---,0.00,VWS V14.01,2013-05-15 17:32:00,
2013-05-15 12:33:00,85.2,60.2,30.18,SE,136,0.0,0.0,43,0.00,,---,0.00,VWS V14.01,2013-05-15 17:33:00,
2013-05-15 12:34:00,85.2,60.8,30.18,SW,232,0.0,0.0,44,0.00,,---,0.00,VWS V14.01,2013-05-15 17:34:00,
2013-05-15 12:35:00,85.2,60.8,30.18,SW,232,0.0,0.0,44,0.00,,---,0.00,VWS V14.01,2013-05-15 17:35:00,
2013-05-15 12:36:00,85.3,61.6,30.18,SW,232,2.0,4.0,45,0.00,,---,0.00,VWS V14.01,2013-05-15 17:36:00,
2013-05-15 12:37:00,85.3,60.9,30.18,WSW,243,0.0,2.0,44,0.00,,---,0.00,VWS V14.01,2013-05-15 17:37:00,
2013-05-15 12:38:00,85.3,60.3,30.18,West,276,0.0,2.0,43,0.00,,---,0.00,VWS V14.01,2013-05-15 17:38:00,
2013-05-15 12:39:00,85.2,61.5,30.18,West,269,1.0,1.0,45,0.00,,---,0.00,VWS V14.01,2013-05-15 17:39:00,
2013-05-15 12:40:00,85.2,61.5,30.18,West,269,1.0,1.0,45,0.00,,---,0.00,VWS V14.01,2013-05-15 17:40:00,
2013-05-15 12:41:00,85.2,60.8,30.18,ESE,122,1.0,2.0,44,0.00,,---,0.00,VWS V14.01,2013-05-15 17:41:00,
2013-05-15 12:42:00,85.2,61.5,30.18,East,98,3.0,3.0,45,0.00,,---,0.00,VWS V14.01,2013-05-15 17:42:00,
2013-05-15 12:43:00,85.2,60.8,30.18,SSE,150,0.0,5.0,44,0.00,,---,0.00,VWS V14.01,2013-05-15 17:43:00,
2013-05-15 12:44:00,84.9,61.2,30.18,West,270,0.0,2.0,45,0.00,,---,0.00,VWS V14.01,2013-05-15 17:44:00,
2013-05-15 12:45:00,84.9,61.2,30.18,West,270,0.0,2.0,45,0.00,,---,0.00,VWS V14.01,2013-05-15 17:45:00,
2013-05-15 12:46:00,84.8,61.1,30.18,SW,228,0.0,1.0,45,0.00,,---,0.00,VWS V14.01,2013-05-15 17:46:00,
2013-05-15 12:47:00,84.9,61.8,30.18,SW,235,0.0,1.0,46,0.00,,---,0.00,VWS V14.01,2013-05-15 17:47:00,
2013-05-15 12:48:00,85.1,62.6,30.18,WSW,243,0.0,1.0,47,0.00,,---,0.00,VWS V14.01,2013-05-15 17:48:00,
2013-05-15 12:49:00,85.1,61.4,30.18,ESE,123,1.0,2.0,45,0.00,,---,0.00,VWS V14.01,2013-05-15 17:49:00,
2013-05-15 12:50:00,85.1,61.4,30.18,ESE,123,1.0,2.0,45,0.00,,---,0.00,VWS V14.01,2013-05-15 17:50:00,
2013-05-15 12:51:00,85.2,62.1,30.18,SE,134,0.0,1.0,46,0.00,,---,0.00,VWS V14.01,2013-05-15 17:51:00,
2013-05-15 12:52:00,85.2,62.1,30.17,ESE,105,1.0,2.0,46,0.00,,---,0.00,VWS V14.01,2013-05-15 17:52:00,
2013-05-15 12:53:00,85.3,62.2,30.17,South,180,1.0,1.0,46,0.00,,---,0.00,VWS V14.01,2013-05-15 17:53:00,
2013-05-15 12:54:00,85.3,62.2,30.17,SE,131,3.0,3.0,46,0.00,,---,0.00,VWS V14.01,2013-05-15 17:54:00,
2013-05-15 12:55:00,85.3,62.2,30.17,SE,131,3.0,3.0,46,0.00,,---,0.00,VWS V14.01,2013-05-15 17:55:00,
2013-05-15 12:56:00,85.3,61.6,30.17,SE,129,0.0,3.0,45,0.00,,---,0.00,VWS V14.01,2013-05-15 17:56:00,
2013-05-15 12:57:00,85.4,62.3,30.17,North,11,0.0,2.0,46,0.00,,---,0.00,VWS V14.01,2013-05-15 17:57:00,
2013-05-15 12:58:00,85.5,62.4,30.17,ESE,113,0.0,1.0,46,0.00,,---,0.00,VWS V14.01,2013-05-15 17:58:00,
2013-05-15 12:59:00,85.6,62.5,30.17,SSE,160,3.0,3.0,46,0.00,,---,0.00,VWS V14.01,2013-05-15 17:59:00,
2013-05-15 13:00:00,85.6,63.1,30.17,NNE,21,2.0,2.0,47,0.00,,---,0.00,VWS V14.01,2013-05-15 18:00:00,
2013-05-15 13:01:00,85.6,63.1,30.17,NNE,21,2.0,2.0,47,0.00,,---,0.00,VWS V14.01,2013-05-15 18:01:00,
2013-05-15 13:02:00,85.6,61.8,30.17,NE,45,0.0,3.0,45,0.00,,---,0.00,VWS V14.01,2013-05-15 18:02:00,
2013-05-15 13:03:00,85.6,61.8,30.17,ESE,118,1.0,1.0,45,0.00,,---,0.00,VWS V14.01,2013-05-15 18:03:00,
2013-05-15 13:04:00,85.5,61.8,30.17,SE,126,2.0,2.0,45,0.00,,---,0.00,VWS V14.01,2013-05-15 18:04:00,
2013-05-15 13:05:00,85.6,61.8,30.17,SE,127,0.0,1.0,45,0.00,,---,0.00,VWS V14.01,2013-05-15 18:05:00,
2013-05-15 13:06:00,85.6,61.8,30.17,SE,127,0.0,1.0,45,0.00,,---,0.00,VWS V14.01,2013-05-15 18:06:00,
2013-05-15 13:07:00,85.7,62.6,30.17,WNW,284,2.0,2.0,46,0.00,,---,0.00,VWS V14.01,2013-05-15 18:07:00,
2013-05-15 13:08:00,85.7,61.9,30.17,SE,129,0.0,2.0,45,0.00,,---,0.00,VWS V14.01,2013-05-15 18:08:00,
2013-05-15 13:09:00,85.8,62.0,30.17,East,98,0.0,3.0,45,0.00,,---,0.00,VWS V14.01,2013-05-15 18:09:00,
2013-05-15 13:10:00,85.9,62.7,30.17,West,267,0.0,2.0,46,0.00,,---,0.00,VWS V14.01,2013-05-15 18:10:00,
2013-05-15 13:11:00,85.9,62.7,30.17,West,267,0.0,2.0,46,0.00,,---,0.00,VWS V14.01,2013-05-15 18:11:00,
2013-05-15 13:12:00,85.9,62.7,30.17,NW,321,0.0,2.0,46,0.00,,---,0.00,VWS V14.01,2013-05-15 18:12:00,
2013-05-15 13:13:00,86.0,63.4,30.17,NE,39,0.0,1.0,47,0.00,,---,0.00,VWS V14.01,2013-05-15 18:13:00,
2013-05-15 13:14:00,86.1,63.5,30.17,SW,224,4.0,4.0,47,0.00,,---,0.00,VWS V14.01,2013-05-15 18:14:00,
2013-05-15 13:15:00,86.1,62.3,30.17,WNW,285,0.0,4.0,45,0.00,,---,0.00,VWS V14.01,2013-05-15 18:15:00,
2013-05-15 13:16:00,86.3,63.1,30.17,ENE,58,2.0,2.0,46,0.00,,---,0.00,VWS V14.01,2013-05-15 18:16:00,
2013-05-15 13:17:00,86.3,63.1,30.17,ENE,58,2.0,2.0,46,0.00,,---,0.00,VWS V14.01,2013-05-15 18:17:00,
2013-05-15 13:18:00,86.4,63.2,30.17,NNW,345,1.0,2.0,46,0.00,,---,0.00,VWS V14.01,2013-05-15 18:18:00,
2013-05-15 13:19:00,86.5,63.3,30.17,ESE,122,2.0,2.0,46,0.00,,---,0.00,VWS V14.01,2013-05-15 18:19:00,
2013-05-15 13:20:00,86.6,63.4,30.17,ENE,68,3.0,3.0,46,0.00,,---,0.00,VWS V14.01,2013-05-15 18:20:00,
2013-05-15 13:21:00,86.7,62.8,30.17,East,96,1.0,3.0,45,0.00,,---,0.00,VWS V14.01,2013-05-15 18:21:00,
2013-05-15 13:22:00,86.4,61.9,30.17,WNW,285,0.0,1.0,44,0.00,,---,0.00,VWS V14.01,2013-05-15 18:22:00,
2013-05-15 13:23:00,86.4,61.9,30.17,WNW,285,0.0,1.0,44,0.00,,---,0.00,VWS V14.01,2013-05-15 18:23:00,
2013-05-15 13:24:00,86.4,62.6,30.17,SW,226,0.0,1.0,45,0.00,,---,0.00,VWS V14.01,2013-05-15 18:24:00,
2013-05-15 13:25:00,86.5,62.7,30.17,SE,139,1.0,1.0,45,0.00,,---,0.00,VWS V14.01,2013-05-15 18:25:00,
2013-05-15 13:26:00,86.7,62.8,30.16,SE,129,2.0,2.0,45,0.00,,---,0.00,VWS V14.01,2013-05-15 18:26:00,
2013-05-15 13:27:00,86.9,62.4,30.17,South,188,1.0,2.0,44,0.00,,---,0.00,VWS V14.01,2013-05-15 18:27:00,
2013-05-15 13:28:00,86.9,62.4,30.17,South,188,1.0,2.0,44,0.00,,---,0.00,VWS V14.01,2013-05-15 18:28:00,
2013-05-15 13:29:00,87.0,61.8,30.16,SSW,205,0.0,2.0,43,0.00,,---,0.00,VWS V14.01,2013-05-15 18:29:00,
2013-05-15 13:30:00,87.1,61.2,30.16,NNW,333,1.0,1.0,42,0.00,,---,0.00,VWS V14.01,2013-05-15 18:30:00,
2013-05-15 13:31:00,87.0,61.2,30.16,ESE,106,1.0,2.0,42,0.00,,---,0.00,VWS V14.01,2013-05-15 18:31:00,
2013-05-15 13:32:00,86.9,60.4,30.16,SSE,150,1.0,3.0,41,0.00,,---,0.00,VWS V14.01,2013-05-15 18:32:00,
2013-05-15 13:33:00,86.9,60.4,30.16,SSE,150,1.0,3.0,41,0.00,,---,0.00,VWS V14.01,2013-05-15 18:33:00,
2013-05-15 13:34:00,86.8,61.0,30.16,ESE,120,2.0,3.0,42,0.00,,---,0.00,VWS V14.01,2013-05-15 18:34:00,
2013-05-15 13:35:00,86.8,61.0,30.16,East,93,1.0,3.0,42,0.00,,---,0.00,VWS V14.01,2013-05-15 18:35:00,
2013-05-15 13:36:00,86.7,60.9,30.16,SSE,148,2.0,2.0,42,0.00,,---,0.00,VWS V14.01,2013-05-15 18:36:00,
2013-05-15 13:37:00,86.6,60.8,30.16,ESE,103,1.0,2.0,42,0.00,,---,0.00,VWS V14.01,2013-05-15 18:37:00,
2013-05-15 13:38:00,86.6,60.8,30.16,ESE,103,1.0,2.0,42,0.00,,---,0.00,VWS V14.01,2013-05-15 18:38:00,
2013-05-15 13:39:00,86.5,60.7,30.16,ESE,102,0.0,1.0,42,0.00,,---,0.00,VWS V14.01,2013-05-15 18:39:00,
2013-05-15 13:40:00,86.6,61.5,30.16,SW,233,1.0,2.0,43,0.00,,---,0.00,VWS V14.01,2013-05-15 18:40:00,
2013-05-15 13:41:00,86.7,61.5,30.16,SE,138,1.0,2.0,43,0.00,,---,0.00,VWS V14.01,2013-05-15 18:41:00,
2013-05-15 13:42:00,87.0,61.8,30.16,East,98,1.0,2.0,43,0.00,,---,0.00,VWS V14.01,2013-05-15 18:42:00,
2013-05-15 13:43:00,87.0,61.8,30.16,East,98,1.0,2.0,43,0.00,,---,0.00,VWS V14.01,2013-05-15 18:43:00,
2013-05-15 13:44:00,87.0,61.2,30.16,SW,229,2.0,5.0,42,0.00,,---,0.00,VWS V14.01,2013-05-15 18:44:00,
2013-05-15 13:45:00,87.0,61.2,30.16,SE,132,0.0,2.0,42,0.00,,---,0.00,VWS V14.01,2013-05-15 18:45:00,
2013-05-15 13:46:00,87.0,61.8,30.16,ESE,117,3.0,4.0,43,0.00,,---,0.00,VWS V14.01,2013-05-15 18:46:00,
2013-05-15 13:47:00,86.9,59.7,30.16,ENE,76,2.0,4.0,40,0.00,,---,0.00,VWS V14.01,2013-05-15 18:47:00,
2013-05-15 13:48:00,86.9,59.7,30.16,ENE,76,2.0,4.0,40,0.00,,---,0.00,VWS V14.01,2013-05-15 18:48:00,
2013-05-15 13:49:00,86.6,60.1,30.16,ESE,111,3.0,3.0,41,0.00,,---,0.00,VWS V14.01,2013-05-15 18:49:00,
2013-05-15 13:50:00,86.5,60.7,30.16,East,95,4.0,4.0,42,0.00,,---,0.00,VWS V14.01,2013-05-15 18:50:00,
2013-05-15 13:51:00,86.3,59.8,30.15,NE,51,4.0,7.0,41,0.00,,---,0.00,VWS V14.01,2013-05-15 18:51:00,
2013-05-15 13:52:00,85.4,59.7,30.15,ESE,111,1.0,6.0,42,0.00,,---,0.00,VWS V14.01,2013-05-15 18:52:00,
2013-05-15 13:53:00,85.4,59.7,30.15,ESE,111,1.0,6.0,42,0.00,,---,0.00,VWS V14.01,2013-05-15 18:53:00,
2013-05-15 13:54:00,85.2,60.2,30.15,East,93,1.0,2.0,43,0.00,,---,0.00,VWS V14.01,2013-05-15 18:54:00,
2013-05-15 13:55:00,85.1,59.5,30.15,East,96,4.0,4.0,42,0.00,,---,0.00,VWS V14.01,2013-05-15 18:55:00,
2013-05-15 13:56:00,85.0,60.0,30.15,South,191,2.0,4.0,43,0.00,,---,0.00,VWS V14.01,2013-05-15 18:56:00,
2013-05-15 13:57:00,85.1,59.5,30.15,SW,219,0.0,3.0,42,0.00,,---,0.00,VWS V14.01,2013-05-15 18:57:00,
2013-05-15 13:58:00,85.1,59.5,30.15,SW,219,0.0,3.0,42,0.00,,---,0.00,VWS V14.01,2013-05-15 18:58:00,
2013-05-15 13:59:00,85.2,60.2,30.15,ENE,58,3.0,3.0,43,0.00,,---,0.00,VWS V14.01,2013-05-15 18:59:00,
2013-05-15 14:00:00,85.2,59.5,30.15,ENE,70,3.0,4.0,42,0.00,,---,0.00,VWS V14.01,2013-05-15 19:00:00,
2013-05-15 14:01:00,85.2,59.5,30.15,ESE,103,1.0,3.0,42,0.00,,---,0.00,VWS V14.01,2013-05-15 19:01:00,
2013-05-15 14:02:00,85.0,58.7,30.15,ESE,119,2.0,2.0,41,0.00,,---,0.00,VWS V14.01,2013-05-15 19:02:00,
2013-05-15 14:03:00,85.0,58.7,30.15,ESE,119,2.0,2.0,41,0.00,,---,0.00,VWS V14.01,2013-05-15 19:03:00,
2013-05-15 14:04:00,84.9,59.3,30.15,ESE,105,2.0,5.0,42,0.00,,---,0.00,VWS V14.01,2013-05-15 19:04:00,
2013-05-15 14:05:00,84.9,59.3,30.15,ESE,120,0.0,2.0,42,0.00,,---,0.00,VWS V14.01,2013-05-15 19:05:00,
2013-05-15 14:06:00,84.9,59.3,30.15,North,11,1.0,5.0,42,0.00,,---,0.00,VWS V14.01,2013-05-15 19:06:00,
2013-05-15 14:07:00,84.8,59.2,30.15,ENE,72,4.0,6.0,42,0.00,,---,0.00,VWS V14.01,2013-05-15 19:07:00,
2013-05-15 14:08:00,84.8,59.2,30.15,ENE,72,4.0,6.0,42,0.00,,---,0.00,VWS V14.01,2013-05-15 19:08:00,
2013-05-15 14:09:00,84.8,59.2,30.15,East,83,2.0,4.0,42,0.00,,---,0.00,VWS V14.01,2013-05-15 19:09:00,
2013-05-15 14:10:00,84.7,59.1,30.15,ESE,105,2.0,5.0,42,0.00,,---,0.00,VWS V14.01,2013-05-15 19:10:00,
2013-05-15 14:11:00,84.7,59.8,30.15,SE,134,2.0,2.0,43,0.00,,---,0.00,VWS V14.01,2013-05-15 19:11:00,
2013-05-15 14:12:00,84.9,59.9,30.15,ESE,103,5.0,5.0,43,0.00,,---,0.00,VWS V14.01,2013-05-15 19:12:00,
2013-05-15 14:13:00,84.9,59.9,30.15,ESE,103,5.0,5.0,43,0.00,,---,0.00,VWS V14.01,2013-05-15 19:13:00,
2013-05-15 14:14:00,84.9,59.3,30.15,NE,35,2.0,5.0,42,0.00,,---,0.00,VWS V14.01,2013-05-15 19:14:00,
2013-05-15 14:15:00,85.0,60.0,30.14,SW,226,0.0,2.0,43,0.00,,---,0.00,VWS V14.01,2013-05-15 19:15:00,
2013-05-15 14:16:00,85.2,60.8,30.14,North,355,1.0,1.0,44,0.00,,---,0.00,VWS V14.01,2013-05-15 19:16:00,
2013-05-15 14:17:00,85.7,60.0,30.14,ENE,77,2.0,2.0,42,0.00,,---,0.00,VWS V14.01,2013-05-15 19:17:00,
2013-05-15 14:18:00,85.7,60.0,30.14,ENE,77,2.0,2.0,42,0.00,,---,0.00,VWS V14.01,2013-05-15 19:18:00,
2013-05-15 14:19:00,85.7,60.0,30.14,East,101,2.0,2.0,42,0.00,,---,0.00,VWS V14.01,2013-05-15 19:19:00,
2013-05-15 14:20:00,85.6,59.9,30.14,ESE,113,3.0,4.0,42,0.00,,---,0.00,VWS V14.01,2013-05-15 19:20:00,
2013-05-15 14:21:00,85.5,59.8,30.14,SE,126,0.0,3.0,42,0.00,,---,0.00,VWS V14.01,2013-05-15 19:21:00,
2013-05-15 14:22:00,85.4,59.7,30.14,NNE,23,3.0,3.0,42,0.00,,---,0.00,VWS V14.01,2013-05-15 19:22:00,
2013-05-15 14:23:00,85.4,59.7,30.14,North,354,3.0,3.0,42,0.00,,---,0.00,VWS V14.01,2013-05-15 19:23:00,
2013-05-15 14:24:00,85.4,59.7,30.14,North,354,3.0,3.0,42,0.00,,---,0.00,VWS V14.01,2013-05-15 19:24:00,
2013-05-15 14:25:00,85.4,59.0,30.14,ESE,109,1.0,4.0,41,0.00,,---,0.00,VWS V14.01,2013-05-15 19:25:00,
2013-05-15 14:26:00,85.3,59.0,30.14,ENE,71,1.0,3.0,41,0.00,,---,0.00,VWS V14.01,2013-05-15 19:26:00,
2013-05-15 14:27:00,85.2,59.5,30.14,ESE,104,1.0,4.0,42,0.00,,---,0.00,VWS V14.01,2013-05-15 19:27:00,
2013-05-15 14:28:00,85.2,60.2,30.14,SE,142,1.0,1.0,43,0.00,,---,0.00,VWS V14.01,2013-05-15 19:28:00,
2013-05-15 14:29:00,85.2,60.2,30.14,SE,142,1.0,1.0,43,0.00,,---,0.00,VWS V14.01,2013-05-15 19:29:00,
2013-05-15 14:30:00,85.3,59.6,30.14,East,84,2.0,7.0,42,0.00,,---,0.00,VWS V14.01,2013-05-15 19:30:00,
2013-05-15 14:31:00,85.3,60.3,30.13,ENE,74,1.0,3.0,43,0.00,,---,0.00,VWS V14.01,2013-05-15 19:31:00,
2013-05-15 14:32:00,85.4,59.7,30.13,SW,223,0.0,2.0,42,0.00,,---,0.00,VWS V14.01,2013-05-15 19:32:00,
2013-05-15 14:33:00,85.4,60.4,30.13,NE,36,2.0,3.0,43,0.00,,---,0.00,VWS V14.01,2013-05-15 19:33:00,
2013-05-15 14:34:00,85.4,60.4,30.13,NE,36,2.0,3.0,43,0.00,,---,0.00,VWS V14.01,2013-05-15 19:34:00,
2013-05-15 14:35:00,85.4,59.7,30.13,NE,56,2.0,3.0,42,0.00,,---,0.00,VWS V14.01,2013-05-15 19:35:00,
2013-05-15 14:36:00,85.3,59.0,30.13,WSW,255,1.0,2.0,41,0.00,,---,0.00,VWS V14.01,2013-05-15 19:36:00,
2013-05-15 14:37:00,85.2,58.9,30.13,South,172,1.0,4.0,41,0.00,,---,0.00,VWS V14.01,2013-05-15 19:37:00,
2013-05-15 14:38:00,85.2,59.5,30.13,SW,219,1.0,4.0,42,0.00,,---,0.00,VWS V14.01,2013-05-15 19:38:00,
2013-05-15 14:39:00,85.1,59.5,30.13,West,269,1.0,2.0,42,0.00,,---,0.00,VWS V14.01,2013-05-15 19:39:00,
2013-05-15 14:40:00,85.1,59.5,30.13,West,269,1.0,2.0,42,0.00,,---,0.00,VWS V14.01,2013-05-15 19:40:00,
2013-05-15 14:41:00,85.1,59.5,30.13,SW,221,2.0,2.0,42,0.00,,---,0.00,VWS V14.01,2013-05-15 19:41:00,
2013-05-15 14:42:00,85.2,60.2,30.13,NNE,30,1.0,3.0,43,0.00,,---,0.00,VWS V14.01,2013-05-15 19:42:00,
2013-05-15 14:43:00,85.3,60.9,30.13,East,101,4.0,6.0,44,0.00,,---,0.00,VWS V14.01,2013-05-15 19:43:00,
2013-05-15 14:44:00,85.2,58.9,30.13,SE,125,0.0,5.0,41,0.00,,---,0.00,VWS V14.01,2013-05-15 19:44:00,
2013-05-15 14:45:00,85.2,58.9,30.13,SE,125,0.0,5.0,41,0.00,,---,0.00,VWS V14.01,2013-05-15 19:45:00,
2013-05-15 14:46:00,85.2,58.9,30.13,NW,315,2.0,2.0,41,0.00,,---,0.00,VWS V14.01,2013-05-15 19:46:00,
2013-05-15 14:47:00,85.2,58.9,30.13,ESE,112,2.0,3.0,41,0.00,,---,0.00,VWS V14.01,2013-05-15 19:47:00,
2013-05-15 14:48:00,85.1,58.8,30.13,WNW,300,1.0,3.0,41,0.00,,---,0.00,VWS V14.01,2013-05-15 19:48:00,
2013-05-15 14:49:00,85.3,59.6,30.12,ESE,114,1.0,2.0,42,0.00,,---,0.00,VWS V14.01,2013-05-15 19:49:00,
2013-05-15 14:50:00,85.3,59.6,30.12,ESE,114,1.0,2.0,42,0.00,,---,0.00,VWS V14.01,2013-05-15 19:50:00,
2013-05-15 14:51:00,85.3,59.6,30.13,NE,39,1.0,2.0,42,0.00,,---,0.00,VWS V14.01,2013-05-15 19:51:00,
2013-05-15 14:52:00,85.4,59.7,30.13,NW,323,2.0,2.0,42,0.00,,---,0.00,VWS V14.01,2013-05-15 19:52:00,
2013-05-15 14:53:00,85.4,59.7,30.12,WSW,237,1.0,2.0,42,0.00,,---,0.00,VWS V14.01,2013-05-15 19:53:00,
2013-05-15 14:54:00,85.5,59.1,30.12,ENE,74,2.0,2.0,41,0.00,,---,0.00,VWS V14.01,2013-05-15 19:54:00,
2013-05-15 14:55:00,85.9,58.8,30.12,East,91,7.0,7.0,40,0.00,,---,0.00,VWS V14.01,2013-05-15 19:55:00,
2013-05-15 14:56:00,85.9,58.8,30.12,East,91,7.0,7.0,40,0.00,,---,0.00,VWS V14.01,2013-05-15 19:56:00,
2013-05-15 14:57:00,85.8,58.7,30.12,East,91,0.0,7.0,40,0.00,,---,0.00,VWS V14.01,2013-05-15 19:57:00,
2013-05-15 14:58:00,85.7,58.6,30.12,ESE,113,4.0,6.0,40,0.00,,---,0.00,VWS V14.01,2013-05-15 19:58:00,
2013-05-15 14:59:00,85.5,59.1,30.12,ENE,68,0.0,4.0,41,0.00,,---,0.00,VWS V14.01,2013-05-15 19:59:00,
2013-05-15 15:00:00,85.5,59.8,30.12,East,93,1.0,1.0,42,0.00,,---,0.00,VWS V14.01,2013-05-15 20:00:00,
2013-05-15 15:01:00,85.5,59.8,30.12,East,93,1.0,1.0,42,0.00,,---,0.00,VWS V14.01,2013-05-15 20:01:00,
2013-05-15 15:02:00,85.7,59.3,30.12,SE,138,1.0,2.0,41,0.00,,---,0.00,VWS V14.01,2013-05-15 20:02:00,
2013-05-15 15:03:00,85.9,60.2,30.12,NNW,345,2.0,2.0,42,0.00,,---,0.00,VWS V14.01,2013-05-15 20:03:00,
2013-05-15 15:04:00,86.1,60.3,30.12,ENE,58,1.0,2.0,42,0.00,,---,0.00,VWS V14.01,2013-05-15 20:04:00,
2013-05-15 15:05:00,86.3,59.2,30.12,ENE,60,2.0,4.0,40,0.00,,---,0.00,VWS V14.01,2013-05-15 20:05:00,
2013-05-15 15:06:00,86.3,59.2,30.12,ENE,60,2.0,4.0,40,0.00,,---,0.00,VWS V14.01,2013-05-15 20:06:00,
2013-05-15 15:07:00,86.2,58.4,30.12,SSW,200,1.0,3.0,39,0.00,,---,0.00,VWS V14.01,2013-05-15 20:07:00,
2013-05-15 15:08:00,85.9,58.1,30.12,NE,48,3.0,5.0,39,0.00,,---,0.00,VWS V14.01,2013-05-15 20:08:00,
2013-05-15 15:09:00,85.8,58.0,30.12,SE,129,3.0,7.0,39,0.00,,---,0.00,VWS V14.01,2013-05-15 20:09:00,
2013-05-15 15:10:00,85.6,58.5,30.12,ESE,113,0.0,1.0,40,0.00,,---,0.00,VWS V14.01,2013-05-15 20:10:00,
2013-05-15 15:11:00,85.6,58.5,30.12,ESE,113,0.0,1.0,40,0.00,,---,0.00,VWS V14.01,2013-05-15 20:11:00,
2013-05-15 15:12:00,85.7,57.9,30.12,East,98,0.0,1.0,39,0.00,,---,0.00,VWS V14.01,2013-05-15 20:12:00,
2013-05-15 15:13:00,85.9,58.8,30.11,NW,315,0.0,1.0,40,0.00,,---,0.00,VWS V14.01,2013-05-15 20:13:00,
2013-05-15 15:14:00,86.1,59.0,30.11,South,186,1.0,2.0,40,0.00,,---,0.00,VWS V14.01,2013-05-15 20:14:00,
2013-05-15 15:15:00,86.3,57.7,30.11,East,87,1.0,3.0,38,0.00,,---,0.00,VWS V14.01,2013-05-15 20:15:00,
2013-05-15 15:16:00,86.3,57.7,30.11,East,87,1.0,3.0,38,0.00,,---,0.00,VWS V14.01,2013-05-15 20:16:00,
2013-05-15 15:17:00,86.4,57.8,30.11,SE,132,0.0,3.0,38,0.00,,---,0.00,VWS V14.01,2013-05-15 20:17:00,
2013-05-15 15:18:00,86.4,57.8,30.11,West,262,2.0,2.0,38,0.00,,---,0.00,VWS V14.01,2013-05-15 20:18:00,
2013-05-15 15:19:00,86.5,57.9,30.11,WSW,240,5.0,5.0,38,0.00,,---,0.00,VWS V14.01,2013-05-15 20:19:00,
2013-05-15 15:20:00,86.4,57.8,30.11,WSW,240,0.0,5.0,38,0.00,,---,0.00,VWS V14.01,2013-05-15 20:20:00,
2013-05-15 15:21:00,86.4,57.8,30.11,WSW,240,0.0,5.0,38,0.00,,---,0.00,VWS V14.01,2013-05-15 20:21:00,
2013-05-15 15:22:00,86.4,57.1,30.11,WNW,284,1.0,3.0,37,0.00,,---,0.00,VWS V14.01,2013-05-15 20:22:00,
2013-05-15 15:23:00,86.3,57.0,30.11,ENE,61,2.0,5.0,37,0.00,,---,0.00,VWS V14.01,2013-05-15 20:23:00,
2013-05-15 15:24:00,86.3,57.0,30.11,ENE,58,2.0,3.0,37,0.00,,---,0.00,VWS V14.01,2013-05-15 20:24:00,
2013-05-15 15:25:00,86.2,57.6,30.11,WNW,282,1.0,2.0,38,0.00,,---,0.00,VWS V14.01,2013-05-15 20:25:00,
2013-05-15 15:26:00,86.2,57.6,30.11,WNW,282,1.0,2.0,38,0.00,,---,0.00,VWS V14.01,2013-05-15 20:26:00,
2013-05-15 15:27:00,86.2,57.6,30.11,WSW,253,0.0,1.0,38,0.00,,---,0.00,VWS V14.01,2013-05-15 20:27:00,
2013-05-15 15:28:00,86.3,57.7,30.10,SSW,204,0.0,1.0,38,0.00,,---,0.00,VWS V14.01,2013-05-15 20:28:00,
2013-05-15 15:29:00,86.5,58.6,30.10,SSW,204,0.0,0.0,39,0.00,,---,0.00,VWS V14.01,2013-05-15 20:29:00,
2013-05-15 15:30:00,87.0,59.1,30.10,SW,226,0.0,1.0,39,0.00,,---,0.00,VWS V14.01,2013-05-15 20:30:00,
2013-05-15 15:31:00,87.0,59.1,30.10,SW,226,0.0,1.0,39,0.00,,---,0.00,VWS V14.01,2013-05-15 20:31:00,
2013-05-15 15:32:00,87.2,57.8,30.10,SSW,201,2.0,2.0,37,0.00,,---,0.00,VWS V14.01,2013-05-15 20:32:00,
2013-05-15 15:33:00,87.3,57.1,30.10,SW,231,0.0,2.0,36,0.00,,---,0.00,VWS V14.01,2013-05-15 20:33:00,
2013-05-15 15:34:00,87.4,57.2,30.10,ESE,117,3.0,4.0,36,0.00,,---,0.00,VWS V14.01,2013-05-15 20:34:00,
2013-05-15 15:35:00,87.1,56.9,30.10,WSW,257,3.0,3.0,36,0.00,,---,0.00,VWS V14.01,2013-05-15 20:35:00,
2013-05-15 15:36:00,87.1,56.9,30.10,WSW,257,3.0,3.0,36,0.00,,---,0.00,VWS V14.01,2013-05-15 20:36:00,
2013-05-15 15:37:00,87.0,57.6,30.10,East,84,1.0,3.0,37,0.00,,---,0.00,VWS V14.01,2013-05-15 20:37:00,
2013-05-15 15:38:00,86.9,58.3,30.10,SE,129,2.0,3.0,38,0.00,,---,0.00,VWS V14.01,2013-05-15 20:38:00,
2013-05-15 15:39:00,86.8,58.2,30.10,East,80,3.0,3.0,38,0.00,,---,0.00,VWS V14.01,2013-05-15 20:39:00,
2013-05-15 15:40:00,86.7,58.1,30.10,NE,48,0.0,4.0,38,0.00,,---,0.00,VWS V14.01,2013-05-15 20:40:00,
2013-05-15 15:41:00,86.5,57.9,30.10,East,82,1.0,1.0,38,0.00,,---,0.00,VWS V14.01,2013-05-15 20:41:00,
2013-05-15 15:42:00,86.5,57.9,30.10,East,82,1.0,1.0,38,0.00,,---,0.00,VWS V14.01,2013-05-15 20:42:00,
2013-05-15 15:43:00,86.5,57.9,30.10,NNE,24,1.0,3.0,38,0.00,,---,0.00,VWS V14.01,2013-05-15 20:43:00,
2013-05-15 15:44:00,86.5,57.9,30.10,SE,129,2.0,2.0,38,0.00,,---,0.00,VWS V14.01,2013-05-15 20:44:00,
2013-05-15 15:45:00,86.4,57.8,30.10,SW,215,0.0,5.0,38,0.00,,---,0.00,VWS V14.01,2013-05-15 20:45:00,
2013-05-15 15:46:00,86.4,57.1,30.10,ENE,76,1.0,2.0,37,0.00,,---,0.00,VWS V14.01,2013-05-15 20:46:00,
2013-05-15 15:47:00,86.3,57.7,30.10,East,96,1.0,1.0,38,0.00,,---,0.00,VWS V14.01,2013-05-15 20:47:00,
2013-05-15 15:48:00,86.3,57.7,30.10,East,96,1.0,1.0,38,0.00,,---,0.00,VWS V14.01,2013-05-15 20:48:00,
2013-05-15 15:49:00,86.4,57.8,30.10,SE,138,1.0,2.0,38,0.00,,---,0.00,VWS V14.01,2013-05-15 20:49:00,
2013-05-15 15:50:00,86.5,58.6,30.10,ESE,122,2.0,2.0,39,0.00,,---,0.00,VWS V14.01,2013-05-15 20:50:00,
2013-05-15 15:51:00,86.6,58.0,30.10,SE,125,1.0,2.0,38,0.00,,---,0.00,VWS V14.01,2013-05-15 20:51:00,
2013-05-15 15:52:00,86.8,58.9,30.10,SE,131,1.0,2.0,39,0.00,,---,0.00,VWS V14.01,2013-05-15 20:52:00,
2013-05-15 15:53:00,86.9,58.3,30.10,ENE,76,4.0,5.0,38,0.00,,---,0.00,VWS V14.01,2013-05-15 20:53:00,
2013-05-15 15:54:00,86.9,58.3,30.10,ENE,76,4.0,5.0,38,0.00,,---,0.00,VWS V14.01,2013-05-15 20:54:00,
2013-05-15 15:55:00,86.8,57.4,30.10,North,11,2.0,4.0,37,0.00,,---,0.00,VWS V14.01,2013-05-15 20:55:00,
2013-05-15 15:56:00,86.6,58.0,30.09,East,98,0.0,3.0,38,0.00,,---,0.00,VWS V14.01,2013-05-15 20:56:00,
2013-05-15 15:57:00,86.6,58.0,30.09,East,91,1.0,1.0,38,0.00,,---,0.00,VWS V14.01,2013-05-15 20:57:00,
2013-05-15 15:58:00,86.6,58.0,30.10,East,91,0.0,1.0,38,0.00,,---,0.00,VWS V14.01,2013-05-15 20:58:00,
2013-05-15 15:59:00,86.8,58.2,30.09,NE,41,3.0,3.0,38,0.00,,---,0.00,VWS V14.01,2013-05-15 20:59:00,
2013-05-15 16:00:00,86.8,58.2,30.09,NE,41,3.0,3.0,38,0.00,,---,0.00,VWS V14.01,2013-05-15 21:00:00,
2013-05-15 16:01:00,86.9,59.0,30.09,NW,305,1.0,3.0,39,0.00,,---,0.00,VWS V14.01,2013-05-15 21:01:00,
2013-05-15 16:02:00,86.9,58.3,30.09,East,95,1.0,2.0,38,0.00,,---,0.00,VWS V14.01,2013-05-15 21:02:00,
2013-05-15 16:03:00,86.8,58.2,30.09,East,97,1.0,2.0,38,0.00,,---,0.00,VWS V14.01,2013-05-15 21:03:00,
2013-05-15 16:04:00,86.8,58.9,30.09,SE,136,5.0,5.0,39,0.00,,---,0.00,VWS V14.01,2013-05-15 21:04:00,
2013-05-15 16:05:00,86.8,58.9,30.09,SE,136,5.0,5.0,39,0.00,,---,0.00,VWS V14.01,2013-05-15 21:05:00,
2013-05-15 16:06:00,86.7,58.1,30.09,SE,134,1.0,5.0,38,0.00,,---,0.00,VWS V14.01,2013-05-15 21:06:00,
2013-05-15 16:07:00,86.7,58.8,30.09,ESE,105,1.0,3.0,39,0.00,,---,0.00,VWS V14.01,2013-05-15 21:07:00,
2013-05-15 16:08:00,86.6,58.0,30.09,WSW,253,0.0,2.0,38,0.00,,---,0.00,VWS V14.01,2013-05-15 21:08:00,
2013-05-15 16:09:00,86.6,58.0,30.09,West,277,1.0,2.0,38,0.00,,---,0.00,VWS V14.01,2013-05-15 21:09:00,
2013-05-15 16:10:00,86.6,58.0,30.09,West,277,1.0,2.0,38,0.00,,---,0.00,VWS V14.01,2013-05-15 21:10:00,
2013-05-15 16:11:00,86.5,58.6,30.09,WNW,282,0.0,1.0,39,0.00,,---,0.00,VWS V14.01,2013-05-15 21:11:00,
2013-05-15 16:12:00,86.4,59.2,30.09,NNE,32,2.0,5.0,40,0.00,,---,0.00,VWS V14.01,2013-05-15 21:12:00,
2013-05-15 16:13:00,86.3,58.5,30.09,NE,43,1.0,2.0,39,0.00,,---,0.00,VWS V14.01,2013-05-15 21:13:00,
2013-05-15 16:14:00,86.0,58.2,30.09,ESE,103,1.0,3.0,39,0.00,,---,0.00,VWS V14.01,2013-05-15 21:14:00,
2013-05-15 16:15:00,86.0,58.2,30.09,ESE,103,1.0,3.0,39,0.00,,---,0.00,VWS V14.01,2013-05-15 21:15:00,
2013-05-15 16:16:00,85.8,58.7,30.09,ENE,70,1.0,5.0,40,0.00,,---,0.00,VWS V14.01,2013-05-15 21:16:00,
2013-05-15 16:17:00,85.6,57.8,30.09,East,88,1.0,5.0,39,0.00,,---,0.00,VWS V14.01,2013-05-15 21:17:00,
2013-05-15 16:18:00,85.5,58.5,30.09,North,3,0.0,2.0,40,0.00,,---,0.00,VWS V14.01,2013-05-15 21:18:00,
2013-05-15 16:19:00,85.6,58.5,30.09,ESE,112,2.0,5.0,40,0.00,,---,0.00,VWS V14.01,2013-05-15 21:19:00,
2013-05-15 16:20:00,85.6,58.5,30.09,ESE,112,2.0,5.0,40,0.00,,---,0.00,VWS V14.01,2013-05-15 21:20:00,
2013-05-15 16:21:00,85.6,58.5,30.09,NNE,20,1.0,4.0,40,0.00,,---,0.00,VWS V14.01,2013-05-15 21:21:00,
2013-05-15 16:22:00,85.6,58.5,30.09,East,82,1.0,2.0,40,0.00,,---,0.00,VWS V14.01,2013-05-15 21:22:00,
2013-05-15 16:23:00,85.6,57.8,30.09,NW,308,0.0,1.0,39,0.00,,---,0.00,VWS V14.01,2013-05-15 21:23:00,
2013-05-15 16:24:00,85.9,58.8,30.09,SW,231,0.0,2.0,40,0.00,,---,0.00,VWS V14.01,2013-05-15 21:24:00,
2013-05-15 16:25:00,85.9,58.8,30.09,SW,231,0.0,2.0,40,0.00,,---,0.00,VWS V14.01,2013-05-15 21:25:00,
2013-05-15 16:26:00,86.1,59.0,30.09,SSE,147,0.0,1.0,40,0.00,,---,0.00,VWS V14.01,2013-05-15 21:26:00,
2013-05-15 16:27:00,86.3,59.2,30.09,SE,143,1.0,1.0,40,0.00,,---,0.00,VWS V14.01,2013-05-15 21:27:00,
2013-05-15 16:28:00,86.5,59.3,30.09,SSW,203,0.0,1.0,40,0.00,,---,0.00,VWS V14.01,2013-05-15 21:28:00,
2013-05-15 16:29:00,86.7,59.5,30.09,ENE,65,2.0,2.0,40,0.00,,---,0.00,VWS V14.01,2013-05-15 21:29:00,
2013-05-15 16:30:00,86.7,59.5,30.09,ENE,65,2.0,2.0,40,0.00,,---,0.00,VWS V14.01,2013-05-15 21:30:00,
2013-05-15 16:31:00,86.7,58.8,30.09,SE,131,0.0,2.0,39,0.00,,---,0.00,VWS V14.01,2013-05-15 21:31:00,
2013-05-15 16:32:00,86.7,58.8,30.09,North,360,1.0,2.0,39,0.00,,---,0.00,VWS V14.01,2013-05-15 21:32:00,
2013-05-15 16:33:00,86.7,58.8,30.09,NNE,19,2.0,3.0,39,0.00,,---,0.00,VWS V14.01,2013-05-15 21:33:00,
2013-05-15 16:34:00,86.3,58.5,30.09,South,181,0.0,3.0,39,0.00,,---,0.00,VWS V14.01,2013-05-15 21:34:00,
2013-05-15 16:35:00,86.3,58.5,30.09,South,181,0.0,3.0,39,0.00,,---,0.00,VWS V14.01,2013-05-15 21:35:00,
2013-05-15 16:36:00,86.2,58.4,30.09,WSW,240,0.0,1.0,39,0.00,,---,0.00,VWS V14.01,2013-05-15 21:36:00,
2013-05-15 16:37:00,86.0,58.9,30.09,North,359,3.0,5.0,40,0.00,,---,0.00,VWS V14.01,2013-05-15 21:37:00,
2013-05-15 16:38:00,85.7,57.9,30.09,East,94,3.0,3.0,39,0.00,,---,0.00,VWS V14.01,2013-05-15 21:38:00,
2013-05-15 16:39:00,85.4,58.4,30.09,ENE,67,0.0,3.0,40,0.00,,---,0.00,VWS V14.01,2013-05-15 21:39:00,
2013-05-15 16:40:00,84.9,58.6,30.09,SW,217,2.0,2.0,41,0.00,,---,0.00,VWS V14.01,2013-05-15 21:40:00,
2013-05-15 16:41:00,84.9,58.6,30.09,SW,217,2.0,2.0,41,0.00,,---,0.00,VWS V14.01,2013-05-15 21:41:00,
2013-05-15 16:42:00,84.8,57.8,30.09,ESE,111,3.0,4.0,40,0.00,,---,0.00,VWS V14.01,2013-05-15 21:42:00,
2013-05-15 16:43:00,84.7,58.4,30.09,South,172,1.0,3.0,41,0.00,,---,0.00,VWS V14.01,2013-05-15 21:43:00,
2013-05-15 16:44:00,84.6,58.3,30.09,East,90,4.0,4.0,41,0.00,,---,0.00,VWS V14.01,2013-05-15 21:44:00,
2013-05-15 16:45:00,84.1,57.9,30.09,ESE,104,2.0,2.0,41,0.00,,---,0.00,VWS V14.01,2013-05-15 21:45:00,
2013-05-15 16:46:00,84.1,57.9,30.09,ESE,104,2.0,2.0,41,0.00,,---,0.00,VWS V14.01,2013-05-15 21:46:00,
2013-05-15 16:47:00,83.9,57.7,30.09,East,89,1.0,3.0,41,0.00,,---,0.00,VWS V14.01,2013-05-15 21:47:00,
2013-05-15 16:48:00,83.6,57.4,30.09,East,93,7.0,7.0,41,0.00,,---,0.00,VWS V14.01,2013-05-15 21:48:00,
2013-05-15 16:49:00,83.4,57.9,30.09,SE,128,0.0,7.0,42,0.00,,---,0.00,VWS V14.01,2013-05-15 21:49:00,
2013-05-15 16:50:00,83.1,57.7,30.09,ENE,61,4.0,4.0,42,0.00,,---,0.00,VWS V14.01,2013-05-15 21:50:00,
2013-05-15 16:51:00,83.1,57.7,30.09,ENE,61,4.0,4.0,42,0.00,,---,0.00,VWS V14.01,2013-05-15 21:51:00,
2013-05-15 16:52:00,82.9,56.8,30.09,ENE,69,2.0,8.0,41,0.00,,---,0.00,VWS V14.01,2013-05-15 21:52:00,
2013-05-15 16:53:00,82.7,56.6,30.09,East,100,1.0,4.0,41,0.00,,---,0.00,VWS V14.01,2013-05-15 21:53:00,
2013-05-15 16:54:00,82.6,57.2,30.09,WNW,288,1.0,1.0,42,0.00,,---,0.00,VWS V14.01,2013-05-15 21:54:00,
2013-05-15 16:55:00,82.6,57.9,30.09,WNW,291,1.0,1.0,43,0.00,,---,0.00,VWS V14.01,2013-05-15 21:55:00,
2013-05-15 16:56:00,82.7,57.3,30.09,SE,135,1.0,4.0,42,0.00,,---,0.00,VWS V14.01,2013-05-15 21:56:00,
2013-05-15 16:57:00,82.7,57.3,30.09,SE,135,1.0,4.0,42,0.00,,---,0.00,VWS V14.01,2013-05-15 21:57:00,
2013-05-15 16:58:00,82.8,56.7,30.09,ESE,107,0.0,2.0,41,0.00,,---,0.00,VWS V14.01,2013-05-15 21:58:00,
2013-05-15 16:59:00,82.9,57.5,30.09,WNW,296,1.0,2.0,42,0.00,,---,0.00,VWS V14.01,2013-05-15 21:59:00,
2013-05-15 17:00:00,83.0,56.9,30.08,ENE,70,2.0,3.0,41,0.00,,---,0.00,VWS V14.01,2013-05-15 22:00:00,
2013-05-15 17:01:00,83.2,57.8,30.08,East,100,1.0,2.0,42,0.00,,---,0.00,VWS V14.01,2013-05-15 22:01:00,
2013-05-15 17:02:00,83.2,57.8,30.08,East,100,1.0,2.0,42,0.00,,---,0.00,VWS V14.01,2013-05-15 22:02:00,
2013-05-15 17:03:00,83.3,57.8,30.08,East,93,3.0,3.0,42,0.00,,---,0.00,VWS V14.01,2013-05-15 22:03:00,
2013-05-15 17:04:00,83.4,57.3,30.08,SE,142,0.0,4.0,41,0.00,,---,0.00,VWS V14.01,2013-05-15 22:04:00,
2013-05-15 17:05:00,83.5,57.3,30.08,ESE,111,0.0,1.0,41,0.00,,---,0.00,VWS V14.01,2013-05-15 22:05:00,
2013-05-15 17:06:00,83.6,57.4,30.08,SW,226,1.0,2.0,41,0.00,,---,0.00,VWS V14.01,2013-05-15 22:06:00,
2013-05-15 17:07:00,83.6,57.4,30.08,SW,226,1.0,2.0,41,0.00,,---,0.00,VWS V14.01,2013-05-15 22:07:00,
2013-05-15 17:08:00,83.7,56.1,30.08,WSW,246,0.0,3.0,39,0.00,,---,0.00,VWS V14.01,2013-05-15 22:08:00,
2013-05-15 17:09:00,83.7,56.1,30.09,East,86,0.0,3.0,39,0.00,,---,0.00,VWS V14.01,2013-05-15 22:09:00,
2013-05-15 17:10:00,83.6,56.0,30.09,WSW,256,0.0,1.0,39,0.00,,---,0.00,VWS V14.01,2013-05-15 22:10:00,
2013-05-15 17:11:00,83.3,55.1,30.09,SE,127,0.0,5.0,38,0.00,,---,0.00,VWS V14.01,2013-05-15 22:11:00,
2013-05-15 17:12:00,83.3,55.1,30.09,SE,127,0.0,5.0,38,0.00,,---,0.00,VWS V14.01,2013-05-15 22:12:00,
2013-05-15 17:13:00,83.0,56.2,30.09,ESE,122,0.0,2.0,40,0.00,,---,0.00,VWS V14.01,2013-05-15 22:13:00,
2013-05-15 17:14:00,82.8,55.3,30.09,ESE,120,0.0,2.0,39,0.00,,---,0.00,VWS V14.01,2013-05-15 22:14:00,
2013-05-15 17:15:00,82.6,55.9,30.09,ENE,61,1.0,1.0,40,0.00,,---,0.00,VWS V14.01,2013-05-15 22:15:00,
2013-05-15 17:16:00,82.2,55.5,30.08,NNE,27,0.0,3.0,40,0.00,,---,0.00,VWS V14.01,2013-05-15 22:16:00,
2013-05-15 17:17:00,82.2,55.5,30.08,NNE,27,0.0,3.0,40,0.00,,---,0.00,VWS V14.01,2013-05-15 22:17:00,
2013-05-15 17:18:00,82.1,56.1,30.09,NNE,28,1.0,1.0,41,0.00,,---,0.00,VWS V14.01,2013-05-15 22:18:00,
2013-05-15 17:19:00,82.0,55.3,30.09,South,181,0.0,3.0,40,0.00,,---,0.00,VWS V14.01,2013-05-15 22:19:00,
2013-05-15 17:20:00,82.0,56.0,30.09,SE,135,1.0,1.0,41,0.00,,---,0.00,VWS V14.01,2013-05-15 22:20:00,
2013-05-15 17:21:00,82.0,55.3,30.08,SSE,150,0.0,2.0,40,0.00,,---,0.00,VWS V14.01,2013-05-15 22:21:00,
2013-05-15 17:22:00,82.0,55.3,30.08,SSE,150,0.0,2.0,40,0.00,,---,0.00,VWS V14.01,2013-05-15 22:22:00,
2013-05-15 17:23:00,82.1,56.1,30.09,SE,132,4.0,5.0,41,0.00,,---,0.00,VWS V14.01,2013-05-15 22:23:00,
2013-05-15 17:24:00,82.1,55.4,30.09,East,94,2.0,4.0,40,0.00,,---,0.00,VWS V14.01,2013-05-15 22:24:00,
2013-05-15 17:25:00,82.0,56.0,30.08,ENE,77,2.0,2.0,41,0.00,,---,0.00,VWS V14.01,2013-05-15 22:25:00,
2013-05-15 17:26:00,82.1,56.1,30.08,ESE,112,1.0,4.0,41,0.00,,---,0.00,VWS V14.01,2013-05-15 22:26:00,
2013-05-15 17:27:00,82.1,56.8,30.08,South,174,3.0,4.0,42,0.00,,---,0.00,VWS V14.01,2013-05-15 22:27:00,
2013-05-15 17:28:00,82.1,56.8,30.08,South,174,3.0,4.0,42,0.00,,---,0.00,VWS V14.01,2013-05-15 22:28:00,
2013-05-15 17:29:00,82.2,56.2,30.08,WNW,291,0.0,3.0,41,0.00,,---,0.00,VWS V14.01,2013-05-15 22:29:00,
2013-05-15 17:30:00,82.3,55.6,30.08,NNW,327,1.0,1.0,40,0.00,,---,0.00,VWS V14.01,2013-05-15 22:30:00,
2013-05-15 17:31:00,82.5,55.8,30.08,NNW,329,0.0,2.0,40,0.00,,---,0.00,VWS V14.01,2013-05-15 22:31:00,
2013-05-15 17:32:00,82.7,55.2,30.08,NNE,27,1.0,2.0,39,0.00,,---,0.00,VWS V14.01,2013-05-15 22:32:00,
2013-05-15 17:33:00,82.7,55.2,30.08,NNE,27,1.0,2.0,39,0.00,,---,0.00,VWS V14.01,2013-05-15 22:33:00,
2013-05-15 17:34:00,82.7,55.2,30.08,NE,39,0.0,1.0,39,0.00,,---,0.00,VWS V14.01,2013-05-15 22:34:00,
2013-05-15 17:35:00,82.8,56.0,30.08,NE,39,0.0,0.0,40,0.00,,---,0.00,VWS V14.01,2013-05-15 22:35:00,
2013-05-15 17:36:00,82.9,55.4,30.08,East,87,1.0,2.0,39,0.00,,---,0.00,VWS V14.01,2013-05-15 22:36:00,
2013-05-15 17:37:00,82.8,54.6,30.08,ENE,77,0.0,1.0,38,0.00,,---,0.00,VWS V14.01,2013-05-15 22:37:00,
2013-05-15 17:38:00,82.8,54.6,30.08,ENE,77,0.0,1.0,38,0.00,,---,0.00,VWS V14.01,2013-05-15 22:38:00,
2013-05-15 17:39:00,82.8,55.3,30.08,East,84,4.0,4.0,39,0.00,,---,0.00,VWS V14.01,2013-05-15 22:39:00,
2013-05-15 17:40:00,82.6,54.5,30.08,SE,132,1.0,4.0,38,0.00,,---,0.00,VWS V14.01,2013-05-15 22:40:00,
2013-05-15 17:41:00,82.4,55.0,30.08,East,91,1.0,2.0,39,0.00,,---,0.00,VWS V14.01,2013-05-15 22:41:00,
2013-05-15 17:42:00,82.1,54.0,30.08,WNW,300,1.0,2.0,38,0.00,,---,0.00,VWS V14.01,2013-05-15 22:42:00,
2013-05-15 17:43:00,82.1,54.0,30.08,WNW,300,1.0,2.0,38,0.00,,---,0.00,VWS V14.01,2013-05-15 22:43:00,
2013-05-15 17:44:00,82.1,54.7,30.08,WSW,238,1.0,2.0,39,0.00,,---,0.00,VWS V14.01,2013-05-15 22:44:00,
2013-05-15 17:45:00,82.1,54.7,30.08,WSW,249,0.0,1.0,39,0.00,,---,0.00,VWS V14.01,2013-05-15 22:45:00,
2013-05-15 17:46:00,82.1,54.7,30.08,WNW,300,1.0,2.0,39,0.00,,---,0.00,VWS V14.01,2013-05-15 22:46:00,
2013-05-15 17:47:00,82.2,54.8,30.08,NE,53,0.0,1.0,39,0.00,,---,0.00,VWS V14.01,2013-05-15 22:47:00,
2013-05-15 17:48:00,82.1,54.7,30.08,NNE,24,1.0,3.0,39,0.00,,---,0.00,VWS V14.01,2013-05-15 22:48:00,
2013-05-15 17:49:00,82.1,54.7,30.08,NNE,24,1.0,3.0,39,0.00,,---,0.00,VWS V14.01,2013-05-15 22:49:00,
2013-05-15 17:50:00,82.1,56.1,30.08,WSW,250,1.0,2.0,41,0.00,,---,0.00,VWS V14.01,2013-05-15 22:50:00,
2013-05-15 17:51:00,82.1,55.4,30.08,ESE,111,2.0,2.0,40,0.00,,---,0.00,VWS V14.01,2013-05-15 22:51:00,
2013-05-15 17:52:00,82.1,54.7,30.08,SSE,151,2.0,5.0,39,0.00,,---,0.00,VWS V14.01,2013-05-15 22:52:00,
2013-05-15 17:53:00,82.0,55.3,30.08,WNW,285,2.0,4.0,40,0.00,,---,0.00,VWS V14.01,2013-05-15 22:53:00,
2013-05-15 17:54:00,81.9,55.2,30.08,West,278,2.0,3.0,40,0.00,,---,0.00,VWS V14.01,2013-05-15 22:54:00,
2013-05-15 17:55:00,81.8,55.1,30.08,SSE,155,0.0,3.0,40,0.00,,---,0.00,VWS V14.01,2013-05-15 22:55:00,
2013-05-15 17:56:00,81.8,55.1,30.08,SSE,155,0.0,3.0,40,0.00,,---,0.00,VWS V14.01,2013-05-15 22:56:00,
2013-05-15 17:57:00,81.7,55.0,30.08,NE,39,2.0,2.0,40,0.00,,---,0.00,VWS V14.01,2013-05-15 22:57:00,
2013-05-15 17:58:00,81.7,55.0,30.08,NW,305,1.0,3.0,40,0.00,,---,0.00,VWS V14.01,2013-05-15 22:58:00,
2013-05-15 17:59:00,81.6,55.0,30.08,NNE,33,0.0,1.0,40,0.00,,---,0.00,VWS V14.01,2013-05-15 22:59:00,
2013-05-15 18:00:00,81.4,55.5,30.08,ENE,77,0.0,0.0,41,0.00,,---,0.00,VWS V14.01,2013-05-15 23:00:00,
2013-05-15 18:01:00,81.4,55.5,30.08,ENE,77,0.0,0.0,41,0.00,,---,0.00,VWS V14.01,2013-05-15 23:01:00,
2013-05-15 18:02:00,81.3,55.4,30.08,West,269,1.0,2.0,41,0.00,,---,0.00,VWS V14.01,2013-05-15 23:02:00,
2013-05-15 18:03:00,81.2,55.3,30.08,SE,139,1.0,2.0,41,0.00,,---,0.00,VWS V14.01,2013-05-15 23:03:00,
2013-05-15 18:04:00,81.2,55.3,30.08,West,278,0.0,2.0,41,0.00,,---,0.00,VWS V14.01,2013-05-15 23:04:00,
2013-05-15 18:05:00,81.2,55.3,30.08,ESE,121,0.0,0.0,41,0.00,,---,0.00,VWS V14.01,2013-05-15 23:05:00,
2013-05-15 18:06:00,81.2,55.3,30.08,ESE,121,0.0,0.0,41,0.00,,---,0.00,VWS V14.01,2013-05-15 23:06:00,
2013-05-15 18:07:00,81.2,55.3,30.08,ENE,70,2.0,2.0,41,0.00,,---,0.00,VWS V14.01,2013-05-15 23:07:00,
2013-05-15 18:08:00,81.2,55.3,30.08,West,278,1.0,2.0,41,0.00,,---,0.00,VWS V14.01,2013-05-15 23:08:00,
2013-05-15 18:09:00,81.2,54.6,30.07,NNW,338,1.0,2.0,40,0.00,,---,0.00,VWS V14.01,2013-05-15 23:09:00,
2013-05-15 18:10:00,81.0,55.1,30.08,West,271,0.0,2.0,41,0.00,,---,0.00,VWS V14.01,2013-05-15 23:10:00,
2013-05-15 18:11:00,81.0,55.1,30.08,West,271,0.0,2.0,41,0.00,,---,0.00,VWS V14.01,2013-05-15 23:11:00,
2013-05-15 18:12:00,80.9,53.7,30.08,WNW,297,6.0,6.0,39,0.00,,---,0.00,VWS V14.01,2013-05-15 23:12:00,
2013-05-15 18:13:00,80.6,54.1,30.08,WNW,297,1.0,6.0,40,0.00,,---,0.00,VWS V14.01,2013-05-15 23:13:00,
2013-05-15 18:14:00,80.3,53.8,30.08,West,274,2.0,2.0,40,0.00,,---,0.00,VWS V14.01,2013-05-15 23:14:00,
2013-05-15 18:15:00,80.1,52.9,30.08,West,260,1.0,4.0,39,0.00,,---,0.00,VWS V14.01,2013-05-15 23:15:00,
2013-05-15 18:16:00,79.7,53.3,30.08,WNW,283,1.0,1.0,40,0.00,,---,0.00,VWS V14.01,2013-05-15 23:16:00,
2013-05-15 18:17:00,79.7,53.3,30.08,WNW,283,1.0,1.0,40,0.00,,---,0.00,VWS V14.01,2013-05-15 23:17:00,
2013-05-15 18:18:00,79.6,53.8,30.08,SW,218,0.0,1.0,41,0.00,,---,0.00,VWS V14.01,2013-05-15 23:18:00,
2013-05-15 18:19:00,79.5,53.8,30.08,WSW,246,1.0,2.0,41,0.00,,---,0.00,VWS V14.01,2013-05-15 23:19:00,
2013-05-15 18:20:00,79.4,54.3,30.08,WSW,245,1.0,1.0,42,0.00,,---,0.00,VWS V14.01,2013-05-15 23:20:00,
2013-05-15 18:21:00,79.3,53.6,30.08,WSW,243,1.0,1.0,41,0.00,,---,0.00,VWS V14.01,2013-05-15 23:21:00,
2013-05-15 18:22:00,79.1,53.4,30.07,SW,224,0.0,1.0,41,0.00,,---,0.00,VWS V14.01,2013-05-15 23:22:00,
2013-05-15 18:23:00,79.1,53.4,30.07,SW,224,0.0,1.0,41,0.00,,---,0.00,VWS V14.01,2013-05-15 23:23:00,
2013-05-15 18:24:00,79.1,54.1,30.07,SW,235,2.0,2.0,42,0.00,,---,0.00,VWS V14.01,2013-05-15 23:24:00,
2013-05-15 18:25:00,79.0,54.0,30.07,WSW,254,1.0,2.0,42,0.00,,---,0.00,VWS V14.01,2013-05-15 23:25:00,
2013-05-15 18:26:00,79.0,54.0,30.07,SW,223,2.0,4.0,42,0.00,,---,0.00,VWS V14.01,2013-05-15 23:26:00,
2013-05-15 18:27:00,78.8,53.1,30.07,NNE,29,0.0,2.0,41,0.00,,---,0.00,VWS V14.01,2013-05-15 23:27:00,
2013-05-15 18:28:00,78.8,53.1,30.07,NNE,29,0.0,2.0,41,0.00,,---,0.00,VWS V14.01,2013-05-15 23:28:00,
2013-05-15 18:29:00,78.7,53.0,30.07,ESE,103,0.0,2.0,41,0.00,,---,0.00,VWS V14.01,2013-05-15 23:29:00,
2013-05-15 18:30:00,78.6,53.6,30.07,SW,232,0.0,1.0,42,0.00,,---,0.00,VWS V14.01,2013-05-15 23:30:00,
2013-05-15 18:31:00,78.5,54.2,30.07,North,8,0.0,1.0,43,0.00,,---,0.00,VWS V14.01,2013-05-15 23:31:00,
2013-05-15 18:32:00,78.4,54.1,30.07,West,269,0.0,0.0,43,0.00,,---,0.00,VWS V14.01,2013-05-15 23:32:00,
2013-05-15 18:33:00,78.4,54.1,30.07,West,269,0.0,0.0,43,0.00,,---,0.00,VWS V14.01,2013-05-15 23:33:00,
2013-05-15 18:34:00,78.4,53.4,30.07,SW,229,1.0,3.0,42,0.00,,---,0.00,VWS V14.01,2013-05-15 23:34:00,
2013-05-15 18:35:00,78.3,53.3,30.07,SW,232,1.0,1.0,42,0.00,,---,0.00,VWS V14.01,2013-05-15 23:35:00,
2013-05-15 18:36:00,78.2,53.2,30.07,WSW,245,1.0,1.0,42,0.00,,---,0.00,VWS V14.01,2013-05-15 23:36:00,
2013-05-15 18:37:00,78.2,53.2,30.07,WSW,245,0.0,1.0,42,0.00,,---,0.00,VWS V14.01,2013-05-15 23:37:00,
2013-05-15 18:38:00,78.1,53.8,30.07,North,8,2.0,3.0,43,0.00,,---,0.00,VWS V14.01,2013-05-15 23:38:00,
2013-05-15 18:39:00,77.9,53.6,30.07,WSW,253,0.0,2.0,43,0.00,,---,0.00,VWS V14.01,2013-05-15 23:39:00,
2013-05-15 18:40:00,77.9,53.6,30.07,WSW,253,0.0,2.0,43,0.00,,---,0.00,VWS V14.01,2013-05-15 23:40:00,
2013-05-15 18:41:00,77.8,53.5,30.07,WSW,255,0.0,1.0,43,0.00,,---,0.00,VWS V14.01,2013-05-15 23:41:00,
2013-05-15 18:42:00,77.7,53.5,30.07,WNW,300,3.0,5.0,43,0.00,,---,0.00,VWS V14.01,2013-05-15 23:42:00,
2013-05-15 18:43:00,77.6,53.4,30.07,WSW,240,1.0,3.0,43,0.00,,---,0.00,VWS V14.01,2013-05-15 23:43:00,
2013-05-15 18:44:00,77.5,53.9,30.07,WSW,240,0.0,1.0,44,0.00,,---,0.00,VWS V14.01,2013-05-15 23:44:00,
2013-05-15 18:45:00,77.3,53.7,30.07,WSW,240,0.0,0.0,44,0.00,,---,0.00,VWS V14.01,2013-05-15 23:45:00,
2013-05-15 18:46:00,77.3,53.7,30.07,WSW,240,0.0,0.0,44,0.00,,---,0.00,VWS V14.01,2013-05-15 23:46:00,
2013-05-15 18:47:00,77.3,53.7,30.07,WSW,249,1.0,1.0,44,0.00,,---,0.00,VWS V14.01,2013-05-15 23:47:00,
2013-05-15 18:48:00,77.2,54.2,30.07,WSW,250,1.0,1.0,45,0.00,,---,0.00,VWS V14.01,2013-05-15 23:48:00,
2013-05-15 18:49:00,77.1,54.2,30.07,WSW,238,1.0,1.0,45,0.00,,---,0.00,VWS V14.01,2013-05-15 23:49:00,
2013-05-15 18:50:00,77.0,54.1,30.07,WSW,238,0.0,1.0,45,0.00,,---,0.00,VWS V14.01,2013-05-15 23:50:00,
2013-05-15 18:51:00,76.8,53.9,30.07,West,277,1.0,2.0,45,0.00,,---,0.00,VWS V14.01,2013-05-15 23:51:00,
2013-05-15 18:52:00,76.8,53.9,30.07,West,277,1.0,2.0,45,0.00,,---,0.00,VWS V14.01,2013-05-15 23:52:00,
2013-05-15 18:53:00,76.8,53.9,30.07,West,277,0.0,1.0,45,0.00,,---,0.00,VWS V14.01,2013-05-15 23:53:00,
2013-05-15 18:54:00,76.7,53.8,30.07,West,277,0.0,0.0,45,0.00,,---,0.00,VWS V14.01,2013-05-15 23:54:00,
2013-05-15 18:55:00,76.6,54.3,30.07,West,277,0.0,0.0,46,0.00,,---,0.00,VWS V14.01,2013-05-15 23:55:00,
2013-05-15 18:56:00,76.6,53.7,30.07,WSW,238,2.0,2.0,45,0.00,,---,0.00,VWS V14.01,2013-05-15 23:56:00,
2013-05-15 18:57:00,76.6,53.7,30.07,WSW,238,2.0,2.0,45,0.00,,---,0.00,VWS V14.01,2013-05-15 23:57:00,
2013-05-15 18:58:00,76.5,53.6,30.07,WNW,300,0.0,4.0,45,0.00,,---,0.00,VWS V14.01,2013-05-15 23:58:00,
2013-05-15 18:59:00,76.5,54.2,30.07,WNW,301,0.0,0.0,46,0.00,,---,0.00,VWS V14.01,2013-05-15 23:59:00,
2013-05-15 19:00:00,76.4,53.5,30.07,SW,228,0.0,2.0,45,0.00,,---,0.00,VWS V14.01,2013-05-16 00:00:00,
2013-05-15 19:01:00,76.3,54.0,30.08,NE,53,1.0,2.0,46,0.00,,---,0.00,VWS V14.01,2013-05-16 00:01:00,
2013-05-15 19:02:00,76.3,54.0,30.08,North,357,0.0,1.0,46,0.00,,---,0.00,VWS V14.01,2013-05-16 00:02:00,
2013-05-15 19:03:00,76.2,53.9,30.07,North,356,0.0,0.0,46,0.00,,---,0.00,VWS V14.01,2013-05-16 00:03:00,
2013-05-15 19:04:00,76.2,53.9,30.07,North,356,0.0,0.0,46,0.00,,---,0.00,VWS V14.01,2013-05-16 00:04:00,
2013-05-15 19:05:00,76.1,53.8,30.07,NNE,21,1.0,1.0,46,0.00,,---,0.00,VWS V14.01,2013-05-16 00:05:00,
2013-05-15 19:06:00,76.1,53.8,30.07,SW,232,1.0,1.0,46,0.00,,---,0.00,VWS V14.01,2013-05-16 00:06:00,
2013-05-15 19:07:00,76.1,54.4,30.07,West,262,0.0,2.0,47,0.00,,---,0.00,VWS V14.01,2013-05-16 00:07:00,
2013-05-15 19:08:00,76.0,54.3,30.07,WSW,238,0.0,1.0,47,0.00,,---,0.00,VWS V14.01,2013-05-16 00:08:00,
2013-05-15 19:09:00,75.9,54.8,30.07,South,176,0.0,1.0,48,0.00,,---,0.00,VWS V14.01,2013-05-16 00:09:00,
2013-05-15 19:10:00,75.9,54.8,30.07,South,176,0.0,1.0,48,0.00,,---,0.00,VWS V14.01,2013-05-16 00:10:00,
2013-05-15 19:11:00,75.9,54.2,30.07,ESE,113,0.0,0.0,47,0.00,,---,0.00,VWS V14.01,2013-05-16 00:11:00,
2013-05-15 19:12:00,75.8,54.2,30.07,SE,124,1.0,1.0,47,0.00,,---,0.00,VWS V14.01,2013-05-16 00:12:00,
2013-05-15 19:13:00,75.8,54.2,30.07,SE,127,0.0,1.0,47,0.00,,---,0.00,VWS V14.01,2013-05-16 00:13:00,
2013-05-15 19:14:00,75.7,54.1,30.07,ENE,70,1.0,2.0,47,0.00,,---,0.00,VWS V14.01,2013-05-16 00:14:00,
2013-05-15 19:15:00,75.7,54.1,30.07,ENE,70,1.0,2.0,47,0.00,,---,0.00,VWS V14.01,2013-05-16 00:15:00,
2013-05-15 19:16:00,75.7,54.1,30.07,ENE,73,1.0,1.0,47,0.00,,---,0.00,VWS V14.01,2013-05-16 00:16:00,
2013-05-15 19:17:00,75.6,54.0,30.07,ENE,74,0.0,1.0,47,0.00,,---,0.00,VWS V14.01,2013-05-16 00:17:00,
2013-05-15 19:18:00,75.6,54.5,30.07,ENE,73,0.0,0.0,48,0.00,,---,0.00,VWS V14.01,2013-05-16 00:18:00,
2013-05-15 19:19:00,75.5,54.5,30.07,SE,135,0.0,1.0,48,0.00,,---,0.00,VWS V14.01,2013-05-16 00:19:00,
2013-05-15 19:20:00,75.5,54.5,30.07,SE,135,0.0,1.0,48,0.00,,---,0.00,VWS V14.01,2013-05-16 00:20:00,
2013-05-15 19:21:00,75.5,55.0,30.07,ESE,122,1.0,1.0,49,0.00,,---,0.00,VWS V14.01,2013-05-16 00:21:00,
2013-05-15 19:22:00,75.4,54.4,30.07,SSE,149,0.0,2.0,48,0.00,,---,0.00,VWS V14.01,2013-05-16 00:22:00,
2013-05-15 19:23:00,75.4,54.9,30.07,SSE,152,0.0,1.0,49,0.00,,---,0.00,VWS V14.01,2013-05-16 00:23:00,
2013-05-15 19:24:00,75.3,54.8,30.07,SSE,153,0.0,0.0,49,0.00,,---,0.00,VWS V14.01,2013-05-16 00:24:00,
2013-05-15 19:25:00,75.3,54.8,30.07,SSE,148,0.0,0.0,49,0.00,,---,0.00,VWS V14.01,2013-05-16 00:25:00,
2013-05-15 19:26:00,75.3,54.8,30.07,SSE,150,0.0,0.0,49,0.00,,---,0.00,VWS V14.01,2013-05-16 00:26:00,
2013-05-15 19:27:00,75.1,54.7,30.07,SW,231,0.0,0.0,49,0.00,,---,0.00,VWS V14.01,2013-05-16 00:27:00,
2013-05-15 19:28:00,75.1,54.7,30.07,SW,231,0.0,0.0,49,0.00,,---,0.00,VWS V14.01,2013-05-16 00:28:00,
2013-05-15 19:29:00,75.1,55.2,30.06,SW,232,0.0,1.0,50,0.00,,---,0.00,VWS V14.01,2013-05-16 00:29:00,
2013-05-15 19:30:00,75.0,55.1,30.06,SW,232,0.0,0.0,50,0.00,,---,0.00,VWS V14.01,2013-05-16 00:30:00,
2013-05-15 19:31:00,75.0,55.1,30.07,SW,232,1.0,1.0,50,0.00,,---,0.00,VWS V14.01,2013-05-16 00:31:00,
2013-05-15 19:32:00,74.9,55.6,30.07,SW,232,1.0,2.0,51,0.00,,---,0.00,VWS V14.01,2013-05-16 00:32:00,
2013-05-15 19:33:00,74.9,55.6,30.07,SW,232,1.0,2.0,51,0.00,,---,0.00,VWS V14.01,2013-05-16 00:33:00,
2013-05-15 19:34:00,74.8,55.5,30.07,South,179,1.0,1.0,51,0.00,,---,0.00,VWS V14.01,2013-05-16 00:34:00,
2013-05-15 19:35:00,74.8,55.5,30.07,SSE,163,0.0,1.0,51,0.00,,---,0.00,VWS V14.01,2013-05-16 00:35:00,
2013-05-15 19:36:00,74.8,55.5,30.07,South,179,0.0,2.0,51,0.00,,---,0.00,VWS V14.01,2013-05-16 00:36:00,
2013-05-15 19:37:00,74.7,55.4,30.07,NNE,27,0.0,1.0,51,0.00,,---,0.00,VWS V14.01,2013-05-16 00:37:00,
2013-05-15 19:38:00,74.7,55.4,30.07,NNE,27,0.0,1.0,51,0.00,,---,0.00,VWS V14.01,2013-05-16 00:38:00,
2013-05-15 19:39:00,74.6,55.8,30.07,West,260,1.0,2.0,52,0.00,,---,0.00,VWS V14.01,2013-05-16 00:39:00,
2013-05-15 19:40:00,74.6,55.8,30.07,West,264,0.0,1.0,52,0.00,,---,0.00,VWS V14.01,2013-05-16 00:40:00,
2013-05-15 19:41:00,74.5,55.7,30.06,West,264,0.0,0.0,52,0.00,,---,0.00,VWS V14.01,2013-05-16 00:41:00,
2013-05-15 19:42:00,74.4,55.7,30.07,WSW,238,0.0,1.0,52,0.00,,---,0.00,VWS V14.01,2013-05-16 00:42:00,
2013-05-15 19:43:00,74.4,55.7,30.07,WSW,238,0.0,1.0,52,0.00,,---,0.00,VWS V14.01,2013-05-16 00:43:00,
2013-05-15 19:44:00,74.4,55.7,30.07,SW,231,1.0,2.0,52,0.00,,---,0.00,VWS V14.01,2013-05-16 00:44:00,
2013-05-15 19:45:00,74.3,56.1,30.07,WSW,252,1.0,1.0,53,0.00,,---,0.00,VWS V14.01,2013-05-16 00:45:00,
2013-05-15 19:46:00,74.3,56.1,30.07,WSW,252,0.0,1.0,53,0.00,,---,0.00,VWS V14.01,2013-05-16 00:46:00,
2013-05-15 19:47:00,74.2,56.0,30.07,WSW,252,0.0,0.0,53,0.00,,---,0.00,VWS V14.01,2013-05-16 00:47:00,
2013-05-15 19:48:00,74.2,56.0,30.07,WSW,252,0.0,0.0,53,0.00,,---,0.00,VWS V14.01,2013-05-16 00:48:00,
2013-05-15 19:49:00,74.2,56.0,30.07,WSW,252,1.0,1.0,53,0.00,,---,0.00,VWS V14.01,2013-05-16 00:49:00,
2013-05-15 19:50:00,74.2,56.0,30.07,WSW,252,0.0,1.0,53,0.00,,---,0.00,VWS V14.01,2013-05-16 00:50:00,
2013-05-15 19:51:00,74.2,56.0,30.07,WSW,252,0.0,0.0,53,0.00,,---,0.00,VWS V14.01,2013-05-16 00:51:00,
2013-05-15 19:52:00,74.1,56.4,30.07,South,170,1.0,2.0,54,0.00,,---,0.00,VWS V14.01,2013-05-16 00:52:00,
2013-05-15 19:53:00,74.1,56.4,30.07,South,170,1.0,2.0,54,0.00,,---,0.00,VWS V14.01,2013-05-16 00:53:00,
2013-05-15 19:54:00,74.0,56.3,30.07,South,171,0.0,1.0,54,0.00,,---,0.00,VWS V14.01,2013-05-16 00:54:00,
2013-05-15 19:55:00,74.0,56.3,30.07,WNW,284,1.0,1.0,54,0.00,,---,0.00,VWS V14.01,2013-05-16 00:55:00,
2013-05-15 19:56:00,74.0,56.3,30.07,West,259,0.0,1.0,54,0.00,,---,0.00,VWS V14.01,2013-05-16 00:56:00,
2013-05-15 19:57:00,73.9,56.2,30.06,WSW,246,0.0,1.0,54,0.00,,---,0.00,VWS V14.01,2013-05-16 00:57:00,
2013-05-15 19:58:00,73.8,56.6,30.06,WNW,284,1.0,2.0,55,0.00,,---,0.00,VWS V14.01,2013-05-16 00:58:00,
2013-05-15 19:59:00,73.8,56.6,30.06,WNW,284,1.0,2.0,55,0.00,,---,0.00,VWS V14.01,2013-05-16 00:59:00,
2013-05-15 20:00:00,73.7,56.5,30.06,WNW,283,0.0,1.0,55,0.00,,---,0.00,VWS V14.01,2013-05-16 01:00:00,
2013-05-15 20:01:00,73.7,56.5,30.06,West,281,0.0,0.0,55,0.00,,---,0.00,VWS V14.01,2013-05-16 01:01:00,
2013-05-15 20:02:00,73.7,56.5,30.06,West,281,1.0,1.0,55,0.00,,---,0.00,VWS V14.01,2013-05-16 01:02:00,
2013-05-15 20:03:00,73.6,57.0,30.06,South,191,0.0,1.0,56,0.00,,---,0.00,VWS V14.01,2013-05-16 01:03:00,
2013-05-15 20:04:00,73.6,57.0,30.06,South,191,0.0,1.0,56,0.00,,---,0.00,VWS V14.01,2013-05-16 01:04:00,
2013-05-15 20:05:00,73.5,56.9,30.06,WSW,243,1.0,1.0,56,0.00,,---,0.00,VWS V14.01,2013-05-16 01:05:00,
2013-05-15 20:06:00,73.4,56.8,30.06,South,173,0.0,1.0,56,0.00,,---,0.00,VWS V14.01,2013-05-16 01:06:00,
2013-05-15 20:07:00,73.4,56.8,30.06,South,173,0.0,0.0,56,0.00,,---,0.00,VWS V14.01,2013-05-16 01:07:00,
2013-05-15 20:08:00,73.3,57.2,30.06,West,260,2.0,2.0,57,0.00,,---,0.00,VWS V14.01,2013-05-16 01:08:00,
2013-05-15 20:09:00,73.3,57.2,30.06,West,260,2.0,2.0,57,0.00,,---,0.00,VWS V14.01,2013-05-16 01:09:00,
2013-05-15 20:10:00,73.2,57.1,30.06,WSW,256,0.0,2.0,57,0.00,,---,0.00,VWS V14.01,2013-05-16 01:10:00,
2013-05-15 20:11:00,73.2,57.1,30.06,WSW,253,0.0,0.0,57,0.00,,---,0.00,VWS V14.01,2013-05-16 01:11:00,
2013-05-15 20:12:00,73.2,57.1,30.06,WSW,252,0.0,0.0,57,0.00,,---,0.00,VWS V14.01,2013-05-16 01:12:00,
2013-05-15 20:13:00,73.1,57.5,30.06,WSW,253,0.0,0.0,58,0.00,,---,0.00,VWS V14.01,2013-05-16 01:13:00,
2013-05-15 20:14:00,73.1,57.5,30.06,WSW,253,0.0,0.0,58,0.00,,---,0.00,VWS V14.01,2013-05-16 01:14:00,
2013-05-15 20:15:00,73.0,57.4,30.06,WSW,253,0.0,0.0,58,0.00,,---,0.00,VWS V14.01,2013-05-16 01:15:00,
2013-05-15 20:16:00,72.9,57.3,30.06,WSW,252,0.0,0.0,58,0.00,,---,0.00,VWS V14.01,2013-05-16 01:16:00,
2013-05-15 20:17:00,72.9,57.3,30.06,WSW,257,0.0,1.0,58,0.00,,---,0.00,VWS V14.01,2013-05-16 01:17:00,
2013-05-15 20:18:00,72.8,57.7,30.06,West,281,0.0,0.0,59,0.00,,---,0.00,VWS V14.01,2013-05-16 01:18:00,
2013-05-15 20:19:00,72.8,57.7,30.06,West,281,0.0,0.0,59,0.00,,---,0.00,VWS V14.01,2013-05-16 01:19:00,
2013-05-15 20:20:00,72.7,57.6,30.06,WNW,283,0.0,0.0,59,0.00,,---,0.00,VWS V14.01,2013-05-16 01:20:00,
2013-05-15 20:21:00,72.7,57.6,30.07,WNW,284,0.0,1.0,59,0.00,,---,0.00,VWS V14.01,2013-05-16 01:21:00,
2013-05-15 20:22:00,72.7,57.6,30.07,WNW,283,0.0,0.0,59,0.00,,---,0.00,VWS V14.01,2013-05-16 01:22:00,
2013-05-15 20:23:00,72.6,57.9,30.07,WNW,283,0.0,0.0,60,0.00,,---,0.00,VWS V14.01,2013-05-16 01:23:00,
2013-05-15 20:24:00,72.6,57.9,30.07,WNW,283,0.0,0.0,60,0.00,,---,0.00,VWS V14.01,2013-05-16 01:24:00,
2013-05-15 20:25:00,72.6,57.5,30.06,WNW,283,0.0,0.0,59,0.00,,---,0.00,VWS V14.01,2013-05-16 01:25:00,
2013-05-15 20:26:00,72.6,57.5,30.06,WNW,283,0.0,0.0,59,0.00,,---,0.00,VWS V14.01,2013-05-16 01:26:00,
2013-05-15 20:27:00,72.6,57.5,30.06,WNW,284,0.0,0.0,59,0.00,,---,0.00,VWS V14.01,2013-05-16 01:27:00,
2013-05-15 20:28:00,72.5,57.8,30.06,WNW,284,0.0,0.0,60,0.00,,---,0.00,VWS V14.01,2013-05-16 01:28:00,
2013-05-15 20:29:00,72.4,57.8,30.06,SW,232,0.0,0.0,60,0.00,,---,0.00,VWS V14.01,2013-05-16 01:29:00,
2013-05-15 20:30:00,72.4,57.8,30.06,SW,232,0.0,0.0,60,0.00,,---,0.00,VWS V14.01,2013-05-16 01:30:00,
2013-05-15 20:31:00,72.4,57.8,30.06,WSW,246,0.0,1.0,60,0.00,,---,0.00,VWS V14.01,2013-05-16 01:31:00,
2013-05-15 20:32:00,72.3,57.7,30.06,WSW,246,0.0,1.0,60,0.00,,---,0.00,VWS V14.01,2013-05-16 01:32:00,
2013-05-15 20:33:00,72.3,57.7,30.06,WSW,246,0.0,0.0,60,0.00,,---,0.00,VWS V14.01,2013-05-16 01:33:00,
2013-05-15 20:34:00,72.2,58.0,30.07,WSW,245,0.0,0.0,61,0.00,,---,0.00,VWS V14.01,2013-05-16 01:34:00,
2013-05-15 20:35:00,72.2,58.0,30.07,WSW,245,0.0,0.0,61,0.00,,---,0.00,VWS V14.01,2013-05-16 01:35:00,
2013-05-15 20:36:00,72.1,57.9,30.07,WSW,246,0.0,0.0,61,0.00,,---,0.00,VWS V14.01,2013-05-16 01:36:00,
2013-05-15 20:37:00,72.1,57.9,30.06,WSW,246,0.0,0.0,61,0.00,,---,0.00,VWS V14.01,2013-05-16 01:37:00,
2013-05-15 20:38:00,72.0,57.8,30.06,WSW,246,0.0,0.0,61,0.00,,---,0.00,VWS V14.01,2013-05-16 01:38:00,
2013-05-15 20:39:00,71.9,57.7,30.06,WSW,246,0.0,0.0,61,0.00,,---,0.00,VWS V14.01,2013-05-16 01:39:00,
2013-05-15 20:40:00,71.9,58.2,30.06,WSW,248,0.0,0.0,62,0.00,,---,0.00,VWS V14.01,2013-05-16 01:40:00,
2013-05-15 20:41:00,71.9,58.2,30.06,WSW,248,0.0,0.0,62,0.00,,---,0.00,VWS V14.01,2013-05-16 01:41:00,
2013-05-15 20:42:00,71.8,58.1,30.06,ENE,71,0.0,1.0,62,0.00,,---,0.00,VWS V14.01,2013-05-16 01:42:00,
2013-05-15 20:43:00,71.8,58.1,30.06,NW,318,0.0,1.0,62,0.00,,---,0.00,VWS V14.01,2013-05-16 01:43:00,
2013-05-15 20:44:00,71.8,58.1,30.06,WSW,243,0.0,1.0,62,0.00,,---,0.00,VWS V14.01,2013-05-16 01:44:00,
2013-05-15 20:45:00,71.8,58.1,30.06,WSW,244,0.0,1.0,62,0.00,,---,0.00,VWS V14.01,2013-05-16 01:45:00,
2013-05-15 20:46:00,71.8,58.1,30.06,WSW,244,0.0,1.0,62,0.00,,---,0.00,VWS V14.01,2013-05-16 01:46:00,
2013-05-15 20:47:00,71.8,58.1,30.06,WSW,245,0.0,0.0,62,0.00,,---,0.00,VWS V14.01,2013-05-16 01:47:00,
2013-05-15 20:48:00,71.7,58.0,30.06,SW,235,0.0,1.0,62,0.00,,---,0.00,VWS V14.01,2013-05-16 01:48:00,
2013-05-15 20:49:00,71.7,58.0,30.06,SW,235,0.0,0.0,62,0.00,,---,0.00,VWS V14.01,2013-05-16 01:49:00,
2013-05-15 20:50:00,71.7,58.0,30.06,WNW,297,0.0,1.0,62,0.00,,---,0.00,VWS V14.01,2013-05-16 01:50:00,
2013-05-15 20:51:00,71.7,58.0,30.06,WNW,297,0.0,1.0,62,0.00,,---,0.00,VWS V14.01,2013-05-16 01:51:00,
2013-05-15 20:52:00,71.6,57.9,30.06,NW,315,0.0,0.0,62,0.00,,---,0.00,VWS V14.01,2013-05-16 01:52:00,
2013-05-15 20:53:00,71.6,57.9,30.06,NW,315,0.0,0.0,62,0.00,,---,0.00,VWS V14.01,2013-05-16 01:53:00,
2013-05-15 20:54:00,71.6,57.9,30.06,NW,314,0.0,0.0,62,0.00,,---,0.00,VWS V14.01,2013-05-16 01:54:00,
2013-05-15 20:55:00,71.5,57.8,30.06,NW,315,0.0,0.0,62,0.00,,---,0.00,VWS V14.01,2013-05-16 01:55:00,
2013-05-15 20:56:00,71.5,57.8,30.06,NW,315,0.0,0.0,62,0.00,,---,0.00,VWS V14.01,2013-05-16 01:56:00,
2013-05-15 20:57:00,71.5,57.8,30.06,NW,314,0.0,0.0,62,0.00,,---,0.00,VWS V14.01,2013-05-16 01:57:00,
2013-05-15 20:58:00,71.5,57.8,30.06,NW,314,0.0,0.0,62,0.00,,---,0.00,VWS V14.01,2013-05-16 01:58:00,
2013-05-15 20:59:00,71.4,58.2,30.06,NW,315,0.0,0.0,63,0.00,,---,0.00,VWS V14.01,2013-05-16 01:59:00,
2013-05-15 21:00:00,71.4,58.2,30.06,NW,314,0.0,0.0,63,0.00,,---,0.00,VWS V14.01,2013-05-16 02:00:00,
2013-05-15 21:01:00,71.3,58.1,30.06,North,360,0.0,1.0,63,0.00,,---,0.00,VWS V14.01,2013-05-16 02:01:00,
2013-05-15 21:02:00,71.3,58.1,30.06,North,360,0.0,1.0,63,0.00,,---,0.00,VWS V14.01,2013-05-16 02:02:00,
2013-05-15 21:03:00,71.3,58.1,30.06,ENE,68,1.0,1.0,63,0.00,,---,0.00,VWS V14.01,2013-05-16 02:03:00,
2013-05-15 21:04:00,71.3,58.1,30.06,ENE,65,0.0,1.0,63,0.00,,---,0.00,VWS V14.01,2013-05-16 02:04:00,
2013-05-15 21:05:00,71.2,58.0,30.06,ENE,65,0.0,0.0,63,0.00,,---,0.00,VWS V14.01,2013-05-16 02:05:00,
2013-05-15 21:06:00,71.2,58.0,30.06,East,92,0.0,1.0,63,0.00,,---,0.00,VWS V14.01,2013-05-16 02:06:00,
2013-05-15 21:07:00,71.2,58.0,30.06,East,92,0.0,1.0,63,0.00,,---,0.00,VWS V14.01,2013-05-16 02:07:00,
2013-05-15 21:08:00,71.2,58.0,30.06,East,92,0.0,0.0,63,0.00,,---,0.00,VWS V14.01,2013-05-16 02:08:00,
2013-05-15 21:09:00,71.2,58.0,30.06,East,91,0.0,0.0,63,0.00,,---,0.00,VWS V14.01,2013-05-16 02:09:00,
2013-05-15 21:10:00,71.1,57.9,30.06,East,91,0.0,0.0,63,0.00,,---,0.00,VWS V14.01,2013-05-16 02:10:00,
2013-05-15 21:11:00,71.1,57.9,30.06,NNE,27,0.0,1.0,63,0.00,,---,0.00,VWS V14.01,2013-05-16 02:11:00,
2013-05-15 21:12:00,71.1,57.9,30.06,NNE,27,0.0,1.0,63,0.00,,---,0.00,VWS V14.01,2013-05-16 02:12:00,
2013-05-15 21:13:00,71.1,57.9,30.06,NNE,29,0.0,0.0,63,0.00,,---,0.00,VWS V14.01,2013-05-16 02:13:00,
2013-05-15 21:14:00,71.0,57.8,30.06,East,100,1.0,2.0,63,0.00,,---,0.00,VWS V14.01,2013-05-16 02:14:00,
2013-05-15 21:15:00,71.0,57.8,30.06,ESE,105,0.0,1.0,63,0.00,,---,0.00,VWS V14.01,2013-05-16 02:15:00,
2013-05-15 21:16:00,71.0,58.2,30.06,West,266,0.0,1.0,64,0.00,,---,0.00,VWS V14.01,2013-05-16 02:16:00,
2013-05-15 21:17:00,71.0,58.2,30.06,West,266,0.0,1.0,64,0.00,,---,0.00,VWS V14.01,2013-05-16 02:17:00,
2013-05-15 21:18:00,71.0,58.2,30.06,West,262,0.0,1.0,64,0.00,,---,0.00,VWS V14.01,2013-05-16 02:18:00,
2013-05-15 21:19:00,71.0,58.2,30.06,SSE,155,0.0,0.0,64,0.00,,---,0.00,VWS V14.01,2013-05-16 02:19:00,
2013-05-15 21:20:00,71.0,58.2,30.06,SSE,155,0.0,0.0,64,0.00,,---,0.00,VWS V14.01,2013-05-16 02:20:00,
2013-05-15 21:21:00,71.0,58.2,30.06,SSE,155,0.0,0.0,64,0.00,,---,0.00,VWS V14.01,2013-05-16 02:21:00,
2013-05-15 21:22:00,71.0,58.2,30.06,SSE,155,0.0,0.0,64,0.00,,---,0.00,VWS V14.01,2013-05-16 02:22:00,
2013-05-15 21:23:00,71.0,58.2,30.06,SSE,155,0.0,0.0,64,0.00,,---,0.00,VWS V14.01,2013-05-16 02:23:00,
2013-05-15 21:24:00,71.0,58.7,30.06,SSE,156,0.0,1.0,65,0.00,,---,0.00,VWS V14.01,2013-05-16 02:24:00,
2013-05-15 21:25:00,71.0,58.7,30.06,West,281,2.0,2.0,65,0.00,,---,0.00,VWS V14.01,2013-05-16 02:25:00,
2013-05-15 21:26:00,71.1,58.8,30.06,WNW,290,1.0,1.0,65,0.00,,---,0.00,VWS V14.01,2013-05-16 02:26:00,
2013-05-15 21:27:00,71.1,58.8,30.06,WNW,290,1.0,1.0,65,0.00,,---,0.00,VWS V14.01,2013-05-16 02:27:00,
2013-05-15 21:28:00,71.1,58.8,30.06,SSE,148,1.0,2.0,65,0.00,,---,0.00,VWS V14.01,2013-05-16 02:28:00,
2013-05-15 21:29:00,71.2,58.8,30.06,NNW,340,1.0,2.0,65,0.00,,---,0.00,VWS V14.01,2013-05-16 02:29:00,
2013-05-15 21:30:00,71.2,59.3,30.06,WSW,246,3.0,3.0,66,0.00,,---,0.00,VWS V14.01,2013-05-16 02:30:00,
2013-05-15 21:31:00,71.2,59.3,30.06,SSE,148,0.0,0.0,66,0.00,,---,0.00,VWS V14.01,2013-05-16 02:31:00,
2013-05-15 21:32:00,71.2,59.3,30.06,SSE,148,0.0,0.0,66,0.00,,---,0.00,VWS V14.01,2013-05-16 02:32:00,
2013-05-15 21:33:00,71.2,59.3,30.06,SSE,148,0.0,0.0,66,0.00,,---,0.00,VWS V14.01,2013-05-16 02:33:00,
2013-05-15 21:34:00,71.2,59.3,30.06,SSE,148,1.0,1.0,66,0.00,,---,0.00,VWS V14.01,2013-05-16 02:34:00,
2013-05-15 21:35:00,71.2,59.3,30.07,SE,146,0.0,1.0,66,0.00,,---,0.00,VWS V14.01,2013-05-16 02:35:00,
2013-05-15 21:36:00,71.2,59.7,30.06,South,170,0.0,0.0,67,0.00,,---,0.00,VWS V14.01,2013-05-16 02:36:00,
2013-05-15 21:37:00,71.2,59.7,30.06,South,170,0.0,0.0,67,0.00,,---,0.00,VWS V14.01,2013-05-16 02:37:00,
2013-05-15 21:38:00,71.2,59.7,30.06,South,172,0.0,0.0,67,0.00,,---,0.00,VWS V14.01,2013-05-16 02:38:00,
2013-05-15 21:39:00,71.1,59.6,30.07,SW,220,2.0,3.0,67,0.00,,---,0.00,VWS V14.01,2013-05-16 02:39:00,
2013-05-15 21:40:00,71.1,59.6,30.07,WSW,240,0.0,2.0,67,0.00,,---,0.00,VWS V14.01,2013-05-16 02:40:00,
2013-05-15 21:41:00,71.1,59.6,30.07,SW,225,2.0,4.0,67,0.00,,---,0.00,VWS V14.01,2013-05-16 02:41:00,
2013-05-15 21:42:00,71.1,59.6,30.07,SW,225,2.0,4.0,67,0.00,,---,0.00,VWS V14.01,2013-05-16 02:42:00,
2013-05-15 21:43:00,71.1,59.6,30.07,WSW,240,0.0,2.0,67,0.00,,---,0.00,VWS V14.01,2013-05-16 02:43:00,
2013-05-15 21:44:00,71.1,59.6,30.07,WSW,242,0.0,0.0,67,0.00,,---,0.00,VWS V14.01,2013-05-16 02:44:00,
2013-05-15 21:45:00,71.1,59.6,30.07,WSW,242,0.0,0.0,67,0.00,,---,0.00,VWS V14.01,2013-05-16 02:45:00,
2013-05-15 21:46:00,71.1,59.6,30.07,WSW,242,0.0,0.0,67,0.00,,---,0.00,VWS V14.01,2013-05-16 02:46:00,
2013-05-15 21:47:00,71.0,59.9,30.06,West,281,2.0,2.0,68,0.00,,---,0.00,VWS V14.01,2013-05-16 02:47:00,
2013-05-15 21:48:00,71.0,59.9,30.06,West,281,2.0,2.0,68,0.00,,---,0.00,VWS V14.01,2013-05-16 02:48:00,
2013-05-15 21:49:00,71.0,59.9,30.06,WSW,238,0.0,3.0,68,0.00,,---,0.00,VWS V14.01,2013-05-16 02:49:00,
2013-05-15 21:50:00,70.9,59.8,30.06,WSW,238,0.0,1.0,68,0.00,,---,0.00,VWS V14.01,2013-05-16 02:50:00,
2013-05-15 21:51:00,70.9,59.8,30.06,WSW,238,0.0,0.0,68,0.00,,---,0.00,VWS V14.01,2013-05-16 02:51:00,
2013-05-15 21:52:00,70.8,59.7,30.06,WSW,237,0.0,0.0,68,0.00,,---,0.00,VWS V14.01,2013-05-16 02:52:00,
2013-05-15 21:53:00,70.8,59.7,30.06,WSW,237,0.0,0.0,68,0.00,,---,0.00,VWS V14.01,2013-05-16 02:53:00,
2013-05-15 21:54:00,70.8,59.7,30.06,WSW,238,0.0,1.0,68,0.00,,---,0.00,VWS V14.01,2013-05-16 02:54:00,
2013-05-15 21:55:00,70.7,59.6,30.06,SW,236,0.0,1.0,68,0.00,,---,0.00,VWS V14.01,2013-05-16 02:55:00,
2013-05-15 21:56:00,70.7,59.6,30.06,WSW,238,0.0,0.0,68,0.00,,---,0.00,VWS V14.01,2013-05-16 02:56:00,
2013-05-15 21:57:00,70.6,60.0,30.06,SSW,204,0.0,1.0,69,0.00,,---,0.00,VWS V14.01,2013-05-16 02:57:00,
2013-05-15 21:58:00,70.6,60.0,30.06,SSW,204,0.0,1.0,69,0.00,,---,0.00,VWS V14.01,2013-05-16 02:58:00,
2013-05-15 21:59:00,70.6,60.0,30.06,West,278,1.0,2.0,69,0.00,,---,0.00,VWS V14.01,2013-05-16 02:59:00,
2013-05-15 22:00:00,70.5,59.8,30.06,SW,220,1.0,1.0,69,0.00,,---,0.00,VWS V14.01,2013-05-16 03:00:00,
2013-05-15 22:01:00,70.5,59.8,30.06,SW,232,0.0,1.0,69,0.00,,---,0.00,VWS V14.01,2013-05-16 03:01:00,
2013-05-15 22:02:00,70.4,59.8,30.06,South,186,0.0,0.0,69,0.00,,---,0.00,VWS V14.01,2013-05-16 03:02:00,
2013-05-15 22:03:00,70.4,59.8,30.06,South,186,0.0,0.0,69,0.00,,---,0.00,VWS V14.01,2013-05-16 03:03:00,
2013-05-15 22:04:00,70.4,60.2,30.06,South,186,0.0,0.0,70,0.00,,---,0.00,VWS V14.01,2013-05-16 03:04:00,
2013-05-15 22:05:00,70.4,60.2,30.06,South,186,0.0,0.0,70,0.00,,---,0.00,VWS V14.01,2013-05-16 03:05:00,
2013-05-15 22:06:00,70.3,60.1,30.06,South,186,0.0,1.0,70,0.00,,---,0.00,VWS V14.01,2013-05-16 03:06:00,
2013-05-15 22:07:00,70.3,60.1,30.06,WSW,253,1.0,1.0,70,0.00,,---,0.00,VWS V14.01,2013-05-16 03:07:00,
2013-05-15 22:08:00,70.3,60.1,30.06,WSW,253,1.0,1.0,70,0.00,,---,0.00,VWS V14.01,2013-05-16 03:08:00,
2013-05-15 22:09:00,70.2,60.0,30.06,SSE,167,1.0,1.0,70,0.00,,---,0.00,VWS V14.01,2013-05-16 03:09:00,
2013-05-15 22:10:00,70.2,60.0,30.06,SW,218,1.0,1.0,70,0.00,,---,0.00,VWS V14.01,2013-05-16 03:10:00,
2013-05-15 22:11:00,70.2,60.4,30.06,ESE,121,1.0,1.0,71,0.00,,---,0.00,VWS V14.01,2013-05-16 03:11:00,
2013-05-15 22:12:00,70.2,60.4,30.06,SSW,207,1.0,2.0,71,0.00,,---,0.00,VWS V14.01,2013-05-16 03:12:00,
2013-05-15 22:13:00,70.2,60.4,30.06,SSE,150,1.0,1.0,71,0.00,,---,0.00,VWS V14.01,2013-05-16 03:13:00,
2013-05-15 22:14:00,70.2,60.4,30.06,SSE,150,1.0,1.0,71,0.00,,---,0.00,VWS V14.01,2013-05-16 03:14:00,
2013-05-15 22:15:00,70.1,60.3,30.06,SSE,150,0.0,1.0,71,0.00,,---,0.00,VWS V14.01,2013-05-16 03:15:00,
2013-05-15 22:16:00,70.1,60.3,30.06,SE,126,1.0,1.0,71,0.00,,---,0.00,VWS V14.01,2013-05-16 03:16:00,
2013-05-15 22:17:00,70.1,60.3,30.06,SSW,197,2.0,2.0,71,0.00,,---,0.00,VWS V14.01,2013-05-16 03:17:00,
2013-05-15 22:18:00,70.1,60.3,30.06,SW,221,0.0,2.0,71,0.00,,---,0.00,VWS V14.01,2013-05-16 03:18:00,
2013-05-15 22:19:00,70.1,60.7,30.06,SW,221,0.0,1.0,72,0.00,,---,0.00,VWS V14.01,2013-05-16 03:19:00,
2013-05-15 22:20:00,70.1,60.7,30.06,SW,221,0.0,1.0,72,0.00,,---,0.00,VWS V14.01,2013-05-16 03:20:00,
2013-05-15 22:21:00,70.1,60.7,30.06,SW,221,3.0,4.0,72,0.00,,---,0.00,VWS V14.01,2013-05-16 03:21:00,
2013-05-15 22:22:00,70.1,60.7,30.06,WSW,248,1.0,3.0,72,0.00,,---,0.00,VWS V14.01,2013-05-16 03:22:00,
2013-05-15 22:23:00,70.1,60.7,30.05,WSW,246,0.0,1.0,72,0.00,,---,0.00,VWS V14.01,2013-05-16 03:23:00,
2013-05-15 22:24:00,70.1,60.7,30.05,WSW,246,0.0,0.0,72,0.00,,---,0.00,VWS V14.01,2013-05-16 03:24:00,
2013-05-15 22:25:00,70.1,60.7,30.05,SW,215,0.0,1.0,72,0.00,,---,0.00,VWS V14.01,2013-05-16 03:25:00,
2013-05-15 22:26:00,70.1,60.7,30.05,SW,215,0.0,1.0,72,0.00,,---,0.00,VWS V14.01,2013-05-16 03:26:00,
2013-05-15 22:27:00,70.1,60.7,30.05,SW,216,0.0,0.0,72,0.00,,---,0.00,VWS V14.01,2013-05-16 03:27:00,
2013-05-15 22:28:00,70.1,60.7,30.05,WNW,284,1.0,1.0,72,0.00,,---,0.00,VWS V14.01,2013-05-16 03:28:00,
2013-05-15 22:29:00,70.0,61.0,30.05,North,11,1.0,2.0,73,0.00,,---,0.00,VWS V14.01,2013-05-16 03:29:00,
2013-05-15 22:30:00,70.0,61.0,30.05,North,11,0.0,0.0,73,0.00,,---,0.00,VWS V14.01,2013-05-16 03:30:00,
2013-05-15 22:31:00,70.0,61.0,30.05,North,11,0.0,0.0,73,0.00,,---,0.00,VWS V14.01,2013-05-16 03:31:00,
2013-05-15 22:32:00,70.0,61.0,30.05,North,10,0.0,1.0,73,0.00,,---,0.00,VWS V14.01,2013-05-16 03:32:00,
2013-05-15 22:33:00,69.9,60.9,30.05,North,10,0.0,0.0,73,0.00,,---,0.00,VWS V14.01,2013-05-16 03:33:00,
2013-05-15 22:34:00,69.9,60.9,30.05,North,10,0.0,0.0,73,0.00,,---,0.00,VWS V14.01,2013-05-16 03:34:00,
2013-05-15 22:35:00,69.9,60.9,30.05,North,11,0.0,0.0,73,0.00,,---,0.00,VWS V14.01,2013-05-16 03:35:00,
2013-05-15 22:36:00,69.9,61.2,30.05,NW,307,0.0,0.0,74,0.00,,---,0.00,VWS V14.01,2013-05-16 03:36:00,
2013-05-15 22:37:00,69.9,61.2,30.05,NW,307,0.0,0.0,74,0.00,,---,0.00,VWS V14.01,2013-05-16 03:37:00,
2013-05-15 22:39:00,69.8,61.2,30.05,NW,308,0.0,0.0,74,0.00,,---,0.00,VWS V14.01,2013-05-16 03:39:00,
2013-05-15 22:40:00,69.8,61.2,30.05,NW,307,0.0,0.0,74,0.00,,---,0.00,VWS V14.01,2013-05-16 03:40:00,
2013-05-15 22:41:00,69.7,61.4,30.05,NW,308,0.0,1.0,75,0.00,,---,0.00,VWS V14.01,2013-05-16 03:41:00,
2013-05-15 22:42:00,69.7,61.4,30.05,NW,308,0.0,1.0,75,0.00,,---,0.00,VWS V14.01,2013-05-16 03:42:00,
2013-05-15 22:43:00,69.7,61.4,30.05,NW,307,0.0,0.0,75,0.00,,---,0.00,VWS V14.01,2013-05-16 03:43:00,
2013-05-15 22:44:00,69.7,61.4,30.05,NW,307,0.0,0.0,75,0.00,,---,0.00,VWS V14.01,2013-05-16 03:44:00,
2013-05-15 22:45:00,69.7,61.4,30.05,NW,308,0.0,0.0,75,0.00,,---,0.00,VWS V14.01,2013-05-16 03:45:00,
2013-05-15 22:46:00,69.7,61.8,30.05,NNE,15,1.0,1.0,76,0.00,,---,0.00,VWS V14.01,2013-05-16 03:46:00,
2013-05-15 22:47:00,69.7,61.8,30.05,NNE,15,1.0,1.0,76,0.00,,---,0.00,VWS V14.01,2013-05-16 03:47:00,
2013-05-15 22:48:00,69.7,61.8,30.05,SE,131,1.0,2.0,76,0.00,,---,0.00,VWS V14.01,2013-05-16 03:48:00,
2013-05-15 22:49:00,69.7,61.8,30.05,SSE,163,0.0,1.0,76,0.00,,---,0.00,VWS V14.01,2013-05-16 03:49:00,
2013-05-15 22:50:00,69.7,61.8,30.05,SSE,163,0.0,0.0,76,0.00,,---,0.00,VWS V14.01,2013-05-16 03:50:00,
2013-05-15 22:51:00,69.7,61.8,30.05,SSE,162,0.0,1.0,76,0.00,,---,0.00,VWS V14.01,2013-05-16 03:51:00,
2013-05-15 22:52:00,69.7,61.8,30.05,SSE,162,0.0,1.0,76,0.00,,---,0.00,VWS V14.01,2013-05-16 03:52:00,
2013-05-15 22:53:00,69.7,61.8,30.05,SSE,162,0.0,0.0,76,0.00,,---,0.00,VWS V14.01,2013-05-16 03:53:00,
2013-05-15 22:54:00,69.6,61.7,30.05,SSE,162,0.0,0.0,76,0.00,,---,0.00,VWS V14.01,2013-05-16 03:54:00,
2013-05-15 22:55:00,69.6,61.7,30.05,SSE,162,0.0,0.0,76,0.00,,---,0.00,VWS V14.01,2013-05-16 03:55:00,
2013-05-15 22:56:00,69.6,61.7,30.05,SSE,162,0.0,0.0,76,0.00,,---,0.00,VWS V14.01,2013-05-16 03:56:00,
2013-05-15 22:57:00,69.6,61.7,30.05,SSE,162,0.0,0.0,76,0.00,,---,0.00,VWS V14.01,2013-05-16 03:57:00,
2013-05-15 22:58:00,69.6,61.7,30.05,SSE,162,0.0,0.0,76,0.00,,---,0.00,VWS V14.01,2013-05-16 03:58:00,
2013-05-15 22:59:00,69.5,61.6,30.05,SSE,163,0.0,0.0,76,0.00,,---,0.00,VWS V14.01,2013-05-16 03:59:00,
2013-05-15 23:00:00,69.5,61.6,30.06,SSE,163,0.0,0.0,76,0.00,,---,0.00,VWS V14.01,2013-05-16 04:00:00,
2013-05-15 23:01:00,69.5,62.0,30.06,SSE,167,0.0,0.0,77,0.00,,---,0.00,VWS V14.01,2013-05-16 04:01:00,
2013-05-15 23:02:00,69.5,61.6,30.06,South,169,0.0,0.0,76,0.00,,---,0.00,VWS V14.01,2013-05-16 04:02:00,
2013-05-15 23:03:00,69.5,61.6,30.06,South,169,0.0,0.0,76,0.00,,---,0.00,VWS V14.01,2013-05-16 04:03:00,
2013-05-15 23:04:00,69.5,61.6,30.06,South,169,0.0,1.0,76,0.00,,---,0.00,VWS V14.01,2013-05-16 04:04:00,
2013-05-15 23:05:00,69.4,61.5,30.06,South,169,0.0,0.0,76,0.00,,---,0.00,VWS V14.01,2013-05-16 04:05:00,
2013-05-15 23:06:00,69.4,61.5,30.06,South,169,0.0,0.0,76,0.00,,---,0.00,VWS V14.01,2013-05-16 04:06:00,
2013-05-15 23:07:00,69.4,61.5,30.06,South,169,0.0,0.0,76,0.00,,---,0.00,VWS V14.01,2013-05-16 04:07:00,
2013-05-15 23:08:00,69.4,61.5,30.06,South,169,0.0,0.0,76,0.00,,---,0.00,VWS V14.01,2013-05-16 04:08:00,
2013-05-15 23:09:00,69.3,61.4,30.06,South,169,0.0,0.0,76,0.00,,---,0.00,VWS V14.01,2013-05-16 04:09:00,
2013-05-15 23:10:00,69.3,61.4,30.06,South,169,0.0,0.0,76,0.00,,---,0.00,VWS V14.01,2013-05-16 04:10:00,
2013-05-15 23:11:00,69.3,61.4,30.06,South,169,0.0,0.0,76,0.00,,---,0.00,VWS V14.01,2013-05-16 04:11:00,
2013-05-15 23:12:00,69.2,61.3,30.06,South,169,0.0,0.0,76,0.00,,---,0.00,VWS V14.01,2013-05-16 04:12:00,
2013-05-15 23:13:00,69.2,61.3,30.06,South,169,0.0,0.0,76,0.00,,---,0.00,VWS V14.01,2013-05-16 04:13:00,
2013-05-15 23:14:00,69.1,61.2,30.06,South,169,0.0,0.0,76,0.00,,---,0.00,VWS V14.01,2013-05-16 04:14:00,
2013-05-15 23:15:00,69.1,61.6,30.06,SW,218,0.0,1.0,77,0.00,,---,0.00,VWS V14.01,2013-05-16 04:15:00,
2013-05-15 23:16:00,69.0,61.5,30.06,SW,218,0.0,0.0,77,0.00,,---,0.00,VWS V14.01,2013-05-16 04:16:00,
2013-05-15 23:17:00,69.0,61.5,30.06,SW,218,0.0,0.0,77,0.00,,---,0.00,VWS V14.01,2013-05-16 04:17:00,
2013-05-15 23:18:00,68.9,61.4,30.06,SW,218,0.0,0.0,77,0.00,,---,0.00,VWS V14.01,2013-05-16 04:18:00,
2013-05-15 23:19:00,68.9,61.4,30.06,SW,218,0.0,0.0,77,0.00,,---,0.00,VWS V14.01,2013-05-16 04:19:00,
2013-05-15 23:20:00,68.9,61.4,30.06,SW,219,0.0,0.0,77,0.00,,---,0.00,VWS V14.01,2013-05-16 04:20:00,
2013-05-15 23:21:00,68.9,61.4,30.06,SW,218,0.0,0.0,77,0.00,,---,0.00,VWS V14.01,2013-05-16 04:21:00,
2013-05-15 23:22:00,68.8,61.3,30.06,SW,218,0.0,0.0,77,0.00,,---,0.00,VWS V14.01,2013-05-16 04:22:00,
2013-05-15 23:23:00,68.8,61.3,30.06,SW,218,0.0,0.0,77,0.00,,---,0.00,VWS V14.01,2013-05-16 04:23:00,
2013-05-15 23:24:00,68.7,61.6,30.06,SW,218,1.0,1.0,78,0.00,,---,0.00,VWS V14.01,2013-05-16 04:24:00,
2013-05-15 23:25:00,68.7,61.6,30.06,SW,218,1.0,1.0,78,0.00,,---,0.00,VWS V14.01,2013-05-16 04:25:00,
2013-05-15 23:26:00,68.7,61.6,30.06,West,275,1.0,2.0,78,0.00,,---,0.00,VWS V14.01,2013-05-16 04:26:00,
2013-05-15 23:27:00,68.7,61.6,30.06,West,276,0.0,1.0,78,0.00,,---,0.00,VWS V14.01,2013-05-16 04:27:00,
2013-05-15 23:28:00,68.7,61.6,30.06,West,276,0.0,0.0,78,0.00,,---,0.00,VWS V14.01,2013-05-16 04:28:00,
2013-05-15 23:29:00,68.7,61.6,30.05,West,276,0.0,0.0,78,0.00,,---,0.00,VWS V14.01,2013-05-16 04:29:00,
2013-05-15 23:30:00,68.7,61.6,30.05,West,276,0.0,0.0,78,0.00,,---,0.00,VWS V14.01,2013-05-16 04:30:00,
2013-05-15 23:31:00,68.7,61.6,30.05,West,275,0.0,0.0,78,0.00,,---,0.00,VWS V14.01,2013-05-16 04:31:00,
2013-05-15 23:32:00,68.7,61.6,30.05,West,275,0.0,0.0,78,0.00,,---,0.00,VWS V14.01,2013-05-16 04:32:00,
2013-05-15 23:33:00,68.7,61.9,30.05,West,275,0.0,0.0,79,0.00,,---,0.00,VWS V14.01,2013-05-16 04:33:00,
2013-05-15 23:34:00,68.6,61.8,30.05,West,275,0.0,0.0,79,0.00,,---,0.00,VWS V14.01,2013-05-16 04:34:00,
2013-05-15 23:35:00,68.6,61.8,30.05,West,275,0.0,0.0,79,0.00,,---,0.00,VWS V14.01,2013-05-16 04:35:00,
2013-05-15 23:36:00,68.6,61.8,30.05,West,275,0.0,0.0,79,0.00,,---,0.00,VWS V14.01,2013-05-16 04:36:00,
2013-05-15 23:37:00,68.6,61.8,30.05,West,275,0.0,0.0,79,0.00,,---,0.00,VWS V14.01,2013-05-16 04:37:00,
2013-05-15 23:38:00,68.6,61.8,30.05,West,275,0.0,0.0,79,0.00,,---,0.00,VWS V14.01,2013-05-16 04:38:00,
2013-05-15 23:39:00,68.6,62.2,30.05,West,276,0.0,0.0,80,0.00,,---,0.00,VWS V14.01,2013-05-16 04:39:00,
2013-05-15 23:40:00,68.6,62.2,30.05,West,276,0.0,0.0,80,0.00,,---,0.00,VWS V14.01,2013-05-16 04:40:00,
2013-05-15 23:41:00,68.6,62.2,30.05,West,276,0.0,0.0,80,0.00,,---,0.00,VWS V14.01,2013-05-16 04:41:00,
2013-05-15 23:42:00,68.5,62.1,30.05,West,275,0.0,1.0,80,0.00,,---,0.00,VWS V14.01,2013-05-16 04:42:00,
2013-05-15 23:43:00,68.6,62.2,30.05,West,276,0.0,0.0,80,0.00,,---,0.00,VWS V14.01,2013-05-16 04:43:00,
2013-05-15 23:44:00,68.6,62.2,30.05,West,276,0.0,0.0,80,0.00,,---,0.00,VWS V14.01,2013-05-16 04:44:00,
2013-05-15 23:45:00,68.6,62.2,30.05,West,276,0.0,0.0,80,0.00,,---,0.00,VWS V14.01,2013-05-16 04:45:00,
2013-05-15 23:46:00,68.6,62.2,30.05,West,275,0.0,0.0,80,0.00,,---,0.00,VWS V14.01,2013-05-16 04:46:00,
2013-05-15 23:47:00,68.6,62.5,30.05,West,275,0.0,1.0,81,0.00,,---,0.00,VWS V14.01,2013-05-16 04:47:00,
2013-05-15 23:48:00,68.6,62.5,30.06,West,276,0.0,0.0,81,0.00,,---,0.00,VWS V14.01,2013-05-16 04:48:00,
2013-05-15 23:49:00,68.6,62.5,30.06,West,276,0.0,0.0,81,0.00,,---,0.00,VWS V14.01,2013-05-16 04:49:00,
2013-05-15 23:50:00,68.6,62.5,30.06,West,276,0.0,1.0,81,0.00,,---,0.00,VWS V14.01,2013-05-16 04:50:00,
2013-05-15 23:51:00,68.6,62.5,30.06,West,276,0.0,1.0,81,0.00,,---,0.00,VWS V14.01,2013-05-16 04:51:00,
2013-05-15 23:52:00,68.6,62.5,30.06,West,275,0.0,0.0,81,0.00,,---,0.00,VWS V14.01,2013-05-16 04:52:00,
2013-05-15 23:53:00,68.6,62.5,30.06,West,276,0.0,0.0,81,0.00,,---,0.00,VWS V14.01,2013-05-16 04:53:00,
2013-05-15 23:54:00,68.6,62.5,30.06,West,276,0.0,0.0,81,0.00,,---,0.00,VWS V14.01,2013-05-16 04:54:00,
2013-05-15 23:55:00,68.6,62.5,30.06,West,275,0.0,0.0,81,0.00,,---,0.00,VWS V14.01,2013-05-16 04:55:00,
2013-05-15 23:56:00,68.6,62.5,30.06,West,275,0.0,0.0,81,0.00,,---,0.00,VWS V14.01,2013-05-16 04:56:00,
2013-05-15 23:57:00,68.6,62.5,30.06,West,276,0.0,0.0,81,0.00,,---,0.00,VWS V14.01,2013-05-16 04:57:00,
2013-05-15 23:58:00,68.6,62.5,30.06,West,276,0.0,0.0,81,0.00,,---,0.00,VWS V14.01,2013-05-16 04:58:00,
2013-05-15 23:59:00,68.6,62.5,30.06,West,275,0.0,1.0,81,0.00,,---,0.00,VWS V14.01,2013-05-16 04:59:00,